[[{"header":{"parameterUnit":"m.s-1","parameterCategory":1,"la1":30.6,"la2":29.2853,"lo1":-89.7004,"lo2":-87.6739,"dx":0.0162,"dy":0.0183,"nx":112,"ny":82,"refTime":"2022-11-10T06:00:00:Z","depth":0,"parameterNumber":2,"parameterNumberName":"U-component_of_WINDS"},"data":[0.0,0.0,0.0,0.0,0.0,0.0,0.0,0.0,0.0,0.0,0.0,0.0,0.0,0.0,0.0,0.0,0.0,0.0,0.0,0.0,0.0,0.0,0.0,0.0,0.0,0.0,0.0,0.0,0.0,0.0,0.0,0.0,0.0,0.0,0.0,0.0,0.0,0.0,0.0,0.0,0.0,0.0,0.0,0.0,0.0,0.0,0.0,0.0,0.0,0.0,0.0,0.0,0.0,0.0,0.0,0.0,0.0,0.0,0.0,0.0,0.0,0.0,0.0,0.0,0.0,0.0,0.0,0.0,0.0,0.0,0.0,0.0,0.0,0.0,0.0,0.0,0.0,0.0,0.0,0.0,0.0,0.0,0.0,0.0,0.0,0.0,0.0,0.0,0.0,0.0,3.1004,3.1552,3.3777,3.5579,3.6431,3.4648,3.1964,2.8448,0.0,0.0,0.0,0.0,0.0,0.0,0.0,0.0,0.0,0.0,0.0,0.0,0.0,0.0,0.0,0.0,0.0,0.0,0.0,0.0,0.0,0.0,0.0,0.0,0.0,0.0,0.0,0.0,0.0,0.0,0.0,0.0,0.0,0.0,0.0,0.0,0.0,0.0,0.0,0.0,0.0,0.0,0.0,0.0,0.0,0.0,0.0,0.0,0.0,0.0,0.0,0.0,0.0,0.0,0.0,0.0,0.0,0.0,0.0,0.0,0.0,0.0,0.0,0.0,0.0,0.0,0.0,0.0,0.0,0.0,0.0,0.0,0.0,0.0,0.0,0.0,0.0,0.0,0.0,0.0,0.0,0.0,0.0,0.0,0.0,0.0,0.0,0.0,0.0,0.0,0.0,0.0,0.0,0.0,0.0,0.0,0.0,0.0,0.0,0.0,0.0,0.0,0.0,0.0,3.0529,3.5658,3.6983,3.7387,3.711,3.5882,3.3323,2.9057,0.0,0.0,0.0,0.0,0.0,0.0,0.0,0.0,0.0,0.0,0.0,0.0,0.0,0.0,0.0,0.0,0.0,0.0,0.0,0.0,0.0,0.0,0.0,0.0,0.0,0.0,0.0,0.0,0.0,0.0,0.0,0.0,0.0,0.0,0.0,0.0,0.0,0.0,0.0,0.0,0.0,0.0,0.0,0.0,0.0,0.0,0.0,0.0,0.0,0.0,0.0,0.0,0.0,0.0,0.0,0.0,0.0,0.0,0.0,0.0,0.0,0.0,0.0,0.0,0.0,0.0,0.0,0.0,0.0,0.0,0.0,0.0,0.0,0.0,0.0,0.0,0.0,0.0,0.0,0.0,0.0,0.0,0.0,0.0,0.0,0.0,0.0,0.0,0.0,0.0,0.0,0.0,0.0,0.0,0.0,0.0,0.0,0.0,0.0,0.0,0.0,0.0,0.0,3.0484,3.3014,3.7637,3.804,3.804,3.8115,3.681,3.4023,2.9406,2.6447,0.0,0.0,0.0,0.0,0.0,0.0,0.0,0.0,0.0,0.0,0.0,0.0,0.0,0.0,0.0,0.0,0.0,0.0,0.0,0.0,0.0,0.0,0.0,0.0,0.0,0.0,0.0,0.0,0.0,0.0,0.0,0.0,0.0,0.0,0.0,0.0,0.0,0.0,0.0,0.0,0.0,0.0,0.0,0.0,0.0,0.0,0.0,0.0,0.0,0.0,0.0,0.0,0.0,0.0,0.0,0.0,0.0,0.0,0.0,0.0,0.0,0.0,0.0,0.0,0.0,0.0,0.0,0.0,0.0,0.0,0.0,0.0,0.0,0.0,0.0,0.0,0.0,0.0,0.0,0.0,0.0,0.0,0.0,0.0,0.0,0.0,0.0,0.0,0.0,0.0,0.0,0.0,0.0,0.0,0.0,0.0,0.0,0.0,0.0,0.0,0.0,0.0,3.4002,3.5846,3.783,3.7935,3.7888,3.7828,3.6456,3.3584,2.8881,2.6427,0.0,0.0,0.0,0.0,0.0,0.0,0.0,0.0,0.0,0.0,0.0,0.0,0.0,0.0,0.0,0.0,0.0,0.0,0.0,0.0,0.0,0.0,0.0,0.0,0.0,0.0,0.0,0.0,0.0,0.0,0.0,0.0,0.0,0.0,0.0,0.0,0.0,0.0,0.0,0.0,0.0,0.0,0.0,0.0,0.0,0.0,0.0,0.0,0.0,0.0,0.0,0.0,0.0,0.0,0.0,0.0,0.0,0.0,0.0,0.0,0.0,0.0,0.0,0.0,0.0,0.0,0.0,0.0,0.0,0.0,0.0,0.0,0.0,0.0,0.0,0.0,0.0,0.0,0.0,0.0,0.0,0.0,0.0,0.0,0.0,0.0,0.0,0.0,0.0,0.0,0.0,0.0,0.0,0.0,0.0,0.0,0.0,0.0,0.0,0.0,0.0,0.0,3.449,3.7778,3.5777,3.6741,3.677,3.4894,3.3817,3.1311,2.6818,2.4774,0.0,0.0,0.0,0.0,0.0,0.0,0.0,0.0,0.0,0.0,0.0,0.0,0.0,0.0,0.0,0.0,0.0,0.0,0.0,0.0,0.0,0.0,0.0,0.0,0.0,0.0,0.0,0.0,0.0,0.0,0.0,0.0,0.0,0.0,0.0,0.0,0.0,0.0,0.0,0.0,0.0,0.0,0.0,0.0,0.0,0.0,0.0,0.0,0.0,0.0,0.0,0.0,0.0,0.0,0.0,0.0,0.0,0.0,0.0,0.0,0.0,0.0,0.0,0.0,0.0,0.0,0.0,0.0,0.0,0.0,0.0,0.0,0.0,0.0,0.0,0.0,0.0,0.0,0.0,0.0,0.0,0.0,0.0,0.0,0.0,0.0,0.0,0.0,0.0,0.0,0.0,0.0,0.0,0.0,0.0,0.0,0.0,0.0,0.0,0.0,0.0,0.0,3.3241,3.5787,3.535,3.5809,3.5822,3.5019,3.4814,3.2607,2.7604,0.0,0.0,0.0,0.0,0.0,0.0,0.0,0.0,0.0,0.0,0.0,0.0,0.0,0.0,0.0,0.0,0.0,0.0,0.0,0.0,0.0,0.0,0.0,0.0,0.0,0.0,0.0,0.0,0.0,0.0,0.0,0.0,0.0,0.0,0.0,0.0,0.0,0.0,0.0,0.0,0.0,0.0,0.0,0.0,0.0,0.0,0.0,0.0,0.0,0.0,0.0,0.0,0.0,0.0,0.0,0.0,0.0,0.0,0.0,0.0,0.0,0.0,0.0,0.0,0.0,0.0,0.0,0.0,0.0,0.0,0.0,0.0,0.0,0.0,0.0,0.0,0.0,0.0,0.0,0.0,0.0,0.0,0.0,0.0,0.0,0.0,0.0,0.0,0.0,0.0,0.0,0.0,0.0,0.0,0.0,0.0,0.0,0.0,0.0,0.0,0.0,0.0,2.8558,3.2306,3.4588,3.4127,3.4532,3.4594,3.4138,3.4481,3.2494,2.7283,0.0,0.0,0.0,0.0,0.0,0.0,0.0,0.0,0.0,0.0,0.0,0.0,0.0,0.0,0.0,0.0,0.0,0.0,0.0,0.0,0.0,0.0,0.0,0.0,0.0,0.0,0.0,0.0,0.0,0.0,0.0,0.0,0.0,0.0,0.0,0.0,0.0,0.0,0.0,0.0,0.0,0.0,0.0,0.0,0.0,0.0,0.0,0.0,0.0,0.0,0.0,0.0,0.0,0.0,0.0,0.0,0.0,0.0,0.0,0.0,0.0,0.0,0.0,0.0,0.0,0.0,0.0,0.0,0.0,0.0,0.0,0.0,0.0,0.0,0.0,0.0,0.0,0.0,0.0,0.0,0.0,0.0,0.0,0.0,0.0,0.0,0.0,0.0,0.0,0.0,0.0,0.0,0.0,0.0,0.0,0.0,0.0,0.0,0.0,0.0,0.0,0.0,2.6449,3.1971,3.4754,3.1831,3.2802,3.3094,3.1623,3.2072,3.0282,0.0,0.0,0.0,0.0,0.0,0.0,0.0,0.0,0.0,0.0,0.0,0.0,0.0,0.0,0.0,0.0,0.0,0.0,0.0,0.0,0.0,0.0,0.0,0.0,0.0,0.0,0.0,0.0,0.0,0.0,0.0,0.0,0.0,0.0,0.0,0.0,0.0,0.0,0.0,0.0,0.0,0.0,0.0,0.0,0.0,0.0,0.0,0.0,0.0,0.0,0.0,0.0,0.0,0.0,0.0,0.0,0.0,0.0,0.0,0.0,0.0,0.0,0.0,0.0,0.0,0.0,0.0,0.0,0.0,0.0,0.0,0.0,0.0,0.0,0.0,0.0,0.0,0.0,0.0,0.0,0.0,0.0,0.0,0.0,0.0,0.0,0.0,0.0,0.0,0.0,0.0,0.0,0.0,0.0,0.0,0.0,0.0,0.0,0.0,0.0,0.0,0.0,0.0,2.7782,3.1665,3.373,3.2175,3.2375,3.2326,3.1573,3.3203,3.2054,2.6727,0.0,0.0,0.0,0.0,0.0,0.0,0.0,0.0,0.0,0.0,0.0,0.0,0.0,0.0,0.0,0.0,0.0,0.0,0.0,0.0,0.0,0.0,0.0,0.0,0.0,0.0,0.0,0.0,0.0,0.0,0.0,0.0,0.0,0.0,0.0,0.0,0.0,0.0,0.0,0.0,0.0,0.0,0.0,0.0,0.0,0.0,0.0,0.0,0.0,0.0,0.0,0.0,0.0,0.0,0.0,0.0,0.0,0.0,0.0,0.0,0.0,0.0,0.0,0.0,0.0,0.0,0.0,0.0,0.0,0.0,0.0,0.0,0.0,0.0,0.0,0.0,0.0,0.0,0.0,0.0,0.0,0.0,0.0,0.0,0.0,0.0,0.0,0.0,0.0,0.0,0.0,0.0,0.0,0.0,0.0,0.0,0.0,0.0,0.0,0.0,0.0,0.0,2.779,3.1109,3.3125,3.2505,3.2452,3.2335,3.2051,3.3584,3.2855,2.885,0.0,0.0,0.0,0.0,0.0,0.0,0.0,0.0,0.0,0.0,0.0,0.0,0.0,0.0,0.0,0.0,0.0,0.0,0.0,0.0,0.0,0.0,0.0,0.0,0.0,0.0,0.0,0.0,0.0,0.0,0.0,0.0,0.0,0.0,0.0,0.0,0.0,0.0,0.0,0.0,0.0,0.0,0.0,0.0,0.0,0.0,0.0,0.0,0.0,0.0,0.0,0.0,0.0,0.0,0.0,0.0,0.0,0.0,0.0,0.0,0.0,0.0,0.0,0.0,0.0,0.0,0.0,0.0,0.0,0.0,0.0,0.0,0.0,0.0,0.0,0.0,0.0,0.0,0.0,0.0,0.0,0.0,0.0,0.0,0.0,0.0,0.0,0.0,0.0,0.0,0.0,0.0,0.0,0.0,0.0,0.0,0.0,0.0,0.0,0.0,0.0,0.0,2.7072,3.0508,3.2891,3.2969,3.2969,3.293,3.2851,3.3443,3.3042,3.1184,0.0,0.0,0.0,0.0,0.0,0.0,0.0,0.0,0.0,0.0,0.0,0.0,0.0,0.0,0.0,0.0,0.0,0.0,0.0,0.0,0.0,0.0,0.0,0.0,0.0,0.0,0.0,0.0,0.0,0.0,0.0,0.0,0.0,0.0,0.0,0.0,0.0,0.0,0.0,0.0,0.0,0.0,0.0,0.0,0.0,0.0,0.0,0.0,0.0,0.0,0.0,0.0,0.0,0.0,0.0,0.0,0.0,0.0,0.0,0.0,2.0276,1.9221,0.0,0.0,0.0,0.0,0.0,0.0,0.0,0.0,0.0,0.0,0.0,0.0,0.0,0.0,0.0,0.0,0.0,0.0,0.0,0.0,0.0,0.0,0.0,0.0,0.0,0.0,0.0,0.0,0.0,0.0,0.0,0.0,0.0,0.0,0.0,0.0,0.0,0.0,0.0,0.0,2.8251,3.1279,3.3535,3.4219,3.4297,3.4023,3.334,3.4167,3.3833,3.1761,3.0996,0.0,0.0,0.0,0.0,0.0,0.0,0.0,0.0,0.0,0.0,0.0,0.0,0.0,0.0,0.0,0.0,0.0,0.0,0.0,0.0,0.0,0.0,0.0,0.0,0.0,0.0,0.0,0.0,0.0,0.0,0.0,0.0,0.0,0.0,0.0,0.0,0.0,0.0,0.0,0.0,0.0,0.0,0.0,0.0,0.0,0.0,0.0,0.0,0.0,0.0,0.0,0.0,0.0,0.0,0.0,0.0,0.0,0.0,0.0,2.2657,2.1804,0.0,0.0,0.0,0.0,0.0,0.0,0.0,0.0,0.0,0.0,0.0,0.0,0.0,0.0,0.0,0.0,0.0,0.0,0.0,0.0,0.0,0.0,0.0,0.0,0.0,0.0,0.0,0.0,0.0,0.0,0.0,0.0,0.0,0.0,0.0,0.0,0.0,0.0,0.0,0.0,2.905,3.2051,3.4199,3.4648,3.4707,3.4512,3.4062,3.4161,3.406,3.367,3.219,0.0,0.0,0.0,0.0,0.0,0.0,0.0,0.0,0.0,0.0,0.0,0.0,0.0,0.0,0.0,0.0,0.0,0.0,0.0,0.0,0.0,0.0,0.0,0.0,0.0,0.0,0.0,0.0,0.0,0.0,0.0,0.0,0.0,0.0,0.0,0.0,0.0,0.0,0.0,0.0,0.0,0.0,0.0,0.0,0.0,0.0,0.0,0.0,0.0,0.0,0.0,0.0,0.0,2.3655,2.4219,2.4745,2.4911,2.568,2.673,2.4993,2.4572,2.5073,2.4133,0.0,0.0,0.0,0.0,0.0,0.0,0.0,0.0,0.0,0.0,0.0,0.0,0.0,0.0,0.0,0.0,0.0,0.0,0.0,0.0,0.0,0.0,0.0,0.0,2.8085,2.8508,2.6361,0.0,0.0,0.0,0.0,0.0,0.0,0.0,0.0,0.0,0.0,0.0,2.9951,3.2891,3.4922,3.4922,3.5,3.498,3.4824,3.4101,3.4187,3.551,3.3418,3.2294,0.0,0.0,0.0,0.0,0.0,0.0,0.0,0.0,0.0,0.0,0.0,0.0,0.0,0.0,0.0,0.0,0.0,0.0,0.0,0.0,0.0,0.0,0.0,0.0,0.0,0.0,0.0,0.0,0.0,0.0,0.0,0.0,2.1235,2.2318,0.0,0.0,0.0,0.0,0.0,0.0,0.0,0.0,0.0,0.0,0.0,0.0,0.0,2.2648,2.3053,2.5423,2.6131,2.5139,2.796,2.8555,2.7275,2.8193,2.8405,2.8099,2.8835,0.0,2.7234,2.6647,0.0,0.0,0.0,0.0,0.0,0.0,0.0,0.0,0.0,0.0,0.0,0.0,0.0,0.0,0.0,0.0,0.0,0.0,0.0,0.0,0.0,0.0,2.9228,3.0063,3.0447,3.0802,0.0,2.8353,2.5108,2.451,2.507,0.0,0.0,0.0,0.0,0.0,0.0,0.0,3.1505,3.418,3.5806,3.5806,3.6191,3.6147,3.5371,3.4824,3.4823,3.5551,3.62,3.5921,3.451,3.42,0.0,0.0,0.0,0.0,0.0,0.0,0.0,0.0,0.0,0.0,0.0,0.0,0.0,0.0,0.0,0.0,0.0,0.0,0.0,0.0,0.0,0.0,0.0,0.0,0.0,0.0,0.0,0.0,0.0,2.0245,2.1895,2.297,2.1705,2.0594,0.0,0.0,0.0,0.0,0.0,0.0,0.0,0.0,0.0,2.5572,2.6163,2.6518,2.6617,2.8089,2.8333,2.7435,2.8844,2.9264,2.8785,2.9232,2.9324,2.9059,2.9585,2.9699,2.9363,2.8388,2.7122,2.5666,0.0,0.0,0.0,0.0,2.508,2.6158,2.7636,2.81,2.7878,2.695,0.0,0.0,0.0,0.0,0.0,0.0,0.0,2.627,0.0,0.0,3.0615,3.1699,3.2148,3.2488,3.3055,3.1462,2.9618,0.0,2.8629,2.7653,2.4154,0.0,0.0,0.0,0.0,3.1946,3.3415,3.543,3.6738,3.6738,3.6914,3.6777,3.6172,3.5703,3.5441,3.5473,3.6887,3.7392,3.662,3.6278,3.465,0.0,0.0,0.0,0.0,0.0,0.0,0.0,0.0,0.0,0.0,0.0,0.0,0.0,0.0,0.0,0.0,0.0,0.0,0.0,0.0,0.0,0.0,0.0,0.0,0.0,0.0,0.0,0.0,2.1995,2.3326,2.4264,2.3427,2.2435,0.0,0.0,0.0,0.0,0.0,0.0,2.5257,2.5536,2.6405,2.8068,2.8927,2.9367,2.9381,2.9884,2.9836,2.923,2.9328,2.959,2.9931,2.9931,2.9931,2.9931,2.9931,3.0266,3.0751,2.9728,2.8802,2.7851,2.628,2.5783,2.6,2.6541,2.7128,2.7935,2.9719,3.0075,2.961,2.8769,2.8152,2.754,2.6194,0.0,0.0,0.0,0.0,2.8124,2.9298,3.0723,3.2129,3.3203,3.3769,3.405,3.405,3.3972,3.3545,0.0,3.211,3.1038,2.7401,0.0,0.0,2.8755,3.1802,3.4478,3.5119,3.6523,3.7422,3.7305,3.7402,3.7285,3.691,3.6543,3.6113,3.5586,3.7582,3.8602,3.8245,3.8506,3.7688,3.5581,0.0,0.0,0.0,0.0,0.0,0.0,0.0,0.0,0.0,0.0,0.0,0.0,0.0,0.0,0.0,0.0,0.0,0.0,0.0,0.0,0.0,0.0,0.0,0.0,0.0,0.0,0.0,0.0,0.0,2.7795,2.6909,0.0,0.0,0.0,0.0,2.26,2.4308,2.6084,2.7722,2.8124,2.9035,3.0569,2.9541,2.9141,2.9584,2.9996,3.0154,3.0137,3.0586,3.0801,3.082,3.082,3.082,3.082,3.082,3.0878,3.0886,3.0737,3.0474,3.0117,3.0029,2.9697,2.9321,2.9851,3.0767,3.18,3.2405,3.2609,3.2586,3.2542,3.1362,2.9867,2.9369,2.8728,0.0,0.0,3.0007,3.1074,3.2715,3.3828,3.4629,3.5137,3.5586,3.5845,3.5845,3.5566,3.4896,0.0,3.4441,3.4623,3.2256,0.0,3.39,3.3189,3.3657,3.4727,3.6382,3.7344,3.7699,3.7344,3.7656,3.7734,3.7305,3.7246,3.6875,3.6001,3.903,4.0248,3.8924,4.1344,4.1153,3.7914,3.6157,0.0,0.0,0.0,0.0,0.0,0.0,0.0,0.0,0.0,0.0,0.0,0.0,0.0,0.0,0.0,0.0,0.0,0.0,0.0,0.0,0.0,0.0,0.0,0.0,0.0,0.0,0.0,0.0,2.7757,2.6816,0.0,2.5102,2.5385,2.5888,2.654,2.7679,2.8765,2.9766,2.9658,2.9864,3.0406,3.0522,3.0664,3.082,3.125,3.1494,3.1494,3.167,3.1749,3.1749,3.1749,3.1749,3.1749,3.1749,3.1749,3.163,3.0464,3.0255,3.0696,3.0696,3.0723,3.0817,3.1007,3.1539,3.2154,3.2346,3.2407,3.2407,3.2407,3.1191,2.9738,2.98,2.8817,2.8009,2.9751,3.0642,3.1574,3.3682,3.4883,3.5664,3.6147,3.6543,3.6836,3.6836,3.6934,3.6875,3.6372,3.5864,3.4943,3.3258,3.4789,3.5918,3.4864,3.623,3.7715,3.8633,3.875,3.8691,3.8535,3.8418,3.8164,3.7734,3.7695,3.7344,3.6484,3.9306,4.065,3.9833,4.2185,4.2785,4.1255,3.9897,3.6843,0.0,0.0,0.0,0.0,0.0,0.0,0.0,0.0,0.0,0.0,0.0,0.0,0.0,0.0,0.0,0.0,0.0,0.0,0.0,0.0,0.0,0.0,0.0,0.0,0.0,2.5717,2.6769,2.7696,2.7449,2.6977,2.6427,2.7432,2.8322,2.8796,2.9564,2.9991,2.9925,2.9824,2.9557,2.908,2.9663,2.994,2.994,3.0248,3.0408,3.0408,3.0408,3.0451,3.055,3.055,3.0593,3.069,3.069,3.069,3.0646,2.957,2.948,3.0033,2.9688,2.9719,2.994,2.994,3.0156,3.0414,3.0513,3.0611,3.069,3.069,3.0009,2.918,2.9377,2.8821,2.8328,2.9843,3.1096,3.2385,3.3928,3.5615,3.6953,3.7281,3.7754,3.8184,3.8184,3.8398,3.8557,3.8557,3.7324,3.6055,3.5469,3.668,3.7441,3.6601,3.8164,3.9434,3.9453,3.9434,3.9434,3.9434,3.9043,3.8672,3.8379,3.7832,3.7586,3.7777,3.969,4.1035,4.1445,4.2593,4.2986,4.2434,4.0951,3.7859,3.3162,0.0,0.0,0.0,0.0,0.0,0.0,0.0,0.0,0.0,0.0,0.0,0.0,0.0,0.0,0.0,0.0,0.0,0.0,0.0,0.0,0.0,0.0,0.0,2.6162,2.6494,2.7108,2.7982,2.9038,2.9152,2.7811,2.8978,2.9546,2.8863,2.9605,2.9525,2.8218,2.8581,2.8249,2.6932,2.6933,2.6933,2.6933,2.6966,2.6966,2.6966,2.6966,2.7082,2.7361,2.7361,2.7507,2.7734,2.7734,2.7767,2.7866,2.8208,2.8321,2.8273,2.7311,2.6966,2.6966,2.6966,2.6966,2.6983,2.7262,2.7507,2.7767,2.7816,2.8094,2.8337,2.8354,2.8858,2.936,2.9446,3.1368,3.3446,3.3553,3.6023,3.8501,3.854,3.924,3.9902,3.9902,3.9902,3.9922,3.9922,3.8887,3.8262,3.9082,3.8887,3.8669,3.8669,3.9375,0.0,3.8806,3.9394,3.9902,3.9863,3.9434,3.916,3.9141,3.7708,3.7702,3.9811,4.0377,4.1585,4.3638,4.286,4.206,4.1428,3.9194,3.6961,3.4803,0.0,0.0,0.0,0.0,0.0,0.0,0.0,0.0,0.0,0.0,0.0,0.0,0.0,0.0,0.0,0.0,0.0,0.0,0.0,0.0,0.0,2.5415,2.6473,2.7346,2.7857,2.863,2.9897,2.9497,2.8628,2.7397,2.794,2.7891,2.6722,2.7129,2.7394,2.7277,2.7395,2.7275,2.69,2.7408,2.772,2.772,2.8195,2.8408,2.8408,2.8408,2.8457,2.8521,2.8521,2.857,2.8634,2.8634,2.8634,2.8583,2.7414,2.7046,2.7319,2.8112,2.8408,2.8408,2.8408,2.8408,2.8424,2.8522,2.8587,2.8683,2.8945,2.8227,2.7316,2.7747,2.7144,2.6651,2.8256,2.9266,3.0256,3.2172,3.4484,3.6497,3.703,3.8576,3.9902,3.9902,4.0137,4.0351,4.0351,4.0059,3.9785,3.9726,3.9863,3.998,3.998,4.0469,4.0781,4.0526,4.0391,3.998,3.908,3.8535,3.8144,3.7851,3.8641,3.9523,4.041,4.2994,4.4439,4.4381,4.525,4.5091,4.3711,4.0777,3.8542,0.0,0.0,0.0,0.0,0.0,0.0,0.0,0.0,0.0,0.0,0.0,0.0,0.0,0.0,0.0,0.0,0.0,0.0,0.0,0.0,0.0,0.0,2.603,2.6759,2.6871,2.7389,2.8205,2.9404,2.8286,2.7204,2.6678,2.6972,2.6893,2.6121,2.639,2.6452,2.6086,2.6178,2.5961,2.539,2.5937,2.6258,2.6258,2.6621,2.6818,2.6818,2.6954,2.7055,2.7155,2.7306,2.7442,2.7527,2.7527,2.7527,2.7455,2.6438,2.6117,2.6276,0.0,0.0,0.0,0.0,2.7246,2.7366,2.7366,2.7457,2.7572,2.7753,2.71,2.6336,2.6847,2.6343,2.5947,2.734,2.8424,2.976,3.2197,3.4529,3.6589,3.7925,3.9376,4.043,4.043,4.0625,4.0801,4.0801,4.0801,0.0,4.0469,4.0488,4.043,4.0293,4.0781,4.1093,4.0684,4.0723,4.0508,3.9784,3.9277,3.8869,3.8672,3.9722,0.0,0.0,0.0,4.5254,4.4622,4.5539,0.0,0.0,0.0,0.0,0.0,0.0,0.0,0.0,3.7652,3.7914,0.0,0.0,0.0,0.0,0.0,0.0,0.0,0.0,0.0,0.0,0.0,0.0,0.0,0.0,0.0,0.0,2.6296,2.681,2.5548,2.5833,2.654,2.7492,2.6313,2.5537,2.5743,2.6024,2.6128,2.5941,2.6263,2.5922,2.4779,2.4987,0.0,0.0,0.0,2.3857,2.3857,2.3884,2.3924,2.395,2.4182,2.4449,2.4706,2.501,2.5264,2.5518,2.5518,2.5518,2.5518,2.5518,2.5518,2.5411,2.4369,2.4275,2.4693,2.4693,2.4903,2.5168,2.5168,0.0,0.0,2.5598,2.5638,2.5718,2.6051,2.6319,2.6547,2.68,2.836,3.0475,3.2721,3.5116,3.7493,3.9701,4.0724,4.1211,4.1211,4.1211,4.1211,4.1211,4.1211,4.1211,4.1211,4.0859,4.0469,4.0098,4.0684,4.0937,4.0137,4.0703,4.1152,4.0996,0.0,0.0,4.0312,4.09,4.2306,4.4645,4.524,4.5464,4.5258,4.5192,4.4719,4.3768,4.3743,4.4217,4.5167,4.5167,4.5447,4.5883,4.2161,4.1756,0.0,0.0,0.0,0.0,0.0,0.0,0.0,0.0,0.0,0.0,0.0,0.0,0.0,0.0,0.0,2.4209,2.5097,2.5747,2.5863,2.4862,2.4709,2.6171,2.6255,2.5714,2.4499,2.4629,2.4351,2.3266,2.3473,2.3658,2.3611,2.3911,2.3974,2.3723,2.3968,2.4115,2.4115,2.4356,2.4583,2.486,2.4877,0.0,2.5344,2.5398,2.5464,2.5518,2.5518,2.5518,2.5518,2.5518,2.5518,2.5491,2.5264,2.5237,2.5344,2.5344,2.5384,2.5424,2.5424,2.5625,2.5944,2.6146,2.6373,2.6627,2.6961,2.7095,0.0,2.7202,2.7541,2.8437,3.0871,3.3138,3.5424,3.7834,3.9846,4.1211,4.1211,4.1211,4.1211,4.1211,4.1211,4.1211,4.1211,4.1094,4.1016,4.0976,4.1113,4.1152,4.0996,4.1113,4.08,3.9687,3.9512,3.9316,3.8984,4.1813,4.4177,4.5335,4.7892,4.9324,4.9282,4.8862,4.8535,4.8309,4.8309,4.841,4.8636,4.8636,4.8686,4.8768,4.6205,4.5752,0.0,0.0,0.0,0.0,0.0,0.0,0.0,0.0,0.0,0.0,0.0,2.1658,2.3474,0.0,2.3535,2.3524,2.4031,2.43,2.3878,2.3104,2.3184,2.4813,2.4405,2.373,2.3053,2.3252,2.3128,2.2439,2.2832,2.3166,2.3278,2.3741,2.3981,2.3981,2.4262,2.4489,2.4636,2.4783,2.501,2.5304,2.5489,2.5636,2.5732,2.5892,2.5945,2.5945,2.5945,2.5945,2.5945,2.5945,2.5945,2.5959,2.6106,2.5985,2.5772,2.6066,2.6172,2.6186,2.6333,2.6533,2.668,2.6827,2.6921,2.7094,2.7388,2.7482,2.755,2.771,2.851,2.991,3.2251,3.4427,3.6636,3.8984,4.0392,4.1211,4.1211,4.1211,4.1211,4.1211,4.1211,4.1211,4.1211,4.1211,4.1211,4.1211,4.1211,4.1211,4.1211,4.1211,4.0957,4.0254,4.0195,4.0098,3.992,4.344,4.657,4.8727,5.0339,5.1147,5.087,5.0594,5.0444,5.0444,5.0444,5.0444,5.0444,5.0444,5.0444,5.0419,4.959,4.9188,0.0,0.0,0.0,0.0,0.0,0.0,0.0,2.2371,2.1273,2.3672,2.2449,2.1559,2.3476,2.3634,2.3235,2.2654,2.2928,2.2826,2.1735,2.1636,2.2194,2.3542,2.254,2.1863,2.2158,2.2418,2.2585,2.2672,2.318,2.3465,2.3465,2.3995,2.4315,2.4369,2.4559,2.4863,2.5157,2.5157,2.5317,2.5598,2.5877,2.6024,2.6091,2.6279,2.6386,2.6386,2.6386,2.6386,2.6386,2.6453,2.6466,2.6507,2.68,2.6627,2.6305,2.6734,2.6907,2.6947,2.7229,2.7349,2.7389,2.7389,2.7429,2.7523,2.7709,2.7789,2.7829,2.8112,2.9732,3.1928,3.4124,3.6281,3.8469,4.0685,4.1211,4.1211,4.1211,4.1211,4.1211,4.1211,4.1211,4.1211,4.1211,4.1211,4.1211,4.1211,4.1211,4.1211,4.1211,4.1211,4.1211,4.1211,4.1211,4.1502,4.2273,4.5574,4.8918,5.2072,5.2277,5.2076,5.1624,5.1599,5.1599,5.1599,5.1599,5.1599,5.1599,5.1599,5.1599,5.1599,5.2151,5.1825,2.5023,2.3473,2.2657,2.415,2.2618,2.162,0.0,2.3259,2.146,2.3583,2.2489,2.1453,2.2361,2.1731,2.1132,2.1285,2.1597,2.1767,2.1614,2.181,2.2097,2.2518,2.2412,2.2445,2.2773,2.3046,2.334,2.3629,2.3915,2.4102,2.4102,2.4372,2.4703,2.497,2.501,2.517,2.5464,2.5464,2.5611,2.5944,2.5984,2.6131,2.6346,2.6373,2.6386,2.6386,2.6386,2.6386,2.6413,2.6667,2.6774,2.68,2.7094,2.7215,2.7162,2.7229,2.7255,2.7269,2.7296,2.7483,2.7655,2.7655,2.7871,2.8098,2.8125,2.8138,2.8138,2.8179,2.9732,3.1928,3.4124,3.6281,3.8469,4.0685,4.1211,4.1211,4.1211,4.1211,4.1211,4.1211,4.1211,4.1211,4.1211,4.1211,4.1211,4.1211,4.1211,4.1211,4.1211,4.1211,4.1211,4.1211,4.1211,4.2618,4.6056,4.8397,5.0563,5.2692,5.2795,5.277,5.2719,5.2719,5.2719,5.2719,5.2719,5.2719,5.2719,5.2719,5.2719,5.2719,5.3281,5.2955,2.7407,2.565,2.4278,2.5098,2.3672,2.2542,2.4251,2.28,2.1433,2.2719,2.189,2.1043,2.1536,2.1234,2.1029,2.1355,2.1502,2.1703,2.2004,2.2164,2.2352,2.2645,2.2832,2.2993,2.3113,2.3407,2.3634,2.379,2.4035,2.4275,2.4412,2.473,2.5024,2.5317,2.5331,2.5478,2.581,2.5772,2.5957,2.6252,2.6252,2.6266,2.6386,2.6386,2.648,2.664,2.664,2.6734,2.6948,2.7028,2.7081,2.7108,2.7402,2.7522,2.7522,2.7522,2.7522,2.7549,2.775,2.7898,2.8005,2.8005,2.8085,2.8179,2.8179,2.9076,3.0051,3.0051,3.253,3.5379,3.6322,3.8192,4.006,4.0977,4.1211,4.1211,4.1211,4.1211,4.1211,4.1211,4.1211,4.1211,4.1211,4.1211,4.1211,4.1211,4.1211,4.1211,4.1211,4.1211,4.1211,4.1211,4.1211,4.2311,4.5089,4.7102,4.9081,5.1068,5.1233,5.1233,5.1233,5.0091,4.9463,4.9463,4.9463,4.9604,4.9874,5.1104,5.1806,5.2063,5.353,5.3959,2.7838,2.6277,2.4884,2.5039,2.3964,2.2908,2.3083,2.203,2.1217,2.1765,2.1299,2.0855,2.1069,2.1109,2.1203,2.1542,2.1649,2.1877,2.2352,2.2485,2.2619,2.2867,2.314,2.3332,2.3447,2.3714,2.3928,2.4008,2.4275,2.4543,2.4743,2.5037,2.5331,2.5625,2.5638,2.5772,2.6118,2.6118,2.6225,2.6386,2.6386,2.6386,2.6386,2.6466,2.6667,2.6947,2.6947,2.7068,2.7309,2.7389,2.7429,2.7456,2.775,2.7816,2.7816,2.7816,2.7816,2.7856,2.8112,2.8179,2.8179,2.8179,2.8179,2.8305,2.8922,3.0176,3.1516,3.2134,3.5016,3.7896,3.7896,3.9531,4.1211,4.1211,4.1211,4.1211,4.1211,4.1211,4.1211,4.1211,4.1211,4.1211,4.1211,4.1211,4.1211,4.1211,4.1211,4.1211,4.1211,4.1211,4.1211,4.1211,4.1695,4.256,4.3983,4.5886,4.7681,4.9256,4.9387,4.9398,4.9538,4.8154,4.7358,4.7358,4.7358,4.7537,4.7858,4.9953,5.1114,5.147,5.3769,5.4823,2.4986,2.4036,2.3178,2.3265,2.2564,2.1859,2.1845,2.1258,2.0734,2.0748,2.0927,2.1096,2.1109,2.1109,2.1203,2.1542,2.1823,2.2071,2.2378,2.2672,2.288,2.2893,2.314,2.3447,2.3763,2.4022,2.4302,2.4559,2.489,2.5101,2.5064,2.5344,2.5638,2.5971,2.5984,2.6118,2.6373,2.6373,2.6386,2.6386,2.6386,2.6386,2.64,2.668,2.6974,2.7296,2.7296,2.7296,2.7322,2.7562,2.7682,2.7709,2.8058,2.8165,2.8165,2.8165,2.8165,2.8179,2.8179,2.8179,2.8179,2.8179,2.8179,2.86,3.0661,3.1351,3.1846,3.4002,3.6201,3.7896,3.7896,3.9531,4.1211,4.1211,4.1211,4.1211,4.1211,4.1211,4.1211,4.1211,4.1211,4.1211,4.1211,4.1211,4.1211,4.1211,4.1211,4.1211,4.1211,4.1211,4.1211,4.1211,4.2884,4.4058,4.4096,4.5886,4.7216,4.7723,4.7768,4.7932,4.8327,4.8312,4.8274,4.8274,4.8274,4.8274,4.8296,5.0355,5.1373,5.1434,5.4139,5.5365,2.3719,2.2766,2.1967,2.2461,2.1818,2.1102,2.131,2.1158,2.0962,2.0962,2.1042,2.1109,2.1109,2.1109,2.1269,2.1796,2.1957,2.2151,2.2645,2.284,2.2893,2.2893,2.314,2.3447,2.3777,2.4035,2.4329,2.4572,2.4917,2.5157,2.5358,2.5651,2.5984,2.6279,2.6279,2.6293,2.6386,2.6386,2.6386,2.6386,2.6587,2.6787,2.7015,2.7068,2.7281,2.7549,2.7549,2.771,2.7898,2.7991,2.8031,2.8045,2.8138,2.8179,2.8179,2.8179,2.8179,2.8179,2.8179,2.8179,2.8179,2.8179,2.8179,2.8586,3.0744,3.2422,3.4042,3.6201,3.839,4.0099,4.0099,4.0646,4.1211,4.1211,4.1211,4.1211,4.1211,4.1211,4.1211,4.1211,4.1211,4.1211,4.1211,4.1211,4.1211,4.1211,4.1211,4.1211,4.1211,4.1211,4.1211,4.1211,4.2011,4.2578,4.2578,4.4621,4.6005,4.6155,4.6176,4.6241,4.6352,4.5091,4.4406,4.4406,4.4406,4.5237,4.6918,4.8978,5.0888,5.2577,5.5251,5.6433,2.2334,2.1594,2.0871,2.1556,2.1265,2.0882,2.1069,2.1109,2.1109,2.1109,2.1029,2.0989,2.1096,2.1109,2.1336,2.2031,2.2231,2.2505,2.2966,2.3033,2.3033,2.3033,2.3207,2.3487,2.3888,2.4102,2.4329,2.4572,2.501,2.5317,2.5504,2.5892,2.6238,2.6386,2.6386,2.6386,2.6386,2.6386,2.644,2.6547,2.6841,2.7134,2.7415,2.7415,2.7575,2.7898,2.7898,2.8005,2.8179,2.8179,2.8179,2.8179,2.8179,2.8179,2.8179,2.8179,2.8179,2.8179,2.8179,2.8179,2.8179,2.8179,2.8179,2.8586,3.0744,3.2381,3.3961,3.6161,3.835,4.0021,4.0021,4.0607,4.1211,4.1211,4.1211,4.1211,4.1211,4.1211,4.1211,4.1211,4.1211,4.1269,4.1367,4.1523,4.1562,4.1465,4.1523,4.1562,4.1426,4.1523,4.1621,4.1621,4.1855,4.2031,4.2031,4.3417,4.4391,4.4594,4.4594,4.4636,4.4779,4.3538,4.285,4.285,4.285,4.406,4.6445,4.8547,5.0842,5.3423,5.5893,5.7111,2.0809,2.0522,2.0,2.0592,2.0909,2.1109,2.1109,2.1109,2.1096,2.1069,2.0842,2.0735,2.0975,2.1056,2.1363,2.2218,2.2632,2.2953,2.3252,2.3292,2.3305,2.3319,2.3319,2.3581,2.4142,2.4222,2.4342,2.4599,2.5184,2.5518,2.5518,2.6066,2.6386,2.6386,2.6386,2.6386,2.6386,2.64,2.656,2.6867,2.7148,2.7483,2.7722,2.7722,2.7924,2.8179,2.8179,2.8179,2.8179,2.8179,2.8179,2.8179,2.8179,2.8179,2.8179,2.8179,2.8179,2.8179,2.8179,2.8179,2.8179,2.8179,2.8179,2.8586,3.0744,3.1392,3.1846,3.4083,3.6161,3.7737,3.7737,3.9374,4.1055,4.1055,4.1133,4.1211,4.1211,4.1211,4.1211,4.125,4.1269,4.1387,4.1738,4.2148,4.2245,4.1894,4.2187,4.2305,4.1894,4.2148,4.2382,4.2382,4.2401,4.2421,4.2421,4.244,4.2676,4.3086,4.3105,4.3281,4.3691,4.3711,4.3711,4.3711,4.3711,4.4822,4.709,4.9052,5.1468,5.4162,5.6152,5.7387,2.0029,2.0456,2.0815,2.0962,2.1056,2.1109,2.1109,2.1109,2.0989,2.0517,2.037,2.0241,1.988,2.0378,2.0935,2.1376,2.2058,2.2712,2.3212,2.3292,2.3372,2.3634,2.3661,2.3808,2.4168,2.4396,2.4613,2.4943,2.5304,2.5518,2.5518,2.6066,2.6386,2.6386,2.6386,2.6386,2.6386,2.66,2.6974,2.7482,2.7549,2.7749,2.8072,2.8072,2.8112,2.8179,2.8179,2.8179,2.8179,2.8179,2.8179,2.8179,2.8179,2.8179,2.8179,2.8179,2.8179,2.8179,2.8179,2.8179,2.8179,2.8179,2.8179,2.8586,3.0744,3.1392,3.1846,3.4083,3.5097,3.55,3.55,3.7122,3.8764,3.8764,3.9982,4.1211,4.1211,4.1211,4.1308,4.1582,4.1894,4.2031,4.1836,4.2148,4.2362,4.2245,4.2637,4.2754,4.2324,4.2363,4.2382,4.2382,4.2715,4.291,4.291,4.3203,4.3418,4.3535,4.3555,4.3594,4.3691,4.3711,4.3711,4.3711,4.3711,4.5719,4.9796,5.0349,5.2775,5.6897,5.7812,5.834,2.0227,2.0735,2.1109,2.1109,2.1109,2.1042,2.0788,2.1173,2.126,1.9918,2.011,2.0233,1.934,2.003,2.0846,2.1229,2.2151,2.2945,2.3447,2.3527,2.3634,2.3928,2.3968,2.4128,2.4543,2.473,2.4957,2.5251,2.5545,2.5705,2.5705,2.6146,2.6386,2.6386,2.6386,2.6453,2.6573,2.6867,2.7241,2.7696,2.7829,2.8018,2.8179,2.8179,2.8179,2.8179,2.8179,2.8179,2.8179,2.8179,2.8179,2.8179,2.8179,2.8179,2.8179,2.8179,2.8179,2.8179,2.8179,2.8179,2.8179,2.8179,2.8179,2.8431,2.9607,3.0024,3.026,3.149,3.2546,3.3227,3.3227,3.554,3.7896,3.7896,3.957,4.1269,4.1445,4.1445,4.1562,4.1992,4.2422,4.2578,4.2148,4.2578,4.293,4.2734,4.3086,4.3262,4.3027,4.2988,4.2988,4.2988,4.3203,4.3359,4.3359,4.3574,4.3711,4.3711,4.3711,4.3711,4.3711,4.3711,4.3808,4.4004,4.4004,4.6332,5.1039,5.1039,5.3545,5.8278,5.8579,5.8855,2.0882,2.1109,2.1109,2.1109,2.1082,2.094,2.0561,2.1336,2.1613,1.9709,2.0044,2.0319,1.9125,1.9797,2.0726,2.1315,2.2405,2.334,2.375,2.3803,2.3888,2.4222,2.4289,2.4516,2.5061,2.5181,2.5304,2.5558,2.5877,2.6038,2.5998,2.6265,2.6386,2.6386,2.6426,2.6587,2.6881,2.7175,2.751,2.7762,2.8058,2.8179,2.8179,2.8179,2.8179,2.8179,2.8179,2.8179,2.8179,2.8179,2.8179,2.8179,2.8179,2.8179,2.8179,2.8179,2.8179,2.8179,2.8179,2.8179,2.8179,2.8179,2.8179,2.8179,2.8179,2.8179,2.8179,2.8179,2.9523,3.0993,3.0993,3.4002,3.7122,3.7419,3.9214,4.1015,4.1679,4.1894,4.2051,4.2323,4.2812,4.3027,4.2578,4.3183,4.3574,4.3223,4.3476,4.3711,4.3711,4.3711,4.3711,4.3711,4.3711,4.3711,4.3711,4.3711,4.3711,4.3711,4.3711,4.373,4.3789,4.3789,4.4004,4.4473,4.4492,4.6803,5.1514,5.1514,5.402,5.883,5.883,5.9056,2.0935,2.1109,2.1109,2.1109,2.0922,2.0964,2.1748,2.1657,2.1396,2.1382,2.0472,1.952,1.9062,1.9334,1.9816,2.033,2.1611,2.2859,2.3696,2.3803,2.3968,2.4466,2.4783,2.5007,2.5101,2.5556,2.5864,2.5917,2.6185,2.6252,2.6011,2.6265,2.6386,2.6386,2.6627,2.6894,2.7229,2.7482,2.7776,2.8112,2.8165,2.8179,2.8179,2.8179,2.8179,2.8179,2.8179,2.8179,2.8179,2.8179,2.8179,2.8179,2.8179,2.8179,2.8179,2.8179,2.8179,2.8179,2.8179,2.8179,2.8179,2.8179,2.8179,2.8179,2.8179,2.8179,2.8179,2.8179,2.8473,2.8754,2.8754,3.0619,3.2981,3.4813,3.7168,3.948,4.1402,4.2363,4.2773,4.244,4.3066,4.3457,4.3047,4.3379,4.3691,4.3613,4.3652,4.3711,4.3711,4.3711,4.3711,4.3711,4.3711,4.3711,4.3711,4.3711,4.3711,4.3711,4.3711,4.3867,4.4258,4.4277,4.4473,4.4902,4.4922,4.7275,5.2151,5.2151,5.4637,5.9357,5.9357,5.9408,2.0722,2.0882,2.0882,2.0882,2.1383,2.174,2.1364,2.2153,2.258,2.1153,2.0909,2.0505,1.9009,1.9479,2.0056,1.9996,2.1243,2.2512,2.342,2.3674,2.3981,2.4532,2.4903,2.5144,2.5291,2.5743,2.6051,2.6212,2.6306,2.6333,2.6225,2.6319,2.6453,2.6613,2.6747,2.7041,2.7482,2.7629,2.7884,2.8179,2.8179,2.8179,2.8179,2.8179,2.8179,2.8179,2.8179,2.8179,2.8179,2.8179,2.8179,2.8179,2.8179,2.8179,2.8179,2.8179,2.8179,2.8179,2.8179,2.8179,2.8179,2.8179,2.8179,2.8179,2.8179,2.8179,2.8179,2.8179,2.8179,2.8179,2.8179,3.0634,3.339,3.4449,3.7702,4.0889,4.2202,4.2949,4.334,4.3125,4.3418,4.3633,4.3437,4.3574,4.3711,4.3711,4.3711,4.3711,4.3711,4.3711,4.3711,4.3711,4.3711,4.3711,4.3711,4.3711,4.3808,4.4043,4.4062,4.4258,4.4707,4.4726,4.4922,4.5351,4.5371,4.7216,5.0893,5.2051,5.4407,5.7785,5.8954,5.9483,2.0441,2.0575,2.0575,2.0575,2.1671,2.2349,2.1041,2.2617,2.3667,2.1225,2.1497,2.1496,1.9319,1.9743,2.0298,1.9872,2.0869,2.2084,2.3145,2.3527,2.3941,2.4649,2.4997,2.5291,2.5585,2.5917,2.6185,2.6373,2.6386,2.6386,2.6386,2.6386,2.652,2.6774,2.6881,2.7175,2.7696,2.7762,2.7951,2.8179,2.8179,2.8179,2.8179,2.8179,2.8179,2.8179,2.8179,2.8179,2.8179,2.8179,2.8179,2.8179,2.8179,2.8179,2.8179,2.8179,2.8179,2.8179,2.8179,2.8179,2.8179,2.8179,2.8179,2.8179,2.8179,2.8179,2.8179,2.8179,2.8179,2.8179,2.8179,3.1176,3.4392,3.5537,3.9248,4.2676,4.3125,4.3476,4.3711,4.3711,4.3711,4.3711,4.3711,4.3711,4.3711,4.3711,4.3711,4.3711,4.3711,4.3711,4.3711,4.3711,4.3711,4.375,4.3848,4.3848,4.4043,4.4512,4.4531,4.4726,4.5156,4.5176,4.5371,4.5801,4.582,4.7084,4.9616,5.1803,5.4028,5.6271,5.8461,5.9483,2.0157,2.0237,2.0237,2.0237,2.1163,2.2086,2.2121,2.2885,2.3571,2.345,2.2363,2.1172,2.0382,1.9835,1.9589,1.9764,2.0361,2.139,2.3052,2.3319,2.3781,2.4903,2.5291,2.5585,2.5931,2.6225,2.636,2.6386,2.6386,2.6386,2.6386,2.6386,2.652,2.6774,2.7081,2.7416,2.7696,2.8005,2.8165,2.8179,2.8179,2.8179,2.8179,2.8179,2.8179,2.8179,2.8179,2.8179,2.8179,2.8179,2.8179,2.8179,2.8179,2.8179,2.8179,2.8179,2.8179,2.8179,2.8179,2.8179,2.8179,2.8179,2.8179,2.8179,2.8179,2.8179,2.8179,2.8179,2.8179,2.8179,2.8179,3.0224,3.3427,3.8187,4.1241,4.3125,4.3555,4.3672,4.3711,4.3711,4.3711,4.3711,4.3711,4.3711,4.3711,4.3711,4.3711,4.3711,4.3711,4.3711,4.3711,4.3711,4.3711,4.3867,4.4297,4.4336,4.4512,4.4941,4.4918,4.5156,4.5605,4.5668,4.582,4.623,4.625,4.7341,4.9616,5.1803,5.4028,5.6255,5.8461,5.9483,1.981,1.9973,2.0169,2.1064,2.2135,2.2967,2.3012,2.3786,2.426,2.3518,2.2846,2.1909,2.0376,2.0062,1.984,1.9338,1.9773,2.0708,2.2298,2.2819,2.342,2.4436,2.497,2.5438,2.5944,2.6265,2.6386,2.6386,2.6386,2.6386,2.6386,2.656,2.6787,2.7081,2.7375,2.771,2.8005,2.8125,2.8179,2.8179,2.8179,2.8179,2.8179,2.8179,2.8179,2.8179,2.8179,2.8179,2.8179,2.8179,2.8179,2.8179,2.8179,2.8179,2.8179,2.8179,2.8179,2.8179,2.8179,2.8179,2.8179,2.8179,2.8179,2.8179,2.8179,2.8179,2.8179,2.8179,2.8179,2.8232,2.8419,3.1328,3.5166,3.8796,4.1455,4.3183,4.3613,4.3711,4.3711,4.3711,4.3711,4.3711,4.3711,4.3711,4.3711,4.3711,4.3711,4.3711,4.3711,4.3711,4.3711,4.3711,4.3711,4.3887,4.4355,4.4394,4.4687,4.5371,4.541,4.5605,4.6035,4.6055,4.6133,4.6289,4.6308,4.6726,4.7641,4.9828,5.1365,5.2301,5.5855,5.7534,1.9519,1.9679,1.9992,2.1321,2.2486,2.3297,2.3294,2.4034,2.4418,2.3315,2.3003,2.2296,2.0268,2.0155,2.0053,1.8974,1.9183,2.008,2.1676,2.1805,2.2271,2.375,2.3441,2.3793,2.5548,2.6158,2.6386,2.6386,2.6386,2.6426,2.6507,2.68,2.7054,2.7296,2.7549,2.7843,2.8179,2.8179,2.8179,2.8179,2.8179,2.8179,2.8179,2.8179,2.8179,2.8179,2.8179,2.8179,2.8179,2.8179,2.8179,2.8179,2.8179,2.8179,2.8179,2.8179,2.8179,2.8179,2.8179,2.8179,2.8179,2.8179,2.8179,2.8179,2.8179,2.8179,2.8179,2.8179,2.8259,2.8576,2.9597,3.2874,3.656,3.9176,4.1583,4.334,4.3633,4.3711,4.3711,4.3711,4.3711,4.3711,4.3711,4.3711,4.3711,4.3711,4.3711,4.3711,4.3711,4.3711,4.375,4.3887,4.3906,4.4082,4.4551,4.4707,4.5098,4.582,4.5859,4.5996,4.6289,4.6308,4.6308,4.6308,4.6308,4.6308,4.6308,4.8505,4.9616,4.9701,5.4133,5.6558,1.9241,1.9401,1.9667,2.0666,2.1729,2.2547,2.2744,2.3332,2.3672,2.3198,2.2791,2.1957,2.0218,2.0155,1.9975,1.8701,1.8744,1.9546,2.1341,2.0131,2.0099,2.2985,2.0387,2.0131,2.4659,2.5879,2.6386,2.6386,2.6386,2.652,2.676,2.7094,2.7309,2.7309,2.7549,2.7843,2.8179,2.8179,2.8179,2.8179,2.8179,2.8179,2.8179,2.8179,2.8179,2.8179,2.8179,2.8179,2.8179,2.8179,2.8179,2.8179,2.8179,2.8179,2.8179,2.8179,2.8179,2.8179,2.8179,2.8179,2.8179,2.8179,2.8179,2.8179,2.8179,2.8179,2.8179,2.8179,2.8406,2.924,3.2118,3.4622,3.7064,3.9687,4.2015,4.3691,4.3711,4.3711,4.3711,4.3711,4.3711,4.3711,4.3711,4.3711,4.3711,4.3711,4.3711,4.3711,4.3711,4.3711,4.3887,4.4336,4.4394,4.457,4.4938,4.541,4.584,4.6269,4.6289,4.6289,4.6308,4.6308,4.6308,4.6308,4.6308,4.6308,4.6308,4.8505,4.9616,4.9701,5.4133,5.7376,2.0348,2.0231,2.0227,2.2192,2.2698,2.2846,2.3355,2.3393,2.3123,2.2422,2.2402,2.2086,2.07,2.0081,1.9774,1.9754,1.9099,1.9239,2.1002,2.0121,2.0299,2.2976,2.3444,2.4189,2.5841,2.6226,2.6386,2.6386,2.6386,2.652,2.6814,2.7108,2.7403,2.7549,2.7884,2.8085,2.8179,2.8179,2.8179,2.8179,2.8179,2.8179,2.8179,2.8179,2.8179,2.8179,2.8179,2.8179,2.8179,2.8179,2.8179,2.8179,2.8179,2.8179,2.8179,2.8179,2.8179,2.8179,2.8179,2.8179,2.8179,2.8179,2.8179,2.8179,2.8179,2.8179,2.8232,2.8404,2.8818,2.9421,3.0329,3.247,3.4554,3.5387,3.8545,4.137,4.137,4.2576,4.3711,4.3711,4.3711,4.3711,4.3711,4.3711,4.3711,4.3711,4.3711,4.3711,4.3711,4.3984,4.4238,4.4375,4.4922,4.5332,4.5449,4.5605,4.5859,4.6269,4.6308,4.6308,4.6308,4.6308,4.6308,4.6308,4.6308,4.6308,4.6308,4.701,4.8913,5.1886,5.3292,5.5935,2.061,2.0755,2.0892,2.2763,2.2892,2.2744,2.3416,2.3086,2.2519,2.1992,2.209,2.1945,2.0883,2.0131,1.9677,1.9796,1.897,1.8876,2.0517,1.9131,1.8495,2.0084,2.3364,2.5343,2.5049,2.5846,2.6386,2.6386,2.6386,2.656,2.6961,2.7202,2.7496,2.7898,2.8085,2.8179,2.8179,2.8179,2.8179,2.8179,2.8179,2.8179,2.8179,2.8179,2.8179,2.8179,2.8179,2.8179,0.0,2.8179,2.8179,2.8179,2.8179,2.8179,2.8179,2.8179,2.8179,2.8179,2.8179,2.8179,2.8179,2.8179,2.8259,2.8366,2.8366,2.8366,2.8446,2.8818,2.9205,2.9513,2.9619,3.1515,3.3395,3.3395,3.6269,3.9225,4.0114,4.1412,4.2659,4.3526,4.3711,4.3711,4.3711,4.3711,4.3711,4.3711,4.3711,4.3711,4.3711,4.3965,4.4258,4.459,4.498,4.5391,4.5879,4.5918,4.6016,4.6289,4.6308,4.6308,4.6308,4.6308,4.6308,4.6308,4.6308,4.6308,4.6308,4.6308,4.8591,5.288,5.288,5.5268,0.0,2.09,2.1445,2.2479,2.2476,2.2335,2.2918,2.2443,0.0,2.1817,2.1857,2.1699,2.0991,2.0303,1.9733,1.9336,1.8561,1.8556,2.0024,1.7823,1.5981,1.5839,2.1059,2.423,2.306,2.5061,2.6386,2.6386,2.6386,2.664,2.7242,2.7296,2.7563,2.8138,2.8179,2.8179,2.8179,2.8179,2.8179,2.8179,2.8179,2.8179,2.8179,2.8179,2.8179,2.8179,2.8179,2.8179,2.8179,2.8179,2.8179,2.8179,2.8179,2.8179,2.8179,2.8179,2.8179,2.8179,2.8179,2.8179,2.8179,2.8179,2.8393,2.8604,2.8631,2.8657,2.8778,2.9325,2.9499,2.9579,2.9847,3.1523,3.3175,3.3175,3.4897,3.7218,3.9564,4.0174,4.0974,4.3278,4.3711,4.3711,4.3711,4.3711,4.3711,4.3711,4.3711,4.3711,4.3711,4.3769,4.4121,4.4899,4.4726,4.5019,4.6211,4.6269,4.6269,4.6308,4.6308,4.6308,4.6308,4.6308,4.6308,4.6308,4.6308,4.6308,4.6308,4.6308,4.8591,5.288,5.288,5.5268,2.0703,0.0,2.0461,2.1779,2.2048,2.1922,0.0,2.1523,2.1289,2.0977,2.1446,2.2026,2.2464,2.0917,2.0057,2.145,1.9827,1.8891,2.0361,2.1089,2.1288,2.0852,2.3466,2.534,2.5518,2.6056,2.6386,2.6386,2.6386,2.6547,2.6907,2.7148,2.7469,2.7789,2.8072,2.8179,2.8179,2.8179,2.8179,2.8179,2.8179,2.8179,2.8179,2.8179,2.8179,2.8179,2.8179,2.8179,2.8179,2.8179,2.8179,2.8179,2.8179,2.8179,2.8179,2.8179,2.8179,2.8179,2.8179,2.8179,2.8179,2.8179,2.8393,2.8644,2.8828,2.9098,2.9299,2.9446,2.9646,2.9833,2.99,3.0303,3.0736,3.0736,3.2514,3.4809,3.7132,3.9013,4.0974,4.3278,4.3711,4.3711,4.3711,4.3711,4.3711,4.3711,4.3711,4.3711,4.3711,4.4297,4.4743,4.4957,4.5527,4.5976,4.6269,4.6016,4.5957,4.6289,4.6308,4.6308,4.6308,4.6308,4.6308,4.6308,4.6308,4.6308,4.6308,4.6308,4.8591,5.288,5.288,5.5268,2.0087,2.0886,2.1778,2.294,2.343,2.3471,2.3032,2.2407,2.1767,2.1342,2.113,2.1158,2.1591,2.0366,1.9664,2.0872,1.997,1.9059,1.8936,2.0086,2.0959,2.1068,2.2949,2.4777,2.6267,2.6386,2.6386,2.6386,2.6386,2.6573,2.7001,2.7215,2.7496,2.7924,2.8098,2.8179,2.8179,2.8179,2.8179,2.8179,2.8179,2.8179,2.8179,2.8179,2.8179,2.8179,2.8179,2.8179,2.8179,2.8179,2.8179,2.8179,2.8179,2.8179,2.8179,2.8179,2.8179,2.8179,2.8179,2.8179,2.8179,2.8179,2.8393,2.8631,2.8748,2.9138,2.9513,2.9646,2.9793,2.9913,2.9913,2.9913,2.9913,2.9913,3.087,3.244,3.4722,3.7046,3.9395,4.1681,4.2969,4.3711,4.3711,4.3711,4.3711,4.3711,4.3711,4.3711,4.3711,4.4316,4.4746,4.4746,4.5332,4.5801,4.5996,4.5801,4.5859,4.6269,4.6308,4.6308,4.6308,4.6308,4.6308,4.6308,4.6308,4.6308,4.6308,4.6308,4.8591,5.288,5.288,5.5268,1.9479,2.1543,2.3607,2.4127,2.4763,2.5136,2.4554,2.346,2.2418,2.1812,2.0844,2.0121,2.0209,1.9557,1.9165,1.9702,1.9691,1.918,1.7965,1.8244,1.9007,2.0199,2.2006,2.3977,2.6188,2.6386,2.6386,2.6386,2.6386,2.6613,2.7148,2.7255,2.7536,2.8031,2.8138,2.8179,2.8179,2.8179,2.8179,2.8179,2.8179,2.8179,2.8179,2.8179,2.8179,2.8179,2.8179,2.8179,2.8179,2.8179,2.8179,2.8179,2.8179,2.8179,2.8179,2.8179,2.8179,2.8179,2.8179,2.8179,2.8179,2.8179,2.8393,2.8604,2.8604,2.9018,2.9539,2.978,2.9887,2.9913,2.9913,2.9913,2.9913,2.9913,2.9913,3.0526,3.2911,3.5201,3.7475,3.9818,4.2141,4.3711,4.3711,4.3711,4.3711,4.3711,4.3711,4.3711,4.3711,4.4101,4.4394,4.4394,4.4766,4.5195,4.5644,4.5727,4.5859,4.6269,4.6308,4.6308,4.6308,4.6308,4.6308,4.6308,4.6308,4.6308,4.6308,4.6308,4.8591,5.288,5.288,5.5268,2.0879,2.2296,2.3082,2.2025,2.2817,2.3462,2.209,2.1908,2.1697,2.0553,2.0462,2.0722,2.1183,2.0028,1.9572,2.1337,1.9972,1.9525,2.1972,2.1378,2.1693,2.4265,2.4841,2.5437,2.6293,2.6386,2.6386,2.6386,2.6386,2.6426,2.652,2.7041,2.7349,2.7443,2.7924,2.8179,2.8179,2.8179,2.8179,2.8179,2.8179,2.8179,2.8179,2.8179,2.8179,2.8179,2.8179,2.8179,2.8179,2.8179,2.8179,2.8179,2.8179,2.8179,2.8179,2.8179,2.8179,2.8179,2.8179,2.8179,2.8179,2.8179,2.8393,2.8604,2.8604,2.9018,2.9499,2.9539,2.9726,2.9913,2.9913,2.9913,2.9913,2.9913,2.9913,3.0526,3.2911,3.5201,3.7475,3.9818,4.2141,4.3711,4.3711,4.3711,4.3711,4.3711,4.3711,4.3711,4.3711,4.4101,4.4394,4.4394,4.4766,4.5195,4.5644,4.5727,4.5859,4.6269,4.6308,4.6308,4.6308,4.6308,4.6308,4.6308,4.6308,4.6308,4.6308,4.6308,4.8591,5.288,5.288,5.5268,1.9985,2.084,2.1286,2.0834,2.2615,2.4277,2.3582,2.249,2.1417,2.0696,2.0062,1.979,2.0188,1.9813,2.0102,2.2149,1.9856,1.8831,2.1759,2.0812,2.0823,2.3538,2.3954,2.4607,2.6228,2.6386,2.6386,2.6386,2.6386,2.6533,2.6881,2.6974,2.7241,2.7764,2.7884,2.8018,2.8179,2.8179,2.8179,2.8179,2.8179,2.8179,2.8179,2.8179,2.8179,2.8179,2.8179,2.8179,2.8179,2.8179,2.8179,2.8179,2.8179,2.8179,2.8179,2.8179,2.8179,2.8179,2.8179,2.8179,2.8179,2.8179,2.8286,2.8393,2.8393,2.8778,2.9245,2.9245,2.9566,2.9913,2.9913,2.9913,2.9913,2.9913,2.9913,3.0213,3.1257,3.4286,3.7132,3.8203,4.1244,4.3711,4.3711,4.3711,4.3711,4.3711,4.3711,4.3711,4.3711,4.4101,4.4297,4.4043,4.4629,4.5117,4.5312,4.5547,4.5859,4.6269,4.6308,4.6308,4.6308,4.6308,4.6308,4.6308,4.6308,4.6308,4.6308,4.7511,4.9744,5.2921,5.4133,5.6415,1.9433,1.961,1.9735,2.0118,2.2287,2.4304,2.4306,2.2735,2.1179,2.0882,1.9941,1.9176,1.9311,1.9883,2.0717,2.1966,1.9831,1.8924,2.1533,2.0467,2.032,2.2896,2.3354,2.4224,2.6201,2.6386,2.6386,2.6386,2.6386,2.6587,2.7081,2.6907,2.7161,2.7951,2.7776,2.7843,2.8179,2.8179,2.8179,2.8179,2.8179,2.8179,2.8179,2.8179,2.8179,2.8179,2.8179,2.8179,2.8179,2.8179,2.8179,2.8179,2.8179,2.8179,2.8179,2.8179,2.8179,2.8179,2.8179,2.8179,2.8179,2.8179,2.8179,2.8205,2.8272,2.8617,2.9015,2.9081,2.9513,2.9913,2.9913,2.9913,2.9913,2.9913,2.9913,2.9913,2.9913,3.3556,3.6787,3.6787,4.0511,4.3711,4.3711,4.3711,4.3711,4.3711,4.3711,4.3711,4.3711,4.4023,4.4101,4.375,4.4316,4.4805,4.4957,4.5508,4.5957,4.6289,4.6308,4.6308,4.6308,4.6308,4.6308,4.6308,4.6308,4.6308,4.6308,4.8009,5.023,5.2921,5.4662,5.6876,2.0818,2.0129,1.9347,1.9821,2.0664,2.1382,2.1313,2.1072,2.0744,2.0427,2.0264,2.0094,1.9829,2.0904,2.1457,2.0204,2.0262,2.1282,2.3635,2.2707,2.2631,2.5006,2.5579,2.5948,2.636,2.6386,2.6386,2.6386,2.6386,2.6413,2.6453,2.6694,2.6974,2.7362,2.7562,2.7843,2.8179,2.8179,2.8179,2.8179,2.8179,2.8179,2.8179,2.8179,2.8179,2.8179,2.8179,2.8179,2.8179,2.8179,2.8179,2.8179,2.8179,2.8179,2.8179,2.8179,2.8179,2.8179,2.8179,2.8179,2.8179,2.8179,2.8179,2.8232,2.8484,2.8791,2.9055,2.9379,2.9673,2.9913,2.9913,2.9913,2.9913,2.9913,2.9913,2.9913,2.9913,3.3556,3.6787,3.6787,4.0511,4.3711,4.3711,4.3711,4.3711,4.3711,4.3711,4.3711,4.3711,4.373,4.373,4.3711,4.3769,4.4121,4.4918,4.5781,4.6269,4.6308,4.6308,4.6308,4.6308,4.6308,4.6308,4.6308,4.6308,4.6308,4.6308,4.6464,4.8719,5.288,5.3045,5.543,1.9883,1.8748,1.7583,1.7897,1.8444,1.9235,2.0422,1.9448,1.8625,1.976,1.9253,1.9022,2.0358,2.0874,2.1261,2.187,2.1494,2.1995,2.4417,2.4281,2.4391,2.5654,2.5931,2.6118,2.636,2.6386,2.6386,2.6386,2.6386,2.6466,2.6653,2.6587,2.6854,2.7509,2.751,2.7697,2.8179,2.8179,2.8179,2.8179,2.8179,2.8179,2.8179,2.8179,2.8179,2.8179,2.8179,2.8179,2.8179,2.8179,2.8179,2.8179,2.8179,2.8179,2.8179,2.8179,2.8179,2.8179,2.8179,2.8179,2.8179,2.8179,2.8312,2.8457,2.8577,2.8938,2.9339,2.9446,2.9686,2.9913,2.9913,2.9913,2.9913,2.9913,2.9913,2.9913,2.9913,3.3556,3.6787,3.6787,4.0511,4.3711,4.3711,4.3711,4.3711,4.3711,4.3711,4.3711,4.3711,4.3711,4.3711,4.3711,4.3965,4.4277,4.4609,4.543,4.5918,4.5918,4.6152,4.6308,4.6308,4.6308,4.6308,4.6308,4.6308,4.6308,4.6308,4.7664,4.9913,5.2921,5.4337,5.6598,1.9087,1.792,1.6974,1.682,1.6773,1.7248,1.9042,1.809,1.7452,1.9749,1.8957,1.8297,1.9581,1.9629,2.0157,2.2281,2.1993,2.2312,2.4772,2.5157,2.5436,2.5931,2.6078,2.6212,2.6373,2.6386,2.6386,2.6386,2.6386,2.648,2.668,2.6493,2.6747,2.7535,2.7416,2.759,2.8179,2.8179,2.8179,2.8179,2.8179,2.8179,2.8179,2.8179,2.8179,2.8179,2.8179,2.8179,2.8179,2.8179,2.8179,2.8179,2.8179,2.8179,2.8179,2.8179,2.8179,2.8179,2.8179,2.8179,2.8179,2.8179,2.8326,2.8497,2.8684,2.9018,2.9379,2.9566,2.9766,2.9913,2.9913,2.9913,2.9913,2.9913,2.9913,2.9913,2.9913,3.3556,3.6787,3.6787,4.0511,4.3711,4.3711,4.3711,4.3711,4.3711,4.3711,4.3711,4.3711,4.3711,4.3711,4.3711,4.4121,4.4394,4.4394,4.5176,4.5727,4.5727,4.6074,4.6308,4.6308,4.6308,4.6308,4.6308,4.6308,4.6308,4.6308,4.8505,5.0736,5.2962,5.5147,5.7376,1.875,1.8046,1.7954,1.6932,1.5838,1.5393,1.6861,1.6953,1.7589,2.043,1.9654,1.8162,1.7169,1.7106,1.8082,2.0756,2.142,2.2407,2.4737,2.5331,2.5625,2.5957,2.6252,2.6386,2.6386,2.6386,2.6386,2.6386,2.6386,2.6386,2.6386,2.6386,2.6693,2.7282,2.7309,2.759,2.8179,2.8179,2.8179,2.8179,2.8179,2.8179,2.8179,2.8179,2.8179,2.8179,2.8179,2.8179,2.8179,2.8179,2.8179,2.8179,2.8179,2.8179,2.8179,2.8179,2.8179,2.8179,2.8179,2.8179,2.8179,2.8179,2.8192,2.8299,2.8858,2.9001,2.9121,2.9753,2.9913,2.9913,2.9913,2.9913,2.9913,2.9913,2.9913,2.9913,2.9913,3.3556,3.6787,3.6787,4.0511,4.3711,4.3711,4.3711,4.3711,4.3711,4.3711,4.3711,4.3711,4.3711,4.3711,4.3711,4.4121,4.4394,4.4394,4.5176,4.5664,4.5664,4.6074,4.6308,4.6308,4.6308,4.6308,4.6308,4.6308,4.6308,4.6308,4.8505,5.0736,5.2962,5.5147,5.7376,1.7879,1.7376,1.6965,1.5059,1.5728,1.6615,1.582,1.476,1.4297,1.5665,1.6668,1.718,1.6805,1.7243,1.7934,1.8622,2.0365,2.198,2.3132,2.4559,2.5705,2.6199,2.6333,2.6386,2.6386,2.6386,2.6386,2.6386,2.6386,2.6386,2.6386,2.6386,2.6693,2.7282,2.7309,2.759,2.8179,2.8179,2.8179,2.8179,2.8179,2.8179,2.8179,2.8179,2.8179,2.8179,2.8179,2.8179,2.8179,2.8179,2.8179,2.8179,2.8179,2.8179,2.8179,2.8179,2.8179,2.8179,2.8179,2.8179,2.8179,2.8179,2.8326,2.8537,2.8881,2.9148,2.9432,2.9806,2.9913,2.9913,2.9913,2.9913,2.9913,2.9913,2.9913,2.9913,2.9913,3.3556,3.6787,3.6787,4.0511,4.3711,4.3711,4.3711,4.3711,4.3711,4.3711,4.3711,4.3711,4.3711,4.3711,4.3711,4.3828,4.3906,4.3906,4.4707,4.5215,4.5215,4.5898,4.6308,4.6308,4.6308,4.6308,4.6308,4.6308,4.6308,4.6308,4.6967,4.9211,5.2921,5.3579,5.5911,1.7751,1.7342,1.7054,1.547,1.5218,1.505,1.3766,1.3784,1.4017,1.3985,1.4898,1.599,1.6942,1.6264,1.6131,1.7778,1.869,1.9941,2.2179,2.3547,2.4817,2.6241,2.6386,2.6386,2.6386,2.6386,2.6386,2.6386,2.6386,2.6386,2.6386,2.6386,2.6693,2.7282,2.7309,2.759,2.8179,2.8179,2.8179,2.8179,2.8179,2.8179,2.8179,2.8179,2.8179,2.8179,2.8179,2.8179,2.8179,2.8179,2.8179,2.8179,2.8179,2.8179,2.8179,2.8179,2.8179,2.8179,2.8179,2.8179,2.8179,2.8179,2.8312,2.8497,2.8868,2.9121,2.9392,2.9806,2.9913,2.9913,2.9913,2.9913,2.9913,2.9913,2.9913,2.9913,2.9913,3.3556,3.6787,3.6787,4.0511,4.3711,4.3711,4.3711,4.3711,4.3711,4.3711,4.3711,4.3711,4.3711,4.3711,4.3711,4.3711,4.3711,4.3711,4.4355,4.4844,4.4977,4.5664,4.6133,4.6289,4.6308,4.6308,4.6308,4.6308,4.6308,4.6308,4.8052,5.0273,5.2921,5.4679,5.6956,1.7684,1.7296,1.7372,1.6818,1.4271,1.179,1.1308,1.3527,1.5366,1.4223,1.4029,1.4762,1.6979,1.4498,1.3432,1.7407,1.6751,1.7272,2.1626,2.252,2.3667,2.6122,2.6386,2.6307,2.6109,2.6268,2.6307,2.6109,2.6307,2.6386,2.6386,2.6386,2.6693,2.7282,2.7309,2.759,2.8179,2.8179,2.8179,2.8179,2.8179,2.8179,2.8179,2.8179,2.8179,2.8179,2.8179,2.8179,2.8179,2.8179,2.8179,2.8179,2.8179,2.8179,2.8179,2.8179,2.8179,2.8179,2.8179,2.8179,2.8192,2.8219,2.8205,2.8299,2.8885,2.9015,2.9121,2.9753,2.9913,2.9913,2.9913,2.9913,2.9913,2.9913,2.9913,2.9958,3.0182,3.3688,3.6874,3.7089,4.0698,4.3711,4.3711,4.3711,4.3711,4.3711,4.3711,4.3711,4.3711,4.3711,4.3711,4.3711,4.3711,4.373,4.3769,4.4199,4.4629,4.5058,4.5488,4.5898,4.6289,4.6308,4.6308,4.6308,4.6308,4.6376,4.6595,5.0652,5.2798,5.3292,5.7312,5.9289,1.4467,1.424,1.4176,1.3092,1.1956,1.1161,1.12,1.1816,1.2379,1.2316,1.3522,1.4329,1.3619,1.2835,1.2595,1.3654,1.6151,1.8457,1.9948,2.2879,2.5255,2.628,2.6386,2.574,2.3991,2.537,2.57,2.3952,2.5409,2.6386,2.6386,2.6386,2.6693,2.7282,2.7309,2.759,2.8179,2.8179,2.8179,2.8179,2.8179,2.8179,2.8179,2.8179,2.8179,2.8179,2.8179,2.8179,2.8179,2.8179,2.8179,2.8179,2.8179,2.8179,2.8179,2.8179,2.8179,2.8179,2.8179,2.8179,2.8219,2.843,2.8379,2.8339,2.9138,2.9219,2.9121,2.9753,2.9913,2.9913,2.9913,2.9913,2.9913,2.9913,2.9913,3.0392,3.2263,3.4853,3.7347,3.9183,4.1807,4.3711,4.3711,4.3711,4.3711,4.3711,4.3711,4.3711,4.3711,4.3711,4.3711,4.3711,4.3711,4.3848,4.4219,4.4648,4.5078,4.5508,4.5937,4.6211,4.6289,4.6308,4.6308,4.6308,4.6308,4.7121,4.887,4.9871,5.2094,5.5533,5.6479,5.781,1.4297,1.3912,1.3407,1.1627,1.111,1.107,1.1179,1.2063,1.2672,1.2061,1.2743,1.3481,1.362,1.2942,1.2413,1.2488,1.4291,1.6552,1.9091,2.1268,2.3538,2.6109,2.6386,2.5541,2.33,2.5092,2.5489,2.326,2.5171,2.6386,2.6386,2.652,2.68,2.7296,2.7443,2.7724,2.8179,2.8179,2.8179,2.8179,2.8179,2.8179,2.8179,2.8179,2.8179,2.8179,2.8179,2.8179,2.8179,2.8179,2.8179,2.8179,2.8179,2.8179,2.8179,2.8179,2.8179,2.8179,2.8179,2.8179,2.8232,2.8511,2.8433,2.8326,2.9045,2.9121,2.9095,2.9579,2.9806,2.9913,2.9913,2.9913,2.9913,2.9913,2.9913,3.0526,3.2911,3.5201,3.7475,3.9818,4.2141,4.3711,4.3711,4.3711,4.3711,4.3711,4.3711,4.3711,4.3711,4.3711,4.3711,4.3711,4.3711,4.3808,4.4043,4.4473,4.4902,4.5332,4.5762,4.6094,4.6289,4.6308,4.6308,4.6308,4.6308,4.7381,4.9616,5.0652,5.2921,5.6239,5.7297,5.8383,1.4591,1.4037,1.3262,1.1565,1.1178,1.12,1.12,1.285,1.3969,1.2437,1.2359,1.2998,1.4412,1.3479,1.2501,1.2501,1.2804,1.4508,1.8719,1.9668,2.1542,2.5806,2.636,2.537,2.282,2.488,2.533,2.274,2.492,2.6386,2.6386,2.6667,2.6961,2.7296,2.7549,2.7843,2.8179,2.8179,2.8179,2.8179,2.8179,2.8179,2.8179,2.8179,2.8179,2.8179,2.8179,2.8179,2.8179,2.8179,2.8179,2.8179,2.8179,2.8179,2.8179,2.8179,2.8179,2.8179,2.8179,2.8179,2.8245,2.8564,2.8473,2.8312,2.8925,2.9041,2.9055,2.9406,2.9686,2.9913,2.9913,2.9913,2.9913,2.9913,2.9913,3.0526,3.2911,3.5201,3.7475,3.9818,4.2141,4.3711,4.3711,4.3711,4.3711,4.3711,4.3711,4.3711,4.3711,4.3711,4.3711,4.3711,4.3711,4.373,4.3808,4.418,4.4609,4.5117,4.5469,4.5859,4.6289,4.6308,4.6308,4.6308,4.6308,4.7598,5.0146,5.2011,5.4232,5.6797,5.8642,5.9483,1.2218,1.1758,1.1749,1.2718,1.2075,1.12,1.12,1.285,1.3969,1.2437,1.3378,1.417,1.3065,1.2681,1.2501,1.2501,1.3945,1.6029,1.8675,2.0786,2.3065,2.5725,2.6279,2.4801,2.0716,2.3991,2.4721,2.0635,2.4111,2.6386,2.6386,2.6667,2.6961,2.7296,2.7549,2.7843,2.8179,2.8179,2.8179,2.8179,2.8179,2.8179,2.8179,2.8179,2.8179,2.8179,2.8179,2.8179,2.8179,2.8179,2.8179,2.8179,2.8179,2.8179,2.8179,2.8179,2.8179,2.8179,2.8179,2.8179,2.8272,2.8804,2.8604,2.8339,2.9165,2.9245,2.9055,2.9406,2.9686,2.9913,2.9913,2.9913,2.9913,2.9913,2.9913,3.0526,3.2911,3.5201,3.7475,3.9818,4.2141,4.3711,4.3711,4.3711,4.3711,4.3711,4.3711,4.3711,4.3711,4.3711,4.3711,4.3711,4.3711,4.3867,4.4277,4.4355,4.4746,4.5547,4.5688,4.5859,4.6289,4.6308,4.6308,4.6308,4.6308,4.8333,5.2467,5.2756,5.5003,5.9095,5.9367,5.9483,1.1998,1.1576,1.1453,1.177,1.1509,1.12,1.12,1.285,1.4223,1.3665,1.5171,1.6092,1.4489,1.4176,1.4552,1.5731,1.6675,1.8035,2.037,2.1739,2.3375,2.5724,2.6252,2.4681,2.0312,2.274,2.326,2.015,2.278,2.5092,2.6347,2.6827,2.7175,2.7309,2.775,2.8045,2.8179,2.8179,2.8179,2.8179,2.8179,2.8179,2.8179,2.8179,2.8179,2.8179,2.8179,2.8179,2.8179,2.8179,2.8179,2.8179,2.8179,2.8179,2.8179,2.8179,2.8179,2.8179,2.8179,2.8179,2.8286,2.8845,2.8751,2.8511,2.9072,2.9095,2.9028,2.9205,2.9446,2.9713,2.9873,2.9913,2.9913,2.9913,2.9913,3.0182,3.1226,3.4242,3.7861,4.1495,4.301,4.3711,4.3711,4.3711,4.3711,4.3711,4.3711,4.3711,4.3711,4.3711,4.3711,4.3711,4.3711,4.3789,4.3984,4.4258,4.4668,4.5273,4.5547,4.5859,4.6289,4.6308,4.6308,4.6308,4.6308,4.8462,5.288,5.288,5.5188,5.9483,5.9483,5.9483,1.2639,1.1987,1.1334,1.1538,1.1273,1.1145,1.1777,1.3544,1.5132,1.5345,1.7138,1.8283,1.7133,1.6601,1.679,1.8345,1.861,1.939,2.1583,2.2242,2.3338,2.5618,2.5675,2.4071,2.0271,2.1845,2.2206,2.0069,2.2419,2.4681,2.6307,2.6988,2.7309,2.7309,2.7884,2.8179,2.8179,2.8179,2.8179,2.8179,2.8179,2.8179,2.8179,2.8179,2.8179,2.8179,2.8179,2.8179,2.8179,2.8179,2.8179,2.8179,2.8179,2.8179,2.8179,2.8179,2.8179,2.8179,2.8179,2.8179,2.8272,2.8764,2.8724,2.8537,2.8801,2.8895,2.8908,2.8975,2.9259,2.9553,2.9847,2.9913,2.9913,2.9913,2.9913,3.0213,3.139,3.4373,3.8161,4.2803,4.3711,4.3711,4.3711,4.3711,4.3711,4.3711,4.3711,4.3711,4.3711,4.3711,4.3711,4.3711,4.3711,4.3711,4.3711,4.4023,4.4414,4.4844,4.5273,4.5703,4.6133,4.625,4.6308,4.6308,4.6836,4.9041,5.288,5.3456,5.5711,5.9483,5.9483,5.9483,1.3874,1.245,1.1042,1.3413,1.2161,1.0952,1.3325,1.5437,1.6952,1.7302,1.9051,2.0619,2.0849,1.9554,1.8459,1.8572,1.861,1.929,2.1351,2.2124,2.3239,2.5302,2.4199,2.2367,2.0109,2.1845,2.2206,2.0069,2.3832,2.6268,2.6386,2.6988,2.7309,2.7309,2.7884,2.8179,2.8179,2.8179,2.8179,2.8179,2.8179,2.8179,2.8179,2.8179,2.8179,2.8179,2.8179,2.8179,2.8179,2.8179,2.8179,2.8179,2.8179,2.8179,2.8179,2.8179,2.8179,2.8179,2.8179,2.8179,2.8232,2.8524,2.8417,2.8272,2.8537,2.8631,2.8684,2.8921,2.9259,2.9553,2.9847,2.9913,2.9913,2.9913,2.9913,3.1079,3.549,3.6615,3.8161,4.2803,4.3711,4.3711,4.3711,4.3711,4.3711,4.3711,4.3711,4.3711,4.3711,4.3711,4.3711,4.3711,4.3711,4.3711,4.3711,4.373,4.3945,4.4394,4.4824,4.5254,4.5683,4.6094,4.6308,4.6308,4.8376,5.0568,5.288,5.5026,5.7194,5.9483,5.9483,5.9483,1.2286,1.2049,1.185,1.259,1.2707,1.3005,1.4493,1.6817,1.8764,1.9098,2.1041,2.2732,2.2834,2.1578,2.0954,2.2248,2.2434,2.2695,2.3413,2.4047,2.4687,2.539,2.4068,2.282,2.2046,2.1402,2.0716,1.9947,2.2619,2.4271,2.4271,2.5984,2.7068,2.7296,2.7697,2.7991,2.8179,2.8179,2.8179,2.8179,2.8179,2.8179,2.8179,2.8179,2.8179,2.8179,2.8179,2.8179,2.8179,2.8179,2.8179,2.8179,2.8179,2.8179,2.8179,2.8179,2.8179,2.8179,2.8179,2.8179,2.8232,2.8511,2.8537,2.8457,2.8577,2.8604,2.8671,2.8908,2.9068,2.9312,2.9793,2.9913,2.9913,2.9913,3.1048,3.2999,3.614,3.799,3.9963,4.3093,4.3711,4.3711,4.3711,4.3711,4.3711,4.3711,4.3711,4.3711,4.3711,4.3711,4.3711,4.3711,4.3711,4.3711,4.3711,4.3711,4.3906,4.4375,4.4785,4.5215,4.5707,4.6074,4.6308,4.6308,4.9871,5.2094,5.2921,5.5124,5.7352,5.9483,5.9483,5.9483,1.1449,1.1453,1.1696,1.2268,1.2639,1.3449,1.5722,1.7616,1.9293,2.0591,2.2344,2.3647,2.379,2.309,2.2929,2.4351,2.4599,2.4599,2.4599,2.5106,2.5518,2.5518,2.4068,2.31,2.31,2.1804,2.0958,2.0958,2.298,2.4191,2.4191,2.5971,2.7148,2.759,2.7791,2.7978,2.8179,2.8179,2.8179,2.8179,2.8179,2.8179,2.8179,2.8179,2.8179,2.8179,2.8179,2.8179,2.8179,2.8179,2.8179,2.8179,2.8179,2.8179,2.8179,2.8179,2.8179,2.8179,2.8179,2.8179,2.8219,2.8433,2.8457,2.8457,2.8457,2.8457,2.8537,2.8881,2.9001,2.9135,2.9722,2.9913,2.9913,2.9913,3.2263,3.494,3.6485,3.863,4.0974,4.3278,4.3711,4.3711,4.3711,4.3711,4.3711,4.3711,4.3711,4.3711,4.3711,4.3711,4.3711,4.3711,4.3711,4.3711,4.3711,4.3711,4.3828,4.4141,4.457,4.4941,4.5234,4.5801,4.6094,4.6094,4.9829,5.2135,5.2921,5.5871,5.8045,5.9483,5.9483,5.9483,0.0,0.0,0.0,1.2608,1.2017,1.2164,1.6954,1.78,1.846,2.1694,2.2812,2.3297,2.3701,2.3995,2.4302,2.4546,2.4586,2.4599,2.4599,2.5093,2.5504,2.5518,2.4056,2.3128,2.318,2.314,2.31,2.31,2.5171,2.6386,2.6307,2.6947,2.7576,2.8138,2.8179,2.8179,2.8179,2.8179,2.8179,2.8179,2.8179,2.8179,2.8179,2.8179,2.8179,2.8179,2.8179,2.8179,2.8179,2.8179,2.8179,2.8179,2.8179,2.8179,2.8179,2.8179,2.8179,2.8179,2.8179,2.8179,2.8179,2.8179,2.8179,2.8179,2.8179,2.8179,2.8312,2.8858,2.8988,2.9135,2.9722,2.9913,2.9913,2.9913,3.3424,3.6787,3.6787,3.8715,4.1058,4.3278,4.3711,4.3711,4.3711,4.3711,4.3711,4.3711,4.3711,4.3711,4.3711,4.3711,4.3711,4.3711,4.3711,4.3711,4.3711,4.3711,4.3711,4.3711,4.4141,4.4394,4.4394,4.5215,4.5707,4.5727,4.8302,5.0757,5.2921,5.7273,5.9444,5.9483,5.9483,5.9483,1.1135,0.0,0.0,0.0,0.0,0.0,1.6241,1.6569,1.7342,2.0777,2.0942,2.1096,2.3059,2.3861,2.4222,2.4315,2.4466,2.4599,2.4599,2.4957,2.5277,2.5491,2.3895,2.3495,2.5304,2.4031,2.31,2.31,2.5171,2.57,2.4111,2.6112,2.7376,2.755,2.7965,2.8179,2.8179,2.8179,2.8179,2.8179,2.8179,2.8179,2.8179,2.8179,2.8179,2.8179,2.8179,2.8179,2.8179,2.8179,2.8179,2.8179,2.8179,2.8179,2.8179,2.8179,2.8179,2.8179,2.8179,2.8179,2.8179,2.8179,2.8179,2.8179,2.8179,2.8179,2.8272,2.8617,2.8828,2.9135,2.9722,2.9913,2.9913,2.9913,3.3424,3.6787,3.6787,3.9963,4.2969,4.3567,4.3711,4.3711,4.3711,4.3711,4.3711,4.3711,4.3711,4.3711,4.3711,4.3711,4.3711,4.3711,4.3711,4.3711,4.3711,4.3711,4.3711,4.3711,4.4141,4.4394,4.4394,4.4922,4.5351,4.5664,4.9552,5.201,5.2921,5.5734,5.7952,5.9483,5.9483,5.9483,1.1242,1.1229,1.1566,1.2283,0.0,0.0,1.6446,1.6795,1.7508,2.065,2.0954,2.1147,2.2849,2.3514,2.3875,2.3995,2.4168,2.4356,2.4572,2.489,2.5144,2.5304,2.4598,2.4657,2.6068,2.5187,2.4482,2.4482,2.566,2.5871,2.4724,2.6339,2.7362,2.7442,2.7938,2.8179,2.8179,2.8179,2.8179,2.8179,2.8179,2.8179,2.8179,2.8179,2.8179,2.8179,2.8179,2.8179,2.8179,2.8179,2.8179,2.8179,2.8179,2.8179,2.8179,2.8179,2.8179,2.8179,2.8179,2.8179,2.8179,2.8179,2.8179,2.8179,2.8179,2.8179,2.8245,2.8524,2.8898,2.9299,2.9646,2.982,3.0137,3.1137,3.4154,3.7089,3.8075,4.1118,4.3711,4.3711,4.3711,4.3711,4.3711,4.3711,4.3711,4.3711,4.3711,4.3711,4.3711,4.3711,4.3711,4.3711,4.3711,4.3711,4.3711,4.3711,4.3711,4.3711,4.3965,4.4101,4.4101,4.4531,4.4961,4.5391,4.9048,5.2041,5.4296,5.6494,5.8227,5.9483,5.9483,5.9483,1.1688,1.1542,1.1753,1.2799,1.2732,0.0,1.666,1.7197,1.7729,2.0441,2.1253,2.1667,2.2338,2.2686,2.2979,2.3322,2.3496,2.3808,2.4452,2.481,2.501,2.5077,2.5583,2.5917,2.5984,2.6225,2.636,2.6386,2.6386,2.6507,2.672,2.7054,2.7348,2.7642,2.7978,2.8152,2.8179,2.8179,2.8179,2.8179,2.8179,2.8179,2.8179,2.8179,2.8179,2.8179,2.8179,2.8179,2.8179,2.8179,2.8179,2.8179,2.8179,2.8179,2.8179,2.8179,2.8179,2.8179,2.8179,2.8179,2.8179,2.8179,2.8179,2.8179,2.8179,2.8179,2.8245,2.8524,2.8978,2.9392,2.9419,2.9633,3.0386,3.2764,3.5095,3.7425,3.9776,4.2099,4.3711,4.3711,4.3711,4.3711,4.3711,4.3711,4.3711,4.3711,4.3711,4.3711,4.3711,4.3711,4.3711,4.3711,4.3711,4.3711,4.3711,4.3711,4.3711,4.3711,4.3711,4.3711,4.3711,4.4101,4.4512,4.4941,4.7835,5.1732,5.6463,5.8515,5.9483,5.9483,5.9483,5.9483,1.1823,1.1764,1.2131,1.2149,1.2585,0.0,1.3675,1.3404,1.3845,1.6749,1.6471,1.6535,1.9198,1.9933,2.0241,2.0535,2.1596,2.2792,2.4102,2.4342,2.4556,2.5024,2.5184,2.5476,2.5944,2.6051,2.6172,2.6373,2.6386,2.6413,2.6466,2.6747,2.7041,2.7389,2.7629,2.7938,2.8179,2.8179,2.8179,2.8179,2.8179,2.8179,2.8179,2.8179,2.8179,2.8179,2.8179,2.8179,2.8179,2.8179,2.8179,2.8179,2.8179,2.8179,2.8179,2.8179,2.8179,2.8179,2.8179,2.8179,2.8179,2.8179,2.8179,2.8179,2.8179,2.8179,2.8245,2.8524,2.8684,2.8831,2.9028,2.9121,2.9814,3.2367,3.4776,3.7165,3.9765,4.2099,4.3711,4.3711,4.3711,4.3711,4.3711,4.3711,4.3711,4.3711,4.3711,4.3711,4.3711,4.3711,4.3711,4.3711,4.3711,4.3711,4.3711,4.3711,4.3711,4.3711,4.3711,4.3711,4.3711,4.3789,4.4062,4.4512,4.9208,5.3807,5.8216,5.9089,5.9483,5.9483,5.9483,5.9483,1.2235,1.2184,1.2577,1.2719,1.2885,0.0,0.0,1.3529,1.3706,1.6239,1.5936,1.5818,1.7875,1.8398,1.8652,1.9078,2.0254,2.1323,2.1924,2.3273,2.4369,2.481,2.4997,2.5235,2.5529,2.5824,2.6118,2.6373,2.6386,2.6386,2.6386,2.6667,2.6961,2.7296,2.7549,2.7843,2.8179,2.8179,2.8179,2.8179,2.8179,2.8179,2.8179,2.8179,2.8179,2.8179,2.8179,2.8179,2.8179,2.8179,2.8179,2.8179,2.8179,2.8179,2.8179,2.8179,2.8179,2.8179,2.8179,2.8179,2.8179,2.8179,2.8179,2.8179,2.8179,2.8179,2.8219,2.8379,2.8484,2.8644,2.8791,2.8895,2.9955,3.3745,3.5536,3.742,4.1212,4.2886,4.3711,4.3711,4.3711,4.3711,4.3711,4.3711,4.3711,4.3711,4.3711,4.3711,4.3711,4.3711,4.3711,4.3711,4.3711,4.3711,4.3711,4.3711,4.3711,4.3711,4.3711,4.3711,4.3711,4.3711,4.494,4.7519,5.1711,5.5335,5.8303,5.8855,5.9257,5.9483,5.9483,5.9483,1.3066,1.2965,1.3293,1.354,1.336,1.3427,0.0,0.0,0.0,1.6027,1.5973,1.5882,1.6765,1.686,1.7021,1.7622,1.8704,1.9383,1.9225,2.1496,2.3354,2.3785,2.4436,2.481,2.4743,2.5208,2.5703,2.6186,2.6012,2.6012,2.6293,2.6587,2.6907,2.7296,2.7495,2.7831,2.8179,2.8179,2.8179,2.8179,2.8179,2.8179,2.8179,2.8179,2.8179,2.8179,2.8179,2.8179,2.8179,2.8179,2.8179,2.8179,2.8179,2.8179,2.8179,2.8179,2.8179,2.8179,2.8179,2.8179,2.8179,2.8179,2.8179,2.8179,2.8179,2.8179,2.8179,2.8179,2.8366,2.8524,2.8524,2.8684,3.0078,3.5034,3.6172,3.7553,4.2532,4.3574,4.3613,4.3691,4.3711,4.3711,4.3711,4.3711,4.3711,4.3711,4.3711,4.3711,4.3711,4.3711,4.3711,4.3711,4.3711,4.3711,4.3711,4.3711,4.3711,4.3711,4.3711,4.3711,4.3711,4.4103,4.6328,5.0552,5.3591,5.595,5.7725,5.8303,5.883,5.9357,5.9357,5.9408,1.4634,1.4482,1.4558,1.3786,1.3967,1.4028,1.2906,0.0,1.3293,1.3293,0.0,1.3467,1.4344,0.0,0.0,1.4861,1.5952,1.6832,1.7021,1.8477,1.992,2.1002,2.2813,2.3821,2.3519,2.3581,2.4182,2.5518,2.4649,2.4673,2.5971,2.6279,2.6694,2.7282,2.7336,2.763,2.8179,2.8179,2.8179,2.8179,2.8179,2.8179,2.8179,2.8179,2.8179,2.8179,2.8179,2.8179,2.8179,2.8179,2.8179,2.8179,2.8179,2.8179,2.8179,2.8179,2.8179,2.8179,2.8179,2.8179,2.8179,2.8179,2.8179,2.8179,2.8179,2.8179,2.8179,2.8179,2.8205,2.8232,2.8232,2.8259,2.9509,3.4279,3.5436,3.6875,4.2034,4.3185,4.3262,4.3633,4.3711,4.3711,4.3711,4.3711,4.3711,4.3711,4.3711,4.3711,4.3711,4.3711,4.3711,4.3711,4.3711,4.3711,4.3711,4.3711,4.3711,4.3711,4.3711,4.3711,4.3711,4.5474,4.7587,5.0037,5.2705,5.5045,5.7085,5.77,5.8278,5.8805,5.8805,5.9056,1.4808,1.4954,1.5257,1.4354,1.4469,1.4429,1.3133,1.2625,1.251,1.2763,0.0,0.0,0.0,0.0,0.0,0.0,1.4772,1.5454,1.5217,1.6754,1.8491,1.9987,2.0935,2.1817,2.2678,2.2772,2.3487,2.513,2.4182,2.4222,2.5904,2.6118,2.6439,2.6987,2.7215,2.751,2.7924,2.8098,2.8179,2.8179,2.8179,2.8179,2.8179,2.8179,2.8179,2.8179,2.8179,2.8179,2.8179,2.8179,2.8179,2.8179,2.8179,2.8179,2.8179,2.8179,2.8179,2.8179,2.8179,2.8179,2.8179,2.8179,2.8179,2.8179,2.8179,2.8179,2.8179,2.8179,2.8179,2.8473,2.9732,3.0051,3.1274,3.6038,3.716,3.8171,4.1894,4.2891,4.3166,4.3301,4.3535,4.3711,4.3711,4.3711,4.3711,4.3711,4.3711,4.3711,4.3711,4.3711,4.3711,4.3711,4.3711,4.3711,4.3711,4.3711,4.3711,4.3711,4.3711,4.4248,4.5454,4.7525,4.9635,5.1746,5.4369,5.5967,5.6533,5.7085,5.7487,5.7713,5.839,5.8792,1.5524,1.5698,1.5899,1.4696,1.4563,1.4437,1.3227,1.2652,1.247,1.2837,1.2559,0.0,0.0,0.0,1.2906,1.3247,0.0,1.441,1.3822,1.5093,1.6725,1.8397,1.9092,2.004,2.155,2.1384,2.2025,2.4111,2.322,2.3474,2.5529,2.5864,2.6225,2.6694,2.7068,2.7443,2.7696,2.8031,2.8179,2.8179,2.8179,2.8179,2.8179,2.8179,2.8179,2.8179,2.8179,2.8179,2.8179,2.8179,2.8179,2.8179,2.8179,2.8179,2.8179,2.8179,2.8179,2.8179,2.8179,2.8179,2.8179,2.8179,2.8179,2.8179,2.8179,2.8179,2.8179,2.8179,2.8179,2.867,3.0827,3.1392,3.2551,3.7233,3.8351,3.904,4.167,4.25,4.2793,4.3027,4.332,4.3574,4.3691,4.3711,4.3711,4.3711,4.3711,4.3711,4.3711,4.3711,4.3711,4.3711,4.3711,4.3711,4.3711,4.3711,4.3711,4.3711,4.4268,4.5251,4.6746,4.94,5.1555,5.3062,5.5509,5.6584,5.6219,5.6584,5.6784,5.6809,5.7976,5.8579,1.7514,1.7139,1.667,1.4625,1.4129,1.3801,1.2599,1.2967,1.3467,1.3233,1.3834,1.4407,1.4434,1.4229,1.3948,1.3626,1.3626,0.0,0.0,1.3126,1.3881,1.5364,1.7315,1.8891,1.98,1.8823,1.9236,2.1884,2.1288,2.1911,2.4506,2.5491,2.6131,2.6386,2.7001,2.7443,2.7696,2.8031,2.8179,2.8179,2.8179,2.8179,2.8179,2.8179,2.8179,2.8179,2.8179,2.8179,2.8179,2.8179,2.8179,2.8179,2.8179,2.8179,2.8179,2.8179,2.8179,2.8179,2.8179,2.8179,2.8179,2.8179,2.8179,2.8179,2.8179,2.8179,2.8179,2.8179,2.8179,2.867,3.0827,3.1392,3.2505,3.69,3.7914,3.8637,4.1265,4.1836,4.209,4.2951,4.3127,4.3223,4.3633,4.3711,4.3711,4.3711,4.3711,4.3711,4.3711,4.3711,4.3711,4.3711,4.3711,4.3711,4.3711,4.3711,4.3711,4.3711,4.5657,4.6807,4.6786,5.0801,5.3025,5.31,5.5177,5.6219,5.6219,5.6219,5.6244,5.6269,5.7399,5.8202,1.8197,1.8491,1.8384,1.6123,1.5695,1.5311,1.3347,1.3273,1.352,1.3247,1.3887,1.4447,1.4269,1.4148,1.3988,0.0,0.0,1.3127,0.0,1.2738,1.326,1.4114,1.5885,1.7167,1.7461,1.7996,1.9025,2.0664,2.0909,2.1951,2.4222,2.4997,2.5636,2.6131,2.6667,2.7108,2.7415,2.7696,2.7991,2.8179,2.8179,2.8179,2.8179,2.8179,2.8179,2.8179,2.8179,2.8179,2.8179,2.8179,2.8179,2.8179,2.8179,2.8179,2.8179,2.8179,2.8179,2.8179,2.8179,2.8179,2.8179,2.8179,2.8179,2.8179,2.8179,2.8179,2.8179,2.8179,2.9202,3.0827,3.3022,3.4651,3.6442,3.9374,4.006,4.0352,4.123,4.1601,4.1894,4.2168,4.2695,4.3125,4.3262,4.3516,4.3711,4.3711,4.3711,4.3711,4.3711,4.3711,4.3711,4.3711,4.3711,4.3711,4.3711,4.3711,4.3711,4.3711,4.5677,4.7446,4.8851,5.1631,5.3763,5.5115,5.5864,5.6219,5.6219,5.6219,5.6219,5.6244,5.7374,5.8001,1.9038,1.9372,1.9305,1.7274,1.6874,1.6486,1.4456,1.4354,1.4634,1.4362,1.475,1.5217,1.5444,1.4977,1.4456,0.0,0.0,1.29,0.0,1.227,1.2631,1.3087,1.4629,1.5882,1.6404,1.6727,1.7849,2.0037,2.017,2.1269,2.3754,2.4649,2.5304,2.5824,2.6466,2.6907,2.7108,2.7509,2.7789,2.8031,2.8138,2.8179,2.8179,2.8179,2.8179,2.8179,2.8179,2.8179,2.8179,2.8179,2.8179,2.8179,2.8179,2.8179,2.8179,2.8179,2.8179,2.8179,2.8179,2.8179,2.8179,2.8179,2.8179,2.8179,2.8179,2.8179,2.8179,2.8179,2.9732,3.1928,3.4124,3.6281,3.8469,4.0685,4.1211,4.1211,4.1211,4.1387,4.1621,4.1777,4.2363,4.2891,4.3087,4.3418,4.3711,4.3711,4.3711,4.3711,4.3711,4.3711,4.3711,4.3711,4.3711,4.3711,4.3711,4.3711,4.3711,4.3711,4.5677,4.7764,4.9908,5.2014,5.4063,5.6182,5.6219,5.6219,5.6219,5.6219,5.6319,5.6483,5.7248,5.7801]},{"header":{"parameterUnit":"m.s-1","parameterCategory":1,"la1":30.6,"la2":29.2853,"lo1":-89.7004,"lo2":-87.6739,"dx":0.0162,"dy":0.0183,"nx":112,"ny":82,"refTime":"2022-11-10T06:00:00:Z","depth":0,"parameterNumber":3,"parameterNumberName":"V-component_of_WINDS"},"data":[0.0,0.0,0.0,0.0,0.0,0.0,0.0,0.0,0.0,0.0,0.0,0.0,0.0,0.0,0.0,0.0,0.0,0.0,0.0,0.0,0.0,0.0,0.0,0.0,0.0,0.0,0.0,0.0,0.0,0.0,0.0,0.0,0.0,0.0,0.0,0.0,0.0,0.0,0.0,0.0,0.0,0.0,0.0,0.0,0.0,0.0,0.0,0.0,0.0,0.0,0.0,0.0,0.0,0.0,0.0,0.0,0.0,0.0,0.0,0.0,0.0,0.0,0.0,0.0,0.0,0.0,0.0,0.0,0.0,0.0,0.0,0.0,0.0,0.0,0.0,0.0,0.0,0.0,0.0,0.0,0.0,0.0,0.0,0.0,0.0,0.0,0.0,0.0,0.0,0.0,3.0701,3.5663,3.968,4.2402,4.3369,4.1246,3.8093,3.3903,0.0,0.0,0.0,0.0,0.0,0.0,0.0,0.0,0.0,0.0,0.0,0.0,0.0,0.0,0.0,0.0,0.0,0.0,0.0,0.0,0.0,0.0,0.0,0.0,0.0,0.0,0.0,0.0,0.0,0.0,0.0,0.0,0.0,0.0,0.0,0.0,0.0,0.0,0.0,0.0,0.0,0.0,0.0,0.0,0.0,0.0,0.0,0.0,0.0,0.0,0.0,0.0,0.0,0.0,0.0,0.0,0.0,0.0,0.0,0.0,0.0,0.0,0.0,0.0,0.0,0.0,0.0,0.0,0.0,0.0,0.0,0.0,0.0,0.0,0.0,0.0,0.0,0.0,0.0,0.0,0.0,0.0,0.0,0.0,0.0,0.0,0.0,0.0,0.0,0.0,0.0,0.0,0.0,0.0,0.0,0.0,0.0,0.0,0.0,0.0,0.0,0.0,0.0,0.0,3.4168,4.2028,4.3977,4.4556,4.4177,4.281,3.9757,3.4667,0.0,0.0,0.0,0.0,0.0,0.0,0.0,0.0,0.0,0.0,0.0,0.0,0.0,0.0,0.0,0.0,0.0,0.0,0.0,0.0,0.0,0.0,0.0,0.0,0.0,0.0,0.0,0.0,0.0,0.0,0.0,0.0,0.0,0.0,0.0,0.0,0.0,0.0,0.0,0.0,0.0,0.0,0.0,0.0,0.0,0.0,0.0,0.0,0.0,0.0,0.0,0.0,0.0,0.0,0.0,0.0,0.0,0.0,0.0,0.0,0.0,0.0,0.0,0.0,0.0,0.0,0.0,0.0,0.0,0.0,0.0,0.0,0.0,0.0,0.0,0.0,0.0,0.0,0.0,0.0,0.0,0.0,0.0,0.0,0.0,0.0,0.0,0.0,0.0,0.0,0.0,0.0,0.0,0.0,0.0,0.0,0.0,0.0,0.0,0.0,0.0,0.0,0.0,3.3894,3.8739,4.4755,4.5334,4.5334,4.5373,4.3868,4.0953,3.6354,3.2012,0.0,0.0,0.0,0.0,0.0,0.0,0.0,0.0,0.0,0.0,0.0,0.0,0.0,0.0,0.0,0.0,0.0,0.0,0.0,0.0,0.0,0.0,0.0,0.0,0.0,0.0,0.0,0.0,0.0,0.0,0.0,0.0,0.0,0.0,0.0,0.0,0.0,0.0,0.0,0.0,0.0,0.0,0.0,0.0,0.0,0.0,0.0,0.0,0.0,0.0,0.0,0.0,0.0,0.0,0.0,0.0,0.0,0.0,0.0,0.0,0.0,0.0,0.0,0.0,0.0,0.0,0.0,0.0,0.0,0.0,0.0,0.0,0.0,0.0,0.0,0.0,0.0,0.0,0.0,0.0,0.0,0.0,0.0,0.0,0.0,0.0,0.0,0.0,0.0,0.0,0.0,0.0,0.0,0.0,0.0,0.0,0.0,0.0,0.0,0.0,0.0,0.0,3.9899,4.3196,4.6873,4.6586,4.6373,4.6975,4.5321,4.2316,3.7809,3.3335,0.0,0.0,0.0,0.0,0.0,0.0,0.0,0.0,0.0,0.0,0.0,0.0,0.0,0.0,0.0,0.0,0.0,0.0,0.0,0.0,0.0,0.0,0.0,0.0,0.0,0.0,0.0,0.0,0.0,0.0,0.0,0.0,0.0,0.0,0.0,0.0,0.0,0.0,0.0,0.0,0.0,0.0,0.0,0.0,0.0,0.0,0.0,0.0,0.0,0.0,0.0,0.0,0.0,0.0,0.0,0.0,0.0,0.0,0.0,0.0,0.0,0.0,0.0,0.0,0.0,0.0,0.0,0.0,0.0,0.0,0.0,0.0,0.0,0.0,0.0,0.0,0.0,0.0,0.0,0.0,0.0,0.0,0.0,0.0,0.0,0.0,0.0,0.0,0.0,0.0,0.0,0.0,0.0,0.0,0.0,0.0,0.0,0.0,0.0,0.0,0.0,0.0,4.2591,4.6965,4.9811,4.9202,4.874,4.9146,4.785,4.4407,3.8255,3.4099,0.0,0.0,0.0,0.0,0.0,0.0,0.0,0.0,0.0,0.0,0.0,0.0,0.0,0.0,0.0,0.0,0.0,0.0,0.0,0.0,0.0,0.0,0.0,0.0,0.0,0.0,0.0,0.0,0.0,0.0,0.0,0.0,0.0,0.0,0.0,0.0,0.0,0.0,0.0,0.0,0.0,0.0,0.0,0.0,0.0,0.0,0.0,0.0,0.0,0.0,0.0,0.0,0.0,0.0,0.0,0.0,0.0,0.0,0.0,0.0,0.0,0.0,0.0,0.0,0.0,0.0,0.0,0.0,0.0,0.0,0.0,0.0,0.0,0.0,0.0,0.0,0.0,0.0,0.0,0.0,0.0,0.0,0.0,0.0,0.0,0.0,0.0,0.0,0.0,0.0,0.0,0.0,0.0,0.0,0.0,0.0,0.0,0.0,0.0,0.0,0.0,0.0,4.2883,4.6691,5.0019,5.0029,4.9875,5.0013,4.8194,4.4776,3.9469,0.0,0.0,0.0,0.0,0.0,0.0,0.0,0.0,0.0,0.0,0.0,0.0,0.0,0.0,0.0,0.0,0.0,0.0,0.0,0.0,0.0,0.0,0.0,0.0,0.0,0.0,0.0,0.0,0.0,0.0,0.0,0.0,0.0,0.0,0.0,0.0,0.0,0.0,0.0,0.0,0.0,0.0,0.0,0.0,0.0,0.0,0.0,0.0,0.0,0.0,0.0,0.0,0.0,0.0,0.0,0.0,0.0,0.0,0.0,0.0,0.0,0.0,0.0,0.0,0.0,0.0,0.0,0.0,0.0,0.0,0.0,0.0,0.0,0.0,0.0,0.0,0.0,0.0,0.0,0.0,0.0,0.0,0.0,0.0,0.0,0.0,0.0,0.0,0.0,0.0,0.0,0.0,0.0,0.0,0.0,0.0,0.0,0.0,0.0,0.0,0.0,0.0,3.999,4.4415,4.8212,5.1378,5.1437,5.1348,5.1699,4.9531,4.5819,4.0401,0.0,0.0,0.0,0.0,0.0,0.0,0.0,0.0,0.0,0.0,0.0,0.0,0.0,0.0,0.0,0.0,0.0,0.0,0.0,0.0,0.0,0.0,0.0,0.0,0.0,0.0,0.0,0.0,0.0,0.0,0.0,0.0,0.0,0.0,0.0,0.0,0.0,0.0,0.0,0.0,0.0,0.0,0.0,0.0,0.0,0.0,0.0,0.0,0.0,0.0,0.0,0.0,0.0,0.0,0.0,0.0,0.0,0.0,0.0,0.0,0.0,0.0,0.0,0.0,0.0,0.0,0.0,0.0,0.0,0.0,0.0,0.0,0.0,0.0,0.0,0.0,0.0,0.0,0.0,0.0,0.0,0.0,0.0,0.0,0.0,0.0,0.0,0.0,0.0,0.0,0.0,0.0,0.0,0.0,0.0,0.0,0.0,0.0,0.0,0.0,0.0,0.0,4.197,4.7792,5.2322,5.4376,5.3659,5.3479,5.4497,5.2273,4.782,0.0,0.0,0.0,0.0,0.0,0.0,0.0,0.0,0.0,0.0,0.0,0.0,0.0,0.0,0.0,0.0,0.0,0.0,0.0,0.0,0.0,0.0,0.0,0.0,0.0,0.0,0.0,0.0,0.0,0.0,0.0,0.0,0.0,0.0,0.0,0.0,0.0,0.0,0.0,0.0,0.0,0.0,0.0,0.0,0.0,0.0,0.0,0.0,0.0,0.0,0.0,0.0,0.0,0.0,0.0,0.0,0.0,0.0,0.0,0.0,0.0,0.0,0.0,0.0,0.0,0.0,0.0,0.0,0.0,0.0,0.0,0.0,0.0,0.0,0.0,0.0,0.0,0.0,0.0,0.0,0.0,0.0,0.0,0.0,0.0,0.0,0.0,0.0,0.0,0.0,0.0,0.0,0.0,0.0,0.0,0.0,0.0,0.0,0.0,0.0,0.0,0.0,0.0,4.4085,4.9347,5.3265,5.5171,5.5099,5.481,5.4617,5.2119,4.769,4.0911,0.0,0.0,0.0,0.0,0.0,0.0,0.0,0.0,0.0,0.0,0.0,0.0,0.0,0.0,0.0,0.0,0.0,0.0,0.0,0.0,0.0,0.0,0.0,0.0,0.0,0.0,0.0,0.0,0.0,0.0,0.0,0.0,0.0,0.0,0.0,0.0,0.0,0.0,0.0,0.0,0.0,0.0,0.0,0.0,0.0,0.0,0.0,0.0,0.0,0.0,0.0,0.0,0.0,0.0,0.0,0.0,0.0,0.0,0.0,0.0,0.0,0.0,0.0,0.0,0.0,0.0,0.0,0.0,0.0,0.0,0.0,0.0,0.0,0.0,0.0,0.0,0.0,0.0,0.0,0.0,0.0,0.0,0.0,0.0,0.0,0.0,0.0,0.0,0.0,0.0,0.0,0.0,0.0,0.0,0.0,0.0,0.0,0.0,0.0,0.0,0.0,0.0,4.546,5.1077,5.4925,5.6018,5.6139,5.5936,5.5513,5.3034,4.894,4.2924,0.0,0.0,0.0,0.0,0.0,0.0,0.0,0.0,0.0,0.0,0.0,0.0,0.0,0.0,0.0,0.0,0.0,0.0,0.0,0.0,0.0,0.0,0.0,0.0,0.0,0.0,0.0,0.0,0.0,0.0,0.0,0.0,0.0,0.0,0.0,0.0,0.0,0.0,0.0,0.0,0.0,0.0,0.0,0.0,0.0,0.0,0.0,0.0,0.0,0.0,0.0,0.0,0.0,0.0,0.0,0.0,0.0,0.0,0.0,0.0,0.0,0.0,0.0,0.0,0.0,0.0,0.0,0.0,0.0,0.0,0.0,0.0,0.0,0.0,0.0,0.0,0.0,0.0,0.0,0.0,0.0,0.0,0.0,0.0,0.0,0.0,0.0,0.0,0.0,0.0,0.0,0.0,0.0,0.0,0.0,0.0,0.0,0.0,0.0,0.0,0.0,0.0,4.648,5.2841,5.6968,5.7103,5.7103,5.7036,5.69,5.464,5.1062,4.6015,0.0,0.0,0.0,0.0,0.0,0.0,0.0,0.0,0.0,0.0,0.0,0.0,0.0,0.0,0.0,0.0,0.0,0.0,0.0,0.0,0.0,0.0,0.0,0.0,0.0,0.0,0.0,0.0,0.0,0.0,0.0,0.0,0.0,0.0,0.0,0.0,0.0,0.0,0.0,0.0,0.0,0.0,0.0,0.0,0.0,0.0,0.0,0.0,0.0,0.0,0.0,0.0,0.0,0.0,0.0,0.0,0.0,0.0,0.0,0.0,2.5749,2.2881,0.0,0.0,0.0,0.0,0.0,0.0,0.0,0.0,0.0,0.0,0.0,0.0,0.0,0.0,0.0,0.0,0.0,0.0,0.0,0.0,0.0,0.0,0.0,0.0,0.0,0.0,0.0,0.0,0.0,0.0,0.0,0.0,0.0,0.0,0.0,0.0,0.0,0.0,0.0,0.0,4.8686,5.4245,5.8084,5.9268,5.9404,5.893,5.7746,5.5892,5.2411,4.6756,4.276,0.0,0.0,0.0,0.0,0.0,0.0,0.0,0.0,0.0,0.0,0.0,0.0,0.0,0.0,0.0,0.0,0.0,0.0,0.0,0.0,0.0,0.0,0.0,0.0,0.0,0.0,0.0,0.0,0.0,0.0,0.0,0.0,0.0,0.0,0.0,0.0,0.0,0.0,0.0,0.0,0.0,0.0,0.0,0.0,0.0,0.0,0.0,0.0,0.0,0.0,0.0,0.0,0.0,0.0,0.0,0.0,0.0,0.0,0.0,3.0273,2.7628,0.0,0.0,0.0,0.0,0.0,0.0,0.0,0.0,0.0,0.0,0.0,0.0,0.0,0.0,0.0,0.0,0.0,0.0,0.0,0.0,0.0,0.0,0.0,0.0,0.0,0.0,0.0,0.0,0.0,0.0,0.0,0.0,0.0,0.0,0.0,0.0,0.0,0.0,0.0,0.0,4.9938,5.5513,5.9235,6.0013,6.0114,5.9776,5.8998,5.7491,5.504,5.1539,4.6509,0.0,0.0,0.0,0.0,0.0,0.0,0.0,0.0,0.0,0.0,0.0,0.0,0.0,0.0,0.0,0.0,0.0,0.0,0.0,0.0,0.0,0.0,0.0,0.0,0.0,0.0,0.0,0.0,0.0,0.0,0.0,0.0,0.0,0.0,0.0,0.0,0.0,0.0,0.0,0.0,0.0,0.0,0.0,0.0,0.0,0.0,0.0,0.0,0.0,0.0,0.0,0.0,0.0,3.5824,3.6809,3.8332,3.8177,3.9168,4.0722,3.586,3.3666,3.3197,2.9211,0.0,0.0,0.0,0.0,0.0,0.0,0.0,0.0,0.0,0.0,0.0,0.0,0.0,0.0,0.0,0.0,0.0,0.0,0.0,0.0,0.0,0.0,0.0,0.0,4.3196,4.2918,3.743,0.0,0.0,0.0,0.0,0.0,0.0,0.0,0.0,0.0,0.0,0.0,5.1358,5.6968,6.0486,6.0486,6.0622,6.0588,6.0317,5.9066,5.7749,5.6484,5.0489,4.596,0.0,0.0,0.0,0.0,0.0,0.0,0.0,0.0,0.0,0.0,0.0,0.0,0.0,0.0,0.0,0.0,0.0,0.0,0.0,0.0,0.0,0.0,0.0,0.0,0.0,0.0,0.0,0.0,0.0,0.0,0.0,0.0,2.5168,2.6656,0.0,0.0,0.0,0.0,0.0,0.0,0.0,0.0,0.0,0.0,0.0,0.0,0.0,3.3538,3.4583,3.7603,3.962,4.0624,4.2344,4.4288,4.6361,4.5671,4.6183,4.7643,4.6146,0.0,3.6264,3.5043,0.0,0.0,0.0,0.0,0.0,0.0,0.0,0.0,0.0,0.0,0.0,0.0,0.0,0.0,0.0,0.0,0.0,0.0,0.0,0.0,0.0,0.0,4.9744,5.1292,5.1882,5.1581,0.0,4.3348,3.7532,3.6381,3.4945,0.0,0.0,0.0,0.0,0.0,0.0,0.0,5.443,5.9201,6.2096,6.2096,6.2685,6.253,6.1264,6.0317,5.8824,5.655,5.3986,5.0476,4.5797,4.2423,0.0,0.0,0.0,0.0,0.0,0.0,0.0,0.0,0.0,0.0,0.0,0.0,0.0,0.0,0.0,0.0,0.0,0.0,0.0,0.0,0.0,0.0,0.0,0.0,0.0,0.0,0.0,0.0,0.0,2.3651,2.6093,2.7435,2.5896,2.438,0.0,0.0,0.0,0.0,0.0,0.0,0.0,0.0,0.0,3.6648,3.847,4.016,4.1679,4.3565,4.5123,4.6402,4.7242,4.8404,4.9731,4.9379,4.9597,5.0204,4.9851,4.7356,4.3379,4.0684,3.7848,3.5044,0.0,0.0,0.0,0.0,3.4166,3.5069,3.6841,3.7079,3.6413,3.5401,0.0,0.0,0.0,0.0,0.0,0.0,0.0,4.2451,0.0,0.0,5.296,5.4905,5.5683,5.5847,5.5422,5.2233,4.8096,0.0,4.1753,3.9815,3.6149,0.0,0.0,0.0,0.0,5.3764,5.7658,6.1366,6.3632,6.3632,6.3937,6.37,6.2651,6.1839,6.0772,5.9256,5.6062,5.3216,5.0985,4.5813,4.1294,0.0,0.0,0.0,0.0,0.0,0.0,0.0,0.0,0.0,0.0,0.0,0.0,0.0,0.0,0.0,0.0,0.0,0.0,0.0,0.0,0.0,0.0,0.0,0.0,0.0,0.0,0.0,0.0,2.6213,2.7799,2.8949,2.7919,2.6915,0.0,0.0,0.0,0.0,0.0,0.0,3.5003,3.7903,4.0467,4.2507,4.4279,4.6041,4.7829,4.8529,4.9473,5.0692,5.0861,5.1251,5.1776,5.1776,5.1776,5.1776,5.1776,5.1127,4.9692,4.5668,4.3004,4.1242,3.9192,3.8632,3.905,3.9722,4.0504,4.1562,4.3751,4.4171,4.359,4.2602,4.1934,4.1169,3.9156,0.0,0.0,0.0,0.0,4.7038,5.0427,5.3213,5.5649,5.7509,5.849,5.905,5.905,5.8915,5.6948,0.0,4.8918,4.7005,4.2754,0.0,0.0,4.7387,5.2667,5.7666,6.0598,6.326,6.4816,6.4613,6.4783,6.458,6.3849,6.3294,6.255,6.1637,5.7941,5.5515,5.5002,4.923,4.4915,4.2451,0.0,0.0,0.0,0.0,0.0,0.0,0.0,0.0,0.0,0.0,0.0,0.0,0.0,0.0,0.0,0.0,0.0,0.0,0.0,0.0,0.0,0.0,0.0,0.0,0.0,0.0,0.0,0.0,0.0,3.3125,3.2033,0.0,0.0,0.0,0.0,3.3664,3.6422,3.89,4.0858,4.3776,4.6297,4.8332,4.9286,5.0157,5.0984,5.1693,5.2098,5.2198,5.2976,5.3348,5.3382,5.3382,5.3382,5.3382,5.3382,5.3349,5.3028,4.9792,4.6814,4.4284,4.4155,4.3719,4.3266,4.3945,4.4976,4.6161,4.693,4.717,4.7137,4.7073,4.5846,4.4594,4.5715,4.5752,0.0,0.0,5.1777,5.3687,5.6664,5.8592,5.9979,6.0858,6.1637,6.2164,6.2164,6.1603,6.0366,0.0,5.6548,5.561,5.4897,0.0,5.445,5.684,5.8149,5.9922,6.2936,6.4681,6.5378,6.4681,6.5222,6.5358,6.4613,6.4512,6.3869,6.2434,6.0029,5.7748,5.5719,5.2563,4.9045,4.5185,4.309,0.0,0.0,0.0,0.0,0.0,0.0,0.0,0.0,0.0,0.0,0.0,0.0,0.0,0.0,0.0,0.0,0.0,0.0,0.0,0.0,0.0,0.0,0.0,0.0,0.0,0.0,0.0,0.0,3.5568,3.5748,0.0,3.5975,3.6635,3.7711,3.9347,4.2621,4.4989,4.611,4.8576,5.0321,5.1044,5.2336,5.3112,5.3382,5.4126,5.4481,5.4481,5.4786,5.4921,5.4921,5.4921,5.4921,5.4921,5.4921,5.4921,5.4854,5.4259,5.2536,5.0276,5.0276,5.0443,5.066,5.091,5.1592,5.2406,5.2655,5.2755,5.2755,5.2755,5.2622,5.2696,5.3691,5.4269,5.4822,5.6028,5.7102,5.8153,5.9081,6.0419,6.1772,6.253,6.3294,6.3802,6.3802,6.3971,6.3869,6.3077,6.1113,5.9026,5.7387,5.9208,6.0673,6.0159,6.2753,6.5324,6.6914,6.7117,6.7015,6.6745,6.6542,6.6102,6.5358,6.529,6.4681,6.3193,6.0454,5.8325,5.7086,5.3691,5.099,4.9112,4.76,4.3328,0.0,0.0,0.0,0.0,0.0,0.0,0.0,0.0,0.0,0.0,0.0,0.0,0.0,0.0,0.0,0.0,0.0,0.0,0.0,0.0,0.0,0.0,0.0,0.0,0.0,3.3934,3.6802,3.8252,3.9339,4.0089,4.0453,4.199,4.3508,4.4876,4.7716,4.979,5.0739,5.2512,5.3736,5.4261,5.5278,5.5794,5.5794,5.6294,5.6519,5.6519,5.6519,5.6673,5.693,5.693,5.7085,5.7342,5.7342,5.7342,5.741,5.8191,5.7623,5.6188,5.5398,5.5381,5.5794,5.5794,5.6122,5.6604,5.6861,5.7119,5.7342,5.7342,5.7878,5.8606,5.9163,6.0086,6.0923,6.0849,6.1359,6.1882,6.1763,6.279,6.4005,6.4492,6.5392,6.6136,6.6136,6.6508,6.6867,6.6867,6.4647,6.2448,6.1434,6.3531,6.485,6.3396,6.6102,6.8301,6.8335,6.8301,6.8301,6.8301,6.7624,6.6981,6.6474,6.5527,6.445,6.334,6.025,5.8198,5.7571,5.3667,5.1229,5.0571,4.8858,4.4721,3.8148,0.0,0.0,0.0,0.0,0.0,0.0,0.0,0.0,0.0,0.0,0.0,0.0,0.0,0.0,0.0,0.0,0.0,0.0,0.0,0.0,0.0,0.0,0.0,3.5115,3.7575,3.9953,4.1437,4.2798,4.3991,4.4942,4.6885,4.869,5.0182,5.1603,5.3128,5.4715,5.5494,5.6582,5.8169,5.8255,5.8255,5.8255,5.8326,5.8326,5.8326,5.8326,5.8745,5.952,5.952,5.9926,6.0681,6.0681,6.0666,6.0707,6.1452,6.1787,6.1594,5.9242,5.8326,5.8326,5.8326,5.8326,5.8447,5.9221,6.0012,6.0666,6.0686,6.1204,6.1823,6.1858,6.2959,6.4147,6.415,6.4582,6.5027,6.506,6.5916,6.6854,6.6922,6.8052,6.9113,6.9113,6.9113,6.9147,6.9147,6.7354,6.6271,6.7692,6.7354,6.6893,6.6893,6.8199,0.0,6.7129,6.8233,6.9113,6.9045,6.8301,6.7827,6.7793,6.5147,6.3293,6.2869,5.965,5.7566,5.7063,5.2751,5.0069,4.9426,4.6762,4.4098,4.1523,0.0,0.0,0.0,0.0,0.0,0.0,0.0,0.0,0.0,0.0,0.0,0.0,0.0,0.0,0.0,0.0,0.0,0.0,0.0,0.0,0.0,3.8126,4.033,3.9696,4.2037,4.4564,4.6536,4.7666,4.8783,5.0198,5.1325,5.2593,5.4113,5.5088,5.6089,5.7187,5.7434,5.775,5.8184,5.9283,5.9871,5.9871,6.0985,6.1532,6.1532,6.1532,6.1639,6.1867,6.1867,6.1974,6.2202,6.2202,6.2202,6.2269,6.3048,6.3716,6.4067,6.2225,6.1532,6.1532,6.1532,6.1532,6.1568,6.1781,6.2009,6.2308,6.2876,6.3586,6.445,6.5667,6.6763,6.755,6.7487,6.7609,6.7857,6.8311,6.8138,6.8102,6.9279,6.9326,6.9113,6.9113,6.9519,6.9891,6.9891,6.9383,6.891,6.8808,6.9045,6.9248,6.9248,7.0094,7.0545,7.0106,6.9958,6.9248,6.7603,6.6745,6.6068,6.5561,6.3914,6.3097,6.3507,6.0976,5.8906,5.7773,5.5692,5.3797,5.2151,4.8596,4.5933,0.0,0.0,0.0,0.0,0.0,0.0,0.0,0.0,0.0,0.0,0.0,0.0,0.0,0.0,0.0,0.0,0.0,0.0,0.0,0.0,0.0,0.0,4.3375,4.5712,4.6777,4.756,4.8668,5.0546,5.1492,5.2468,5.3655,5.4469,5.5291,5.6177,5.7,5.796,5.9109,5.9495,5.9974,6.0641,6.1852,6.2522,6.2522,6.3387,6.3855,6.3855,6.4179,6.4518,6.4857,6.5217,6.5542,6.5845,6.5845,6.5845,6.5875,6.6373,6.6836,6.7026,0.0,0.0,0.0,0.0,6.5073,6.5361,6.5361,6.5578,6.5953,6.6385,6.6865,6.7505,6.8815,6.9762,7.0452,7.0761,7.0796,7.0754,7.0753,7.0211,6.9822,7.0306,7.0221,7.0026,7.0026,7.0364,7.0669,7.0669,7.0669,0.0,7.0094,7.0128,7.0116,6.9789,7.0635,7.1086,7.0466,7.0534,7.0161,6.882,6.803,6.7409,6.6981,6.4582,0.0,0.0,0.0,5.8184,5.6097,5.5304,0.0,0.0,0.0,0.0,0.0,0.0,0.0,0.0,4.0732,3.9736,0.0,0.0,0.0,0.0,0.0,0.0,0.0,0.0,0.0,0.0,0.0,0.0,0.0,0.0,0.0,0.0,4.8306,5.0823,5.4246,5.3113,5.237,5.3594,5.44,5.5156,5.5921,5.6695,5.7249,5.742,5.8217,5.9351,6.0851,6.1652,0.0,0.0,0.0,6.5435,6.5435,6.5508,6.5618,6.5692,6.6439,6.7173,6.7994,6.8715,6.9412,7.011,7.011,7.011,7.011,7.011,7.011,6.9816,6.6953,6.6696,6.7958,6.7958,6.8421,6.9032,6.9032,0.0,0.0,7.033,7.044,7.066,7.1454,7.2188,7.2936,7.3634,7.3759,7.3461,7.2531,7.2098,7.1641,7.0711,7.0893,7.1289,7.1289,7.1289,7.1289,7.1289,7.1289,7.1289,7.1289,7.077,7.0094,6.9451,7.0466,7.0816,6.9519,7.05,7.1188,7.0917,0.0,0.0,6.9823,6.6013,6.3766,6.4207,6.0308,5.6774,5.4116,5.3917,5.3294,5.2103,5.2073,5.2695,5.3887,5.3887,5.4162,5.456,4.6876,4.4436,0.0,0.0,0.0,0.0,0.0,0.0,0.0,0.0,0.0,0.0,0.0,0.0,0.0,0.0,0.0,5.0471,5.2471,5.3979,5.5306,5.5678,5.566,5.5334,5.5985,5.6751,5.7541,5.8376,5.9338,6.061,6.145,6.2341,6.3361,6.4166,6.4768,6.5068,6.5852,6.6256,6.6256,6.6916,6.754,6.8187,6.8348,0.0,6.9633,6.9779,6.9963,7.011,7.011,7.011,7.011,7.011,7.011,7.0036,6.9412,6.9339,6.9633,6.9633,6.9743,6.9853,6.9853,7.0403,7.116,7.1835,7.2459,7.3156,7.3949,7.4316,0.0,7.461,7.4652,7.4566,7.4185,7.3457,7.273,7.2389,7.1793,7.1289,7.1289,7.1289,7.1289,7.1289,7.1289,7.1289,7.1289,7.1176,7.1041,7.0883,7.112,7.1188,7.0917,7.112,7.0579,6.8741,6.8436,6.8098,6.7523,6.4695,6.3533,6.4821,6.1575,5.9372,5.8797,5.8231,5.7842,5.7573,5.7573,5.7693,5.7962,5.7962,5.8022,5.8055,5.4339,5.3391,0.0,0.0,0.0,0.0,0.0,0.0,0.0,0.0,0.0,0.0,0.0,4.0201,4.4147,0.0,5.0616,5.3621,5.502,5.6138,5.7293,5.782,5.7746,5.698,5.7581,5.8368,5.9184,5.9987,6.0746,6.1545,6.2732,6.3649,6.4066,6.5228,6.5888,6.5888,6.6659,6.7283,6.7687,6.8091,6.8715,6.9522,6.9912,7.0316,7.0697,7.1138,7.1284,7.1284,7.1284,7.1284,7.1284,7.1284,7.1284,7.1321,7.1725,7.1394,7.0807,7.1615,7.1908,7.1945,7.2349,7.2775,7.3179,7.3582,7.3964,7.4441,7.5249,7.5506,7.5564,7.6004,7.575,7.5208,7.4617,7.3725,7.2784,7.2176,7.1666,7.1289,7.1289,7.1289,7.1289,7.1289,7.1289,7.1289,7.1289,7.1289,7.1289,7.1289,7.1289,7.1289,7.1289,7.1289,7.085,6.9722,6.962,6.9451,6.9057,6.6573,6.4615,6.3645,6.2026,6.0954,6.0625,6.0296,6.0116,6.0116,6.0116,6.0116,6.0116,6.0116,6.0116,6.0086,5.9099,5.862,0.0,0.0,0.0,0.0,0.0,0.0,0.0,3.3206,3.6341,3.9642,4.3009,4.6366,4.9565,5.1861,5.3918,5.5896,5.6839,5.7763,5.9015,5.9343,5.9262,5.8823,5.9298,5.9967,6.0774,6.1594,6.2157,6.2291,6.3686,6.458,6.458,6.5925,6.6806,6.6953,6.759,6.8311,6.9119,6.9119,6.9559,7.033,7.0977,7.138,7.1564,7.2202,7.2496,7.2496,7.2496,7.2496,7.2496,7.2679,7.2716,7.2826,7.3634,7.3156,7.2151,7.345,7.3927,7.4037,7.4683,7.5014,7.5124,7.5124,7.5234,7.5491,7.613,7.635,7.646,7.7105,7.6579,7.5562,7.4554,7.3571,7.254,7.1546,7.1289,7.1289,7.1289,7.1289,7.1289,7.1289,7.1289,7.1289,7.1289,7.1289,7.1289,7.1289,7.1289,7.1289,7.1289,7.1289,7.1289,7.1289,7.1289,7.1075,7.0528,6.8206,6.5509,6.2472,6.2301,6.2061,6.1523,6.1493,6.1493,6.1493,6.1493,6.1493,6.1493,6.1493,6.1493,6.1493,6.2151,6.1762,2.9689,2.9345,2.9931,3.1543,3.318,3.5497,0.0,4.1639,4.3337,4.616,4.9206,5.1872,5.3652,5.5255,5.6614,5.7599,5.8442,5.9003,5.9184,5.982,6.0505,6.1141,6.1264,6.1667,6.2462,6.3319,6.4127,6.4811,6.5705,6.6219,6.6219,6.7076,6.7871,6.8605,6.8715,6.9155,6.9963,6.9963,7.0367,7.116,7.127,7.1674,7.2386,7.2459,7.2496,7.2496,7.2496,7.2496,7.2569,7.3266,7.356,7.3634,7.4441,7.4647,7.45,7.4683,7.4757,7.4793,7.4867,7.538,7.5983,7.5983,7.6445,7.7069,7.7142,7.7179,7.7179,7.7289,7.6579,7.5562,7.4554,7.3571,7.254,7.1546,7.1289,7.1289,7.1289,7.1289,7.1289,7.1289,7.1289,7.1289,7.1289,7.1289,7.1289,7.1289,7.1289,7.1289,7.1289,7.1289,7.1289,7.1289,7.1289,7.032,6.7881,6.6233,6.4645,6.3074,6.2988,6.2958,6.2898,6.2898,6.2898,6.2898,6.2898,6.2898,6.2898,6.2898,6.2898,6.2898,6.3498,6.3109,3.4302,3.5345,3.6724,3.8054,4.0187,4.2563,4.5016,4.7204,4.9292,5.1329,5.3423,5.527,5.6378,5.7077,5.7776,5.8572,5.8976,5.9526,6.0456,6.0896,6.141,6.2218,6.2732,6.3172,6.3503,6.431,6.4934,6.5251,6.6035,6.6696,6.7187,6.7944,6.8752,6.9559,6.9596,7.0,7.0793,7.0807,7.1197,7.2004,7.2004,7.2165,7.2496,7.2496,7.2753,7.3193,7.3193,7.345,7.3913,7.4258,7.4404,7.4478,7.5285,7.5616,7.5616,7.5616,7.5616,7.5689,7.6114,7.6518,7.6812,7.6812,7.7032,7.7289,7.7289,7.6872,7.6412,7.6412,7.5263,7.3966,7.3552,7.2686,7.1808,7.1424,7.1289,7.1289,7.1289,7.1289,7.1289,7.1289,7.1289,7.1289,7.1289,7.1289,7.1289,7.1289,7.1289,7.1289,7.1289,7.1289,7.1289,7.1289,7.1289,7.0505,6.8528,6.7113,6.5728,6.4346,6.4265,6.4265,6.4265,6.506,6.549,6.549,6.549,6.5677,6.611,6.5263,6.5056,6.5452,6.4865,6.4306,3.8053,4.0271,4.251,4.3369,4.6096,4.871,4.9361,5.1587,5.3862,5.499,5.6218,5.7299,5.7886,5.7997,5.8253,5.9086,5.938,6.0003,6.141,6.1777,6.2144,6.2719,6.3576,6.4213,6.442,6.5154,6.5742,6.5962,6.6696,6.743,6.7981,6.8788,6.9596,7.0403,7.044,7.0807,7.1637,7.1637,7.1931,7.2496,7.2496,7.2496,7.2496,7.2716,7.3266,7.4037,7.4037,7.4368,7.4903,7.5124,7.5234,7.5307,7.6114,7.6423,7.6423,7.6423,7.6423,7.6533,7.7105,7.7289,7.7289,7.7289,7.7289,7.7243,7.6972,7.6363,7.5735,7.5475,7.4139,7.2797,7.2797,7.2056,7.1289,7.1289,7.1289,7.1289,7.1289,7.1289,7.1289,7.1289,7.1289,7.1289,7.1289,7.1289,7.1289,7.1289,7.1289,7.1289,7.1289,7.1289,7.1289,7.1289,7.0961,7.0309,6.9289,6.7949,6.6846,6.6036,6.5987,6.6076,6.6264,6.7276,6.7792,6.7792,6.7792,6.8048,6.8586,6.7124,6.6688,6.7153,6.5883,6.5263,3.9937,4.2592,4.549,4.6409,4.9944,5.3183,5.3231,5.502,5.6678,5.6715,5.7398,5.796,5.7997,5.7997,5.8253,5.9086,5.9857,6.0639,6.1484,6.2291,6.2756,6.2793,6.3576,6.442,6.5178,6.5999,6.6769,6.759,6.8385,6.8848,6.8862,6.9633,7.044,7.1233,7.127,7.1637,7.2459,7.2459,7.2496,7.2496,7.2496,7.2496,7.2532,7.3303,7.4111,7.4867,7.4867,7.4867,7.494,7.5726,7.6056,7.613,7.6959,7.7252,7.7252,7.7252,7.7252,7.7289,7.7289,7.7289,7.7289,7.7289,7.7289,7.7134,7.6128,7.5804,7.5597,7.461,7.3611,7.2797,7.2797,7.2056,7.1289,7.1289,7.1289,7.1289,7.1289,7.1289,7.1289,7.1289,7.1289,7.1289,7.1289,7.1289,7.1289,7.1289,7.1289,7.1289,7.1289,7.1289,7.1289,7.1289,7.0066,6.9241,6.9217,6.7949,6.751,6.8156,6.822,6.8534,6.9259,6.9317,6.9344,6.9344,6.9344,6.9344,6.9376,6.7896,6.7178,6.7181,6.6337,6.5981,4.3572,4.6743,5.0295,5.1656,5.3832,5.5791,5.6339,5.7063,5.7593,5.7593,5.7813,5.7997,5.7997,5.7997,5.8437,5.9783,6.0224,6.086,6.2218,6.2646,6.2793,6.2793,6.3576,6.442,6.5215,6.6035,6.6843,6.7627,6.8458,6.9119,6.9669,7.0477,7.127,7.2078,7.2078,7.2239,7.2496,7.2496,7.2496,7.2496,7.3046,7.3597,7.4096,7.4368,7.4955,7.5689,7.5689,7.6004,7.6518,7.6775,7.6885,7.6922,7.7179,7.7289,7.7289,7.7289,7.7289,7.7289,7.7289,7.7289,7.7289,7.7289,7.7289,7.7097,7.6094,7.5352,7.4591,7.3611,7.2582,7.1786,7.1786,7.1568,7.1289,7.1289,7.1289,7.1289,7.1289,7.1289,7.1289,7.1289,7.1289,7.1289,7.1289,7.1289,7.1289,7.1289,7.1289,7.1289,7.1289,7.1289,7.1289,7.1289,7.132,7.1301,7.1301,7.055,7.0169,7.0398,7.0431,7.0529,7.0783,7.1639,7.2111,7.2111,7.2111,7.187,7.1392,6.9948,6.9008,6.852,6.7699,6.7329,4.7556,5.0413,5.3411,5.4988,5.6314,5.7373,5.7886,5.7997,5.7997,5.7997,5.7776,5.7666,5.796,5.7997,5.8621,6.0529,6.108,6.1728,6.3099,6.3282,6.3282,6.3282,6.3759,6.453,6.5632,6.6219,6.6843,6.7627,6.8715,6.9559,7.0073,7.1138,7.1967,7.2496,7.2496,7.2496,7.2496,7.2496,7.2642,7.2936,7.3744,7.4551,7.5322,7.5322,7.5763,7.6518,7.6518,7.6812,7.7289,7.7289,7.7289,7.7289,7.7289,7.7289,7.7289,7.7289,7.7289,7.7289,7.7289,7.7289,7.7289,7.7289,7.7289,7.7097,7.6094,7.5369,7.4628,7.3631,7.2603,7.183,7.183,7.159,7.1289,7.1289,7.1289,7.1289,7.1289,7.1289,7.1289,7.1289,7.1289,7.1391,7.165,7.1921,7.1988,7.1729,7.1921,7.1988,7.1751,7.1921,7.209,7.209,7.2496,7.28,7.28,7.2438,7.235,7.2592,7.2592,7.275,7.2983,7.382,7.4312,7.4312,7.4312,7.3783,7.2816,7.1384,7.0299,6.9544,6.8485,6.8137,5.1586,5.3462,5.495,5.648,5.7446,5.7997,5.7997,5.7997,5.796,5.7886,5.7262,5.6969,5.7629,5.785,5.8694,6.1043,6.2181,6.3062,6.3992,6.4103,6.4139,6.4176,6.4176,6.4787,6.6329,6.6549,6.688,6.77,6.9192,7.011,7.011,7.1615,7.2496,7.2496,7.2496,7.2496,7.2496,7.2532,7.2973,7.3817,7.4588,7.538,7.6166,7.6166,7.6592,7.7289,7.7289,7.7289,7.7289,7.7289,7.7289,7.7289,7.7289,7.7289,7.7289,7.7289,7.7289,7.7289,7.7289,7.7289,7.7289,7.7289,7.7289,7.7097,7.6094,7.5787,7.5597,7.4572,7.3631,7.288,7.288,7.2142,7.1379,7.1379,7.1334,7.1289,7.1289,7.1289,7.1289,7.1357,7.1391,7.1594,7.2293,7.3003,7.3263,7.2563,7.3071,7.3274,7.2563,7.3094,7.35,7.35,7.3534,7.3567,7.3567,7.3601,7.3916,7.4627,7.4661,7.4965,7.5676,7.5709,7.5709,7.5709,7.5709,7.4966,7.3562,7.2127,7.1003,7.0109,6.8727,6.8466,5.3482,5.5448,5.7189,5.7593,5.785,5.7997,5.7997,5.7997,5.7666,5.6466,5.6062,5.5611,5.462,5.5893,5.7519,5.8731,6.0603,6.2401,6.3882,6.4103,6.4323,6.4934,6.5007,6.5411,6.6402,6.7026,6.7737,6.8531,6.9522,7.011,7.011,7.1615,7.2496,7.2496,7.2496,7.2496,7.2496,7.3083,7.4111,7.5506,7.5689,7.624,7.6995,7.6995,7.7105,7.7289,7.7289,7.7289,7.7289,7.7289,7.7289,7.7289,7.7289,7.7289,7.7289,7.7289,7.7289,7.7289,7.7289,7.7289,7.7289,7.7289,7.7289,7.7097,7.6094,7.5787,7.5597,7.4572,7.4101,7.3908,7.3908,7.3151,7.2427,7.2427,7.1851,7.1289,7.1289,7.1289,7.1458,7.2022,7.2563,7.28,7.2462,7.3003,7.3466,7.3263,7.3849,7.4052,7.3308,7.3375,7.35,7.35,7.3984,7.4322,7.4322,7.483,7.5202,7.5405,7.5439,7.5506,7.5676,7.5709,7.5709,7.5709,7.5709,7.4697,7.2708,7.2325,7.1159,6.9329,6.9434,6.9604,5.5574,5.6969,5.7997,5.7997,5.7997,5.7813,5.7116,5.6724,5.6023,5.4356,5.3785,5.3405,5.2779,5.4939,5.7178,5.8327,6.086,6.3148,6.442,6.464,6.4934,6.5742,6.5852,6.6292,6.743,6.7944,6.8568,6.9376,7.0183,7.0624,7.0624,7.1835,7.2496,7.2496,7.2496,7.2679,7.301,7.3817,7.4845,7.6093,7.646,7.6848,7.7289,7.7289,7.7289,7.7289,7.7289,7.7289,7.7289,7.7289,7.7289,7.7289,7.7289,7.7289,7.7289,7.7289,7.7289,7.7289,7.7289,7.7289,7.7289,7.7289,7.7289,7.7196,7.6628,7.6465,7.633,7.5789,7.5299,7.4958,7.4958,7.3889,7.2797,7.2797,7.2034,7.1391,7.1695,7.1785,7.1988,7.2732,7.3477,7.3747,7.3003,7.3747,7.4356,7.4018,7.4627,7.4931,7.4525,7.4458,7.4458,7.4458,7.483,7.51,7.51,7.5473,7.5709,7.5709,7.5709,7.5709,7.5709,7.5709,7.5879,7.6217,7.6217,7.5146,7.2892,7.2892,7.1706,6.9453,6.9812,7.0141,5.7373,5.7997,5.7997,5.7997,5.7923,5.7435,5.5826,5.4865,5.3747,5.1849,5.0966,5.0688,5.1151,5.4026,5.6847,5.8462,6.1557,6.4127,6.5141,6.5288,6.5632,6.6549,6.6733,6.7357,6.8738,6.9068,6.9522,7.022,7.0977,7.1417,7.1307,7.2041,7.2496,7.2496,7.2606,7.3046,7.3854,7.4661,7.5454,7.6276,7.6959,7.7289,7.7289,7.7289,7.7289,7.7289,7.7289,7.7289,7.7289,7.7289,7.7289,7.7289,7.7289,7.7289,7.7289,7.7289,7.7289,7.7289,7.7289,7.7289,7.7289,7.7289,7.7289,7.7289,7.7289,7.7289,7.7289,7.7289,7.666,7.5993,7.5993,7.461,7.3151,7.3044,7.2318,7.1762,7.2282,7.2563,7.2834,7.3398,7.4153,7.4525,7.3747,7.4796,7.5473,7.4864,7.5303,7.5709,7.5709,7.5709,7.5709,7.5709,7.5709,7.5709,7.5709,7.5709,7.5709,7.5709,7.5709,7.5743,7.5845,7.5845,7.6217,7.7029,7.7063,7.5911,7.3656,7.3656,7.2424,7.0111,7.0111,7.038,5.7519,5.7997,5.7997,5.7997,5.7483,5.6635,5.5123,5.3687,5.1895,4.9101,4.8302,4.7936,4.7404,5.0863,5.4352,5.5952,5.9477,6.2805,6.4995,6.5288,6.5852,6.7333,6.8091,6.8591,6.8848,7.0096,7.094,7.1087,7.1821,7.2004,7.1344,7.2041,7.2496,7.2496,7.3156,7.3891,7.4683,7.5506,7.6313,7.7105,7.7252,7.7289,7.7289,7.7289,7.7289,7.7289,7.7289,7.7289,7.7289,7.7289,7.7289,7.7289,7.7289,7.7289,7.7289,7.7289,7.7289,7.7289,7.7289,7.7289,7.7289,7.7289,7.7289,7.7289,7.7289,7.7289,7.7289,7.7289,7.7181,7.7035,7.7035,7.6144,7.5066,7.4234,7.374,7.3284,7.2531,7.3375,7.4086,7.3601,7.4593,7.527,7.4559,7.5134,7.5676,7.554,7.5608,7.5709,7.5709,7.5709,7.5709,7.5709,7.5709,7.5709,7.5709,7.5709,7.5709,7.5709,7.5709,7.598,7.6657,7.669,7.7029,7.7773,7.7807,7.6675,7.4307,7.4307,7.3084,7.0739,7.0739,7.0799,5.6932,5.7373,5.7373,5.7373,5.6812,5.5545,5.2794,5.1023,4.9121,4.5951,4.5289,4.5388,4.5611,4.9215,5.2762,5.466,5.8364,6.1851,6.4347,6.5044,6.5888,6.7517,6.8421,6.9082,6.9486,7.061,7.1454,7.1894,7.2275,7.2349,7.1931,7.2312,7.2679,7.312,7.3487,7.4294,7.5506,7.5909,7.6481,7.7289,7.7289,7.7289,7.7289,7.7289,7.7289,7.7289,7.7289,7.7289,7.7289,7.7289,7.7289,7.7289,7.7289,7.7289,7.7289,7.7289,7.7289,7.7289,7.7289,7.7289,7.7289,7.7289,7.7289,7.7289,7.7289,7.7289,7.7289,7.7289,7.7289,7.7289,7.7289,7.6181,7.4885,7.4404,7.3995,7.3671,7.3558,7.439,7.5067,7.4695,7.5202,7.5574,7.5236,7.5473,7.5709,7.5709,7.5709,7.5709,7.5709,7.5709,7.5709,7.5709,7.5709,7.5709,7.5709,7.5709,7.5879,7.6284,7.6318,7.6657,7.7435,7.7468,7.7807,7.8551,7.8585,7.781,7.6256,7.547,7.4033,7.2079,7.1279,7.0889,5.6161,5.6528,5.6528,5.6528,5.5908,5.4291,5.0562,4.8502,4.6512,4.3278,4.2707,4.3232,4.4631,4.7886,5.1201,5.3957,5.7336,6.0676,6.3699,6.464,6.5778,6.7724,6.8678,6.9486,7.0293,7.1087,7.1821,7.2459,7.2496,7.2496,7.2496,7.2496,7.2863,7.3685,7.3854,7.4661,7.6093,7.6276,7.6665,7.7289,7.7289,7.7289,7.7289,7.7289,7.7289,7.7289,7.7289,7.7289,7.7289,7.7289,7.7289,7.7289,7.7289,7.7289,7.7289,7.7289,7.7289,7.7289,7.7289,7.7289,7.7289,7.7289,7.7289,7.7289,7.7289,7.7289,7.7289,7.7289,7.7289,7.7289,7.7289,7.6087,7.4817,7.4713,7.4205,7.3916,7.4695,7.5303,7.5709,7.5709,7.5709,7.5709,7.5709,7.5709,7.5709,7.5709,7.5709,7.5709,7.5709,7.5709,7.5709,7.5709,7.5709,7.5777,7.5946,7.5946,7.6284,7.7096,7.713,7.7468,7.8213,7.8247,7.8585,7.9329,7.9363,7.8847,7.7882,7.6351,7.4792,7.3169,7.1633,7.0889,5.5475,5.5695,5.5695,5.5695,5.4596,5.275,4.9757,4.738,4.4979,4.198,4.1241,4.1777,4.3897,4.6237,4.9255,5.3663,5.5941,5.8767,6.3442,6.4176,6.5338,6.8421,6.9486,7.0293,7.1123,7.1931,7.2422,7.2496,7.2496,7.2496,7.2496,7.2496,7.2863,7.3685,7.4404,7.5197,7.6093,7.6812,7.7252,7.7289,7.7289,7.7289,7.7289,7.7289,7.7289,7.7289,7.7289,7.7289,7.7289,7.7289,7.7289,7.7289,7.7289,7.7289,7.7289,7.7289,7.7289,7.7289,7.7289,7.7289,7.7289,7.7289,7.7289,7.7289,7.7289,7.7289,7.7289,7.7289,7.7289,7.7289,7.7289,7.6974,7.6534,7.607,7.5172,7.4695,7.5439,7.5642,7.5709,7.5709,7.5709,7.5709,7.5709,7.5709,7.5709,7.5709,7.5709,7.5709,7.5709,7.5709,7.5709,7.5709,7.5709,7.598,7.6724,7.6792,7.7096,7.7841,7.7899,7.8213,7.8991,7.9,7.9363,8.0073,8.0107,7.9376,7.7882,7.6351,7.4792,7.323,7.1633,7.0889,5.452,5.4876,5.4763,5.4341,5.3111,5.1133,4.7709,4.5572,4.3541,4.1044,4.0483,4.1042,4.3081,4.4602,4.7169,5.2155,5.4326,5.6895,6.1263,6.2695,6.4347,6.7136,6.8605,6.9889,7.116,7.2041,7.2496,7.2496,7.2496,7.2496,7.2496,7.2973,7.3597,7.4404,7.5212,7.6004,7.6812,7.7142,7.7289,7.7289,7.7289,7.7289,7.7289,7.7289,7.7289,7.7289,7.7289,7.7289,7.7289,7.7289,7.7289,7.7289,7.7289,7.7289,7.7289,7.7289,7.7289,7.7289,7.7289,7.7289,7.7289,7.7289,7.7289,7.7289,7.7289,7.7289,7.7289,7.7289,7.7289,7.7436,7.7949,7.7417,7.6611,7.6244,7.5367,7.4796,7.554,7.5709,7.5709,7.5709,7.5709,7.5709,7.5709,7.5709,7.5709,7.5709,7.5709,7.5709,7.5709,7.5709,7.5709,7.5709,7.5709,7.6014,7.6826,7.6893,7.7401,7.8585,7.8653,7.8991,7.9735,7.9769,7.9904,8.0175,8.0209,7.9921,7.9288,7.7746,7.6692,7.601,7.3536,7.233,5.3628,5.4069,5.3829,5.2854,5.156,4.9606,4.6089,4.3978,4.2239,4.0485,3.9943,4.0431,4.2613,4.3658,4.5845,5.0832,5.2795,5.517,5.9453,6.115,6.2892,6.5474,6.7242,6.8856,7.0431,7.1747,7.2496,7.2496,7.2496,7.2606,7.2826,7.3634,7.4331,7.4867,7.5689,7.6497,7.7289,7.7289,7.7289,7.7289,7.7289,7.7289,7.7289,7.7289,7.7289,7.7289,7.7289,7.7289,7.7289,7.7289,7.7289,7.7289,7.7289,7.7289,7.7289,7.7289,7.7289,7.7289,7.7289,7.7289,7.7289,7.7289,7.7289,7.7289,7.7289,7.7289,7.7289,7.7289,7.7509,7.7851,7.8638,7.7919,7.6865,7.6576,7.5698,7.5067,7.5574,7.5709,7.5709,7.5709,7.5709,7.5709,7.5709,7.5709,7.5709,7.5709,7.5709,7.5709,7.5709,7.5709,7.5777,7.6014,7.6048,7.6352,7.7164,7.7435,7.8111,7.9363,7.9431,7.9667,8.0175,8.0209,8.0209,8.0209,8.0209,8.0209,8.0209,7.867,7.7882,7.7828,7.4765,7.3046,5.2774,5.3214,5.2866,5.1391,4.9972,4.8146,4.5184,4.2804,4.1001,4.0282,3.9525,3.9816,4.2507,4.3658,4.5666,5.01,5.1499,5.3702,5.8535,5.9623,6.0951,6.3798,6.5657,6.7287,6.88,7.1101,7.2496,7.2496,7.2496,7.2863,7.3648,7.4441,7.4903,7.4903,7.5689,7.6497,7.7289,7.7289,7.7289,7.7289,7.7289,7.7289,7.7289,7.7289,7.7289,7.7289,7.7289,7.7289,7.7289,7.7289,7.7289,7.7289,7.7289,7.7289,7.7289,7.7289,7.7289,7.7289,7.7289,7.7289,7.7289,7.7289,7.7289,7.7289,7.7289,7.7289,7.7289,7.7289,7.7913,7.873,7.9246,7.8569,7.7707,7.7368,7.6485,7.5676,7.5709,7.5709,7.5709,7.5709,7.5709,7.5709,7.5709,7.5709,7.5709,7.5709,7.5709,7.5709,7.5709,7.5709,7.6014,7.6792,7.6893,7.7198,7.7933,7.8653,7.9397,8.0141,8.0175,8.0175,8.0209,8.0209,8.0209,8.0209,8.0209,8.0209,8.0209,7.867,7.7882,7.7828,7.4765,7.2455,4.8524,4.9375,4.9672,4.7794,4.6602,4.5264,4.2791,4.1295,4.01,3.8836,3.8802,3.9387,4.0571,4.1749,4.4217,4.9358,5.0744,5.2858,5.7703,6.0244,6.2242,6.3884,6.7489,7.0249,7.1239,7.2055,7.2496,7.2496,7.2496,7.2863,7.367,7.4478,7.516,7.5689,7.6481,7.7032,7.7289,7.7289,7.7289,7.7289,7.7289,7.7289,7.7289,7.7289,7.7289,7.7289,7.7289,7.7289,7.7289,7.7289,7.7289,7.7289,7.7289,7.7289,7.7289,7.7289,7.7289,7.7289,7.7289,7.7289,7.7289,7.7289,7.7289,7.7289,7.7289,7.7289,7.7436,7.8038,7.9176,8.0287,8.0449,8.0115,7.9707,7.9598,7.8161,7.6792,7.6792,7.6219,7.5709,7.5709,7.5709,7.5709,7.5709,7.5709,7.5709,7.5709,7.5709,7.5709,7.5709,7.6183,7.6623,7.686,7.7807,7.8517,7.872,7.8991,7.9431,8.0141,8.0209,8.0209,8.0209,8.0209,8.0209,8.0209,8.0209,8.0209,8.0209,7.9709,7.8372,7.6294,7.5319,7.3475,4.5554,4.703,4.7482,4.5656,4.4627,4.3516,4.1282,3.9986,3.9005,3.8091,3.8261,3.8838,3.964,4.1161,4.3618,4.7865,4.9581,5.195,5.6466,5.9541,6.2313,6.5056,6.8095,7.0464,7.1728,7.2234,7.2496,7.2496,7.2496,7.2973,7.4074,7.461,7.5417,7.6518,7.7032,7.7289,7.7289,7.7289,7.7289,7.7289,7.7289,7.7289,7.7289,7.7289,7.7289,7.7289,7.7289,7.7289,0.0,7.7289,7.7289,7.7289,7.7289,7.7289,7.7289,7.7289,7.7289,7.7289,7.7289,7.7289,7.7289,7.7289,7.7509,7.7803,7.7803,7.7803,7.8023,7.9176,8.0241,8.1085,8.1379,8.1041,8.0623,8.0623,7.9242,7.7822,7.7367,7.6769,7.6173,7.5771,7.5709,7.5709,7.5709,7.5709,7.5709,7.5709,7.5709,7.5709,7.5709,7.6149,7.6657,7.7232,7.7908,7.8619,7.9464,7.9532,7.9701,8.0175,8.0209,8.0209,8.0209,8.0209,8.0209,8.0209,8.0209,8.0209,8.0209,8.0209,7.8617,7.5608,7.5608,7.3929,0.0,4.5336,4.5729,4.4356,4.3523,4.2452,4.0352,3.8824,0.0,3.7741,3.7809,3.8304,3.9583,4.1512,4.3679,4.611,4.8273,5.1069,5.5108,5.8068,6.1795,6.7101,6.7821,6.8662,7.071,7.189,7.2496,7.2496,7.2496,7.3193,7.472,7.4867,7.5601,7.7179,7.7289,7.7289,7.7289,7.7289,7.7289,7.7289,7.7289,7.7289,7.7289,7.7289,7.7289,7.7289,7.7289,7.7289,7.7289,7.7289,7.7289,7.7289,7.7289,7.7289,7.7289,7.7289,7.7289,7.7289,7.7289,7.7289,7.7289,7.7289,7.7876,7.8589,7.8662,7.8736,7.9066,8.0571,8.1048,8.1269,8.2003,8.1457,8.0714,8.0714,7.9899,7.8801,7.765,7.738,7.6959,7.5913,7.5709,7.5709,7.5709,7.5709,7.5709,7.5709,7.5709,7.5709,7.5709,7.5811,7.642,7.7865,7.7468,7.7976,8.004,8.0141,8.0141,8.0209,8.0209,8.0209,8.0209,8.0209,8.0209,8.0209,8.0209,8.0209,8.0209,8.0209,7.8617,7.5608,7.5608,7.3929,3.5994,0.0,4.043,3.9646,3.9318,3.8896,0.0,3.7325,3.6874,3.6287,3.7099,3.8343,3.9756,4.1162,4.3445,4.7618,4.9539,5.1903,5.5941,6.0285,6.4796,6.9559,6.9752,7.0216,7.1936,7.2324,7.2496,7.2496,7.2496,7.2936,7.3927,7.4588,7.5344,7.635,7.6995,7.7289,7.7289,7.7289,7.7289,7.7289,7.7289,7.7289,7.7289,7.7289,7.7289,7.7289,7.7289,7.7289,7.7289,7.7289,7.7289,7.7289,7.7289,7.7289,7.7289,7.7289,7.7289,7.7289,7.7289,7.7289,7.7289,7.7289,7.7876,7.8699,7.9339,7.9947,8.0498,8.0901,8.1452,8.1966,8.215,8.2002,8.1799,8.1799,8.0982,7.9937,7.8842,7.7928,7.6959,7.5913,7.5709,7.5709,7.5709,7.5709,7.5709,7.5709,7.5709,7.5709,7.5709,7.6724,7.7594,7.7967,7.8855,7.9634,8.0141,7.9701,7.96,8.0175,8.0209,8.0209,8.0209,8.0209,8.0209,8.0209,8.0209,8.0209,8.0209,8.0209,7.8617,7.5608,7.5608,7.3929,3.199,3.489,3.7674,3.707,3.7178,3.7199,3.6459,3.6297,3.6093,3.53,3.683,3.8516,3.9304,4.1872,4.4822,4.7789,5.0617,5.4291,5.9603,6.3582,6.7239,7.084,7.1156,7.1451,7.2414,7.2496,7.2496,7.2496,7.2496,7.301,7.4184,7.4647,7.5417,7.6592,7.7069,7.7289,7.7289,7.7289,7.7289,7.7289,7.7289,7.7289,7.7289,7.7289,7.7289,7.7289,7.7289,7.7289,7.7289,7.7289,7.7289,7.7289,7.7289,7.7289,7.7289,7.7289,7.7289,7.7289,7.7289,7.7289,7.7289,7.7289,7.7876,7.8662,7.9119,8.0057,8.1085,8.1452,8.1856,8.2186,8.2186,8.2186,8.2186,8.2186,8.1748,8.1054,7.9975,7.8882,7.7736,7.6668,7.6043,7.5709,7.5709,7.5709,7.5709,7.5709,7.5709,7.5709,7.5709,7.6758,7.7502,7.7502,7.8517,7.9329,7.9667,7.9329,7.9431,8.0141,8.0209,8.0209,8.0209,8.0209,8.0209,8.0209,8.0209,8.0209,8.0209,8.0209,7.8617,7.5608,7.5608,7.3929,3.0247,3.3332,3.6136,3.5602,3.6115,3.6616,3.6021,3.5953,3.5876,3.5333,3.7172,3.9068,3.9769,4.3415,4.6773,4.8157,5.2232,5.7428,6.3565,6.6488,6.883,7.1174,7.1699,7.2052,7.2443,7.2496,7.2496,7.2496,7.2496,7.312,7.4463,7.4757,7.5527,7.6885,7.7179,7.7289,7.7289,7.7289,7.7289,7.7289,7.7289,7.7289,7.7289,7.7289,7.7289,7.7289,7.7289,7.7289,7.7289,7.7289,7.7289,7.7289,7.7289,7.7289,7.7289,7.7289,7.7289,7.7289,7.7289,7.7289,7.7289,7.7289,7.7876,7.8589,7.8589,7.9727,8.1158,8.1819,8.2113,8.2186,8.2186,8.2186,8.2186,8.2186,8.2186,8.1919,8.0822,7.9765,7.8679,7.752,7.6416,7.5709,7.5709,7.5709,7.5709,7.5709,7.5709,7.5709,7.5709,7.6386,7.6893,7.6893,7.7536,7.828,7.9058,7.9101,7.9431,8.0141,8.0209,8.0209,8.0209,8.0209,8.0209,8.0209,8.0209,8.0209,8.0209,8.0209,7.8617,7.5608,7.5608,7.3929,3.0773,3.2785,3.414,3.3997,3.5345,3.6695,3.6628,3.71,3.7675,3.8001,3.8891,4.0779,4.46,4.5856,4.7619,5.175,5.6205,6.0317,6.37,6.604,6.8154,7.0099,7.0394,7.097,7.2363,7.2496,7.2496,7.2496,7.2496,7.2606,7.2863,7.4169,7.5014,7.527,7.6592,7.7289,7.7289,7.7289,7.7289,7.7289,7.7289,7.7289,7.7289,7.7289,7.7289,7.7289,7.7289,7.7289,7.7289,7.7289,7.7289,7.7289,7.7289,7.7289,7.7289,7.7289,7.7289,7.7289,7.7289,7.7289,7.7289,7.7289,7.7876,7.8589,7.8589,7.9727,8.1048,8.1158,8.1672,8.2186,8.2186,8.2186,8.2186,8.2186,8.2186,8.1919,8.0822,7.9765,7.8679,7.752,7.6416,7.5709,7.5709,7.5709,7.5709,7.5709,7.5709,7.5709,7.5709,7.6386,7.6893,7.6893,7.7536,7.828,7.9058,7.9101,7.9431,8.0141,8.0209,8.0209,8.0209,8.0209,8.0209,8.0209,8.0209,8.0209,8.0209,8.0209,7.8617,7.5608,7.5608,7.3929,2.8876,3.1598,3.4189,3.5149,3.7269,3.9136,3.9149,4.0056,4.0816,4.0617,4.2062,4.4125,4.6638,4.9039,5.2368,5.7607,6.0661,6.3191,6.5504,6.7284,6.8915,7.0346,7.0948,7.1592,7.2429,7.2496,7.2496,7.2496,7.2496,7.2899,7.3729,7.4111,7.4845,7.6151,7.6481,7.6848,7.7289,7.7289,7.7289,7.7289,7.7289,7.7289,7.7289,7.7289,7.7289,7.7289,7.7289,7.7289,7.7289,7.7289,7.7289,7.7289,7.7289,7.7289,7.7289,7.7289,7.7289,7.7289,7.7289,7.7289,7.7289,7.7289,7.7582,7.7876,7.7876,7.9066,8.0351,8.0351,8.1232,8.2186,8.2186,8.2186,8.2186,8.2186,8.2186,8.2035,8.1559,8.0163,7.8842,7.8328,7.6859,7.5709,7.5709,7.5709,7.5709,7.5709,7.5709,7.5709,7.5709,7.6386,7.6724,7.6284,7.7299,7.8145,7.8483,7.8889,7.9431,8.0141,8.0209,8.0209,8.0209,8.0209,8.0209,8.0209,8.0209,8.0209,8.0209,7.9366,7.78,7.5579,7.4765,7.3107,2.8308,3.1459,3.4882,3.7392,3.9542,4.1311,4.2258,4.3212,4.3909,4.3965,4.5724,4.7611,4.8945,5.2827,5.7308,6.1922,6.3867,6.5322,6.6893,6.841,6.9716,7.0599,7.1477,7.2135,7.248,7.2496,7.2496,7.2496,7.2496,7.3046,7.428,7.3927,7.4625,7.6665,7.6313,7.6497,7.7289,7.7289,7.7289,7.7289,7.7289,7.7289,7.7289,7.7289,7.7289,7.7289,7.7289,7.7289,7.7289,7.7289,7.7289,7.7289,7.7289,7.7289,7.7289,7.7289,7.7289,7.7289,7.7289,7.7289,7.7289,7.7289,7.7289,7.7362,7.7546,7.8626,7.9853,8.0036,8.1085,8.2186,8.2186,8.2186,8.2186,8.2186,8.2186,8.2186,8.2186,8.0514,7.9003,7.9003,7.7204,7.5709,7.5709,7.5709,7.5709,7.5709,7.5709,7.5709,7.5709,7.6251,7.6386,7.5777,7.6758,7.7604,7.7967,7.8822,7.96,8.0175,8.0209,8.0209,8.0209,8.0209,8.0209,8.0209,8.0209,8.0209,8.0209,7.902,7.744,7.5579,7.4379,7.2798,3.1753,3.375,3.5633,4.0138,4.094,4.1626,4.5446,4.5773,4.6051,4.8787,4.9531,5.0526,5.339,5.724,6.0487,6.2068,6.4387,6.6112,6.6511,6.8358,6.9781,7.0128,7.0877,7.1657,7.2422,7.2496,7.2496,7.2496,7.2496,7.2569,7.2679,7.334,7.4111,7.505,7.5726,7.6497,7.7289,7.7289,7.7289,7.7289,7.7289,7.7289,7.7289,7.7289,7.7289,7.7289,7.7289,7.7289,7.7289,7.7289,7.7289,7.7289,7.7289,7.7289,7.7289,7.7289,7.7289,7.7289,7.7289,7.7289,7.7289,7.7289,7.7289,7.7436,7.8259,7.9103,7.9963,8.0718,8.1525,8.2186,8.2186,8.2186,8.2186,8.2186,8.2186,8.2186,8.2186,8.0514,7.9003,7.9003,7.7204,7.5709,7.5709,7.5709,7.5709,7.5709,7.5709,7.5709,7.5709,7.5743,7.5743,7.5709,7.5811,7.642,7.7899,7.9295,8.0141,8.0209,8.0209,8.0209,8.0209,8.0209,8.0209,8.0209,8.0209,8.0209,8.0209,8.0074,7.8538,7.5608,7.5493,7.3808,3.0544,3.3823,3.7228,4.0734,4.3518,4.594,4.8111,4.9689,5.1086,5.2414,5.3351,5.4469,5.6316,6.0194,6.3199,6.3404,6.5303,6.7071,6.7891,6.8686,6.96,7.0725,7.1123,7.1637,7.2422,7.2496,7.2496,7.2496,7.2496,7.2716,7.323,7.3046,7.378,7.5579,7.5454,7.5968,7.7289,7.7289,7.7289,7.7289,7.7289,7.7289,7.7289,7.7289,7.7289,7.7289,7.7289,7.7289,7.7289,7.7289,7.7289,7.7289,7.7289,7.7289,7.7289,7.7289,7.7289,7.7289,7.7289,7.7289,7.7289,7.7289,7.7656,7.8185,7.8516,7.9507,8.0608,8.0901,8.1562,8.2186,8.2186,8.2186,8.2186,8.2186,8.2186,8.2186,8.2186,8.0514,7.9003,7.9003,7.7204,7.5709,7.5709,7.5709,7.5709,7.5709,7.5709,7.5709,7.5709,7.5709,7.5709,7.5709,7.6149,7.669,7.7266,7.8686,7.9532,7.9532,7.9938,8.0209,8.0209,8.0209,8.0209,8.0209,8.0209,8.0209,8.0209,7.9228,7.7692,7.5579,7.4617,7.3015,3.1185,3.4841,3.8921,4.2159,4.5773,4.9048,5.1015,5.2725,5.4213,5.529,5.635,5.7593,5.9271,6.2375,6.4666,6.4709,6.6332,6.7913,6.876,6.9119,6.9765,7.1123,7.1527,7.1894,7.2459,7.2496,7.2496,7.2496,7.2496,7.2753,7.3303,7.2789,7.3487,7.5652,7.5197,7.5674,7.7289,7.7289,7.7289,7.7289,7.7289,7.7289,7.7289,7.7289,7.7289,7.7289,7.7289,7.7289,7.7289,7.7289,7.7289,7.7289,7.7289,7.7289,7.7289,7.7289,7.7289,7.7289,7.7289,7.7289,7.7289,7.7289,7.7693,7.8295,7.8809,7.9727,8.0718,8.1232,8.1782,8.2186,8.2186,8.2186,8.2186,8.2186,8.2186,8.2186,8.2186,8.0514,7.9003,7.9003,7.7204,7.5709,7.5709,7.5709,7.5709,7.5709,7.5709,7.5709,7.5709,7.5709,7.5709,7.5709,7.642,7.6893,7.6893,7.8247,7.9101,7.9101,7.9803,8.0209,8.0209,8.0209,8.0209,8.0209,8.0209,8.0209,8.0209,7.867,7.711,7.5551,7.402,7.2455,3.4624,3.731,4.0623,4.4839,4.7507,5.0152,5.4196,5.4494,5.4743,5.7493,5.8423,5.9639,6.257,6.3842,6.479,6.5829,6.7421,6.8581,6.8897,6.9596,7.0403,7.1197,7.2004,7.2496,7.2496,7.2496,7.2496,7.2496,7.2496,7.2496,7.2496,7.2496,7.3215,7.483,7.4903,7.5674,7.7289,7.7289,7.7289,7.7289,7.7289,7.7289,7.7289,7.7289,7.7289,7.7289,7.7289,7.7289,7.7289,7.7289,7.7289,7.7289,7.7289,7.7289,7.7289,7.7289,7.7289,7.7289,7.7289,7.7289,7.7289,7.7289,7.7326,7.7619,7.9286,7.9816,8.0147,8.1746,8.2186,8.2186,8.2186,8.2186,8.2186,8.2186,8.2186,8.2186,8.2186,8.0514,7.9003,7.9003,7.7204,7.5709,7.5709,7.5709,7.5709,7.5709,7.5709,7.5709,7.5709,7.5709,7.5709,7.5709,7.642,7.6893,7.6893,7.8247,7.9092,7.9092,7.9803,8.0209,8.0209,8.0209,8.0209,8.0209,8.0209,8.0209,8.0209,7.867,7.711,7.5551,7.402,7.2455,3.3318,3.7584,4.2522,4.4926,4.9884,5.4557,5.6093,5.6946,5.8151,6.0707,6.1532,6.2081,6.2992,6.4775,6.6208,6.6585,6.7666,6.8924,7.0151,7.0203,7.0624,7.1982,7.2349,7.2496,7.2496,7.2496,7.2496,7.2496,7.2496,7.2496,7.2496,7.2496,7.3215,7.483,7.4903,7.5674,7.7289,7.7289,7.7289,7.7289,7.7289,7.7289,7.7289,7.7289,7.7289,7.7289,7.7289,7.7289,7.7289,7.7289,7.7289,7.7289,7.7289,7.7289,7.7289,7.7289,7.7289,7.7289,7.7289,7.7289,7.7289,7.7289,7.7693,7.8405,7.9486,8.022,8.0865,8.1893,8.2186,8.2186,8.2186,8.2186,8.2186,8.2186,8.2186,8.2186,8.2186,8.0514,7.9003,7.9003,7.7204,7.5709,7.5709,7.5709,7.5709,7.5709,7.5709,7.5709,7.5709,7.5709,7.5709,7.5709,7.5912,7.6048,7.6048,7.7435,7.8314,7.8314,7.9498,8.0209,8.0209,8.0209,8.0209,8.0209,8.0209,8.0209,8.0209,7.9734,7.8184,7.5579,7.5115,7.3444,3.6802,4.1482,4.6461,4.8695,5.2853,5.6911,5.9041,5.9558,6.0266,6.2597,6.327,6.3687,6.4491,6.6155,6.7514,6.7826,6.8553,6.9541,7.0745,7.0631,7.094,7.2341,7.2496,7.2496,7.2496,7.2496,7.2496,7.2496,7.2496,7.2496,7.2496,7.2496,7.3215,7.483,7.4903,7.5674,7.7289,7.7289,7.7289,7.7289,7.7289,7.7289,7.7289,7.7289,7.7289,7.7289,7.7289,7.7289,7.7289,7.7289,7.7289,7.7289,7.7289,7.7289,7.7289,7.7289,7.7289,7.7289,7.7289,7.7289,7.7289,7.7289,7.7656,7.8295,7.9449,8.0147,8.0755,8.1893,8.2186,8.2186,8.2186,8.2186,8.2186,8.2186,8.2186,8.2186,8.2186,8.0514,7.9003,7.9003,7.7204,7.5709,7.5709,7.5709,7.5709,7.5709,7.5709,7.5709,7.5709,7.5709,7.5709,7.5709,7.5709,7.5709,7.5709,7.6826,7.7671,7.8,7.9092,7.9904,8.0175,8.0209,8.0209,8.0209,8.0209,8.0209,8.0209,7.8993,7.7413,7.5579,7.4318,7.2736,4.2693,4.7121,5.136,5.4372,5.6064,5.8113,6.2342,6.2138,6.1629,6.3665,6.4108,6.4745,6.6701,6.7843,6.8699,6.9332,6.9775,7.0252,7.0875,7.0884,7.125,7.2384,7.2496,7.2524,7.2596,7.2539,7.2524,7.2596,7.2524,7.2496,7.2496,7.2496,7.3215,7.483,7.4903,7.5674,7.7289,7.7289,7.7289,7.7289,7.7289,7.7289,7.7289,7.7289,7.7289,7.7289,7.7289,7.7289,7.7289,7.7289,7.7289,7.7289,7.7289,7.7289,7.7289,7.7289,7.7289,7.7289,7.7289,7.7289,7.7326,7.7399,7.7362,7.7619,7.936,7.9853,8.0147,8.1746,8.2186,8.2186,8.2186,8.2186,8.2186,8.2186,8.2186,8.217,8.2088,8.0459,7.8963,7.8862,7.715,7.5709,7.5709,7.5709,7.5709,7.5709,7.5709,7.5709,7.5709,7.5709,7.5709,7.5709,7.5709,7.5743,7.5811,7.6555,7.7299,7.8044,7.8788,7.9498,8.0175,8.0209,8.0209,8.0209,8.0209,8.0124,7.9998,7.7165,7.5666,7.5319,7.2456,7.1051,4.0502,4.6215,5.2333,5.4665,5.8119,6.1337,6.2917,6.3559,6.4248,6.6049,6.6092,6.6521,6.8662,6.925,6.9651,7.0447,6.9957,6.995,7.1325,7.0809,7.0827,7.2326,7.2496,7.2686,7.3159,7.2775,7.27,7.3172,7.2761,7.2496,7.2496,7.2496,7.3215,7.483,7.4903,7.5674,7.7289,7.7289,7.7289,7.7289,7.7289,7.7289,7.7289,7.7289,7.7289,7.7289,7.7289,7.7289,7.7289,7.7289,7.7289,7.7289,7.7289,7.7289,7.7289,7.7289,7.7289,7.7289,7.7289,7.7289,7.7399,7.8112,7.7839,7.7729,8.0057,8.0277,8.0147,8.1746,8.2186,8.2186,8.2186,8.2186,8.2186,8.2186,8.2186,8.1969,8.1124,7.9918,7.874,7.7843,7.6599,7.5709,7.5709,7.5709,7.5709,7.5709,7.5709,7.5709,7.5709,7.5709,7.5709,7.5709,7.5709,7.5946,7.6589,7.7333,7.8077,7.8822,7.9566,8.004,8.0175,8.0209,8.0209,8.0209,8.0209,7.9598,7.8398,7.7719,7.6152,7.3779,7.3108,7.211,4.3121,4.8717,5.4025,5.7149,6.0313,6.2781,6.3198,6.4109,6.5385,6.7327,6.7519,6.7774,6.906,6.9826,7.0398,7.0821,7.044,7.0465,7.156,7.1228,7.1252,7.2347,7.2496,7.2756,7.3341,7.2871,7.2733,7.3353,7.2844,7.2496,7.2496,7.2863,7.3634,7.4867,7.527,7.6041,7.7289,7.7289,7.7289,7.7289,7.7289,7.7289,7.7289,7.7289,7.7289,7.7289,7.7289,7.7289,7.7289,7.7289,7.7289,7.7289,7.7289,7.7289,7.7289,7.7289,7.7289,7.7289,7.7289,7.7289,7.7436,7.8332,7.7986,7.7693,7.98,8.0147,8.0073,8.1269,8.1893,8.2186,8.2186,8.2186,8.2186,8.2186,8.2186,8.1919,8.0822,7.9765,7.8679,7.752,7.6416,7.5709,7.5709,7.5709,7.5709,7.5709,7.5709,7.5709,7.5709,7.5709,7.5709,7.5709,7.5709,7.5879,7.6284,7.7029,7.7773,7.8517,7.9261,7.9837,8.0175,8.0209,8.0209,8.0209,8.0209,7.9443,7.7882,7.7165,7.5579,7.3292,7.2518,7.1697,4.5326,5.0832,5.5508,5.9671,6.2008,6.3314,6.3314,6.4235,6.5719,6.7933,6.8345,6.8464,6.9099,7.0162,7.0898,7.0898,7.0805,7.0914,7.1415,7.1525,7.1717,7.2248,7.2422,7.2775,7.3492,7.2902,7.2789,7.3516,7.2889,7.2496,7.2496,7.3266,7.4074,7.4867,7.5689,7.6497,7.7289,7.7289,7.7289,7.7289,7.7289,7.7289,7.7289,7.7289,7.7289,7.7289,7.7289,7.7289,7.7289,7.7289,7.7289,7.7289,7.7289,7.7289,7.7289,7.7289,7.7289,7.7289,7.7289,7.7289,7.7472,7.8479,7.8096,7.7656,7.947,7.9926,7.9963,8.0791,8.1562,8.2186,8.2186,8.2186,8.2186,8.2186,8.2186,8.1919,8.0822,7.9765,7.8679,7.752,7.6416,7.5709,7.5709,7.5709,7.5709,7.5709,7.5709,7.5709,7.5709,7.5709,7.5709,7.5709,7.5709,7.5743,7.5879,7.6521,7.7266,7.8145,7.8754,7.9431,8.0175,8.0209,8.0209,8.0209,8.0209,7.9314,7.7495,7.6209,7.4644,7.286,7.1535,7.0889,3.9808,4.727,5.5129,5.9196,6.176,6.3314,6.3314,6.4235,6.5719,6.7933,6.8033,6.8311,7.028,7.0787,7.0898,7.0898,7.0509,7.0305,7.0619,7.0882,7.1119,7.1406,7.2078,7.293,7.4072,7.3159,7.2957,7.4094,7.3119,7.2496,7.2496,7.3266,7.4074,7.4867,7.5689,7.6497,7.7289,7.7289,7.7289,7.7289,7.7289,7.7289,7.7289,7.7289,7.7289,7.7289,7.7289,7.7289,7.7289,7.7289,7.7289,7.7289,7.7289,7.7289,7.7289,7.7289,7.7289,7.7289,7.7289,7.7289,7.7546,7.914,7.8589,7.7729,8.0131,8.0351,7.9963,8.0791,8.1562,8.2186,8.2186,8.2186,8.2186,8.2186,8.2186,8.1919,8.0822,7.9765,7.8679,7.752,7.6416,7.5709,7.5709,7.5709,7.5709,7.5709,7.5709,7.5709,7.5709,7.5709,7.5709,7.5709,7.5709,7.598,7.669,7.6826,7.7502,7.8889,7.9034,7.9431,8.0175,8.0209,8.0209,8.0209,8.0209,7.8776,7.5896,7.5695,7.4078,7.1212,7.0986,7.0889,4.2276,4.9524,5.567,5.9511,6.1908,6.3314,6.3314,6.4235,6.5505,6.6979,6.7215,6.7844,7.004,7.0463,7.0346,7.0052,6.9793,6.9737,7.0027,7.0555,7.1017,7.1281,7.2004,7.297,7.4183,7.3516,7.3353,7.4228,7.3504,7.2871,7.251,7.3707,7.4536,7.4903,7.6114,7.6922,7.7289,7.7289,7.7289,7.7289,7.7289,7.7289,7.7289,7.7289,7.7289,7.7289,7.7289,7.7289,7.7289,7.7289,7.7289,7.7289,7.7289,7.7289,7.7289,7.7289,7.7289,7.7289,7.7289,7.7289,7.7582,7.925,7.8993,7.8332,7.9874,8.0073,7.989,8.0241,8.0901,8.1636,8.2076,8.2186,8.2186,8.2186,8.2186,8.2088,8.1613,8.0182,7.8494,7.6724,7.602,7.5709,7.5709,7.5709,7.5709,7.5709,7.5709,7.5709,7.5709,7.5709,7.5709,7.5709,7.5709,7.5845,7.6183,7.6657,7.7367,7.8416,7.8889,7.9431,8.0175,8.0209,8.0209,8.0209,8.0209,7.8697,7.5608,7.5608,7.3989,7.0889,7.0889,7.0889,4.3188,4.9105,5.318,5.8004,6.0641,6.2213,6.297,6.3893,6.49,6.5973,6.6418,6.7206,6.9038,6.965,6.9766,6.9373,6.9302,6.9332,6.9376,7.0275,7.0906,7.0987,7.2005,7.3132,7.4194,7.3747,7.3638,7.4249,7.3615,7.297,7.2524,7.4023,7.4903,7.4903,7.6481,7.7289,7.7289,7.7289,7.7289,7.7289,7.7289,7.7289,7.7289,7.7289,7.7289,7.7289,7.7289,7.7289,7.7289,7.7289,7.7289,7.7289,7.7289,7.7289,7.7289,7.7289,7.7289,7.7289,7.7289,7.7289,7.7546,7.9029,7.8919,7.8405,7.9265,7.9522,7.9559,7.9743,8.0388,8.1195,8.2003,8.2186,8.2186,8.2186,8.2186,8.2035,8.1508,8.0126,7.8349,7.6137,7.5709,7.5709,7.5709,7.5709,7.5709,7.5709,7.5709,7.5709,7.5709,7.5709,7.5709,7.5709,7.5709,7.5709,7.5709,7.6251,7.6927,7.7671,7.8416,7.916,7.9904,8.0107,8.0209,8.0209,7.9811,7.8291,7.5608,7.5202,7.3596,7.0889,7.0889,7.0889,3.8182,4.1615,4.4912,5.2936,5.6758,5.927,6.2022,6.2939,6.3681,6.5285,6.5895,6.6404,6.7273,6.8474,6.9343,6.9313,6.9302,6.9116,6.863,6.9903,7.0733,7.023,7.2061,7.359,7.4239,7.3747,7.3638,7.4249,7.3211,7.2539,7.2496,7.4023,7.4903,7.4903,7.6481,7.7289,7.7289,7.7289,7.7289,7.7289,7.7289,7.7289,7.7289,7.7289,7.7289,7.7289,7.7289,7.7289,7.7289,7.7289,7.7289,7.7289,7.7289,7.7289,7.7289,7.7289,7.7289,7.7289,7.7289,7.7289,7.7436,7.8369,7.8075,7.7546,7.8405,7.8662,7.8809,7.9596,8.0388,8.1195,8.2003,8.2186,8.2186,8.2186,8.2186,8.1627,7.9595,7.9083,7.8349,7.6137,7.5709,7.5709,7.5709,7.5709,7.5709,7.5709,7.5709,7.5709,7.5709,7.5709,7.5709,7.5709,7.5709,7.5709,7.5709,7.5743,7.6115,7.6893,7.7638,7.8382,7.9126,7.9837,8.0209,8.0209,7.875,7.7221,7.5608,7.411,7.255,7.0889,7.0889,7.0889,3.5554,3.941,4.3371,4.9236,5.3311,5.6611,5.9229,6.1289,6.2967,6.409,6.4999,6.5669,6.5964,6.7535,6.8671,6.8345,6.8284,6.8198,6.7996,6.9347,7.0324,7.0115,7.2063,7.3492,7.3687,7.3876,7.4072,7.4282,7.3554,7.3066,7.3066,7.376,7.4368,7.4867,7.5968,7.6775,7.7289,7.7289,7.7289,7.7289,7.7289,7.7289,7.7289,7.7289,7.7289,7.7289,7.7289,7.7289,7.7289,7.7289,7.7289,7.7289,7.7289,7.7289,7.7289,7.7289,7.7289,7.7289,7.7289,7.7289,7.7436,7.8332,7.8405,7.8185,7.8516,7.8589,7.8772,7.9559,8.0,8.0534,8.1856,8.2186,8.2186,8.2186,8.1681,8.0786,7.9302,7.8432,7.7489,7.5973,7.5709,7.5709,7.5709,7.5709,7.5709,7.5709,7.5709,7.5709,7.5709,7.5709,7.5709,7.5709,7.5709,7.5709,7.5709,7.5709,7.6048,7.686,7.757,7.8314,7.9067,7.9803,8.0209,8.0209,7.7719,7.6152,7.5579,7.3988,7.2425,7.0889,7.0889,7.0889,3.2164,3.5913,4.0208,4.5686,4.8981,5.2121,5.6931,5.9233,6.0842,6.2558,6.3984,6.4971,6.5251,6.6702,6.779,6.7707,6.77,6.77,6.77,6.9096,7.011,7.011,7.2063,7.3404,7.3404,7.3758,7.4003,7.4003,7.3442,7.3093,7.3093,7.3723,7.4588,7.5674,7.6225,7.6738,7.7289,7.7289,7.7289,7.7289,7.7289,7.7289,7.7289,7.7289,7.7289,7.7289,7.7289,7.7289,7.7289,7.7289,7.7289,7.7289,7.7289,7.7289,7.7289,7.7289,7.7289,7.7289,7.7289,7.7289,7.7399,7.7986,7.8185,7.8185,7.8185,7.8185,7.8405,7.9486,7.9816,8.0183,8.1799,8.2186,8.2186,8.2186,8.1124,7.988,7.9143,7.8119,7.6959,7.5913,7.5709,7.5709,7.5709,7.5709,7.5709,7.5709,7.5709,7.5709,7.5709,7.5709,7.5709,7.5709,7.5709,7.5709,7.5709,7.5709,7.5912,7.6454,7.7198,7.7841,7.8348,7.9329,7.9837,7.9837,7.756,7.6124,7.5579,7.3475,7.192,7.0889,7.0889,7.0889,0.0,0.0,0.0,4.2057,4.3609,4.5795,5.5025,5.6562,5.7131,6.0734,6.2781,6.4225,6.5118,6.5925,6.6769,6.7554,6.7664,6.77,6.77,6.9059,7.0073,7.011,7.2026,7.3354,7.3379,7.3391,7.3404,7.3404,7.2844,7.2496,7.2524,7.4037,7.5637,7.7179,7.7289,7.7289,7.7289,7.7289,7.7289,7.7289,7.7289,7.7289,7.7289,7.7289,7.7289,7.7289,7.7289,7.7289,7.7289,7.7289,7.7289,7.7289,7.7289,7.7289,7.7289,7.7289,7.7289,7.7289,7.7289,7.7289,7.7289,7.7289,7.7289,7.7289,7.7289,7.7289,7.7656,7.9286,7.9779,8.0183,8.1799,8.2186,8.2186,8.2186,8.0568,7.9003,7.9003,7.8077,7.6915,7.5913,7.5709,7.5709,7.5709,7.5709,7.5709,7.5709,7.5709,7.5709,7.5709,7.5709,7.5709,7.5709,7.5709,7.5709,7.5709,7.5709,7.5709,7.5709,7.6454,7.6893,7.6893,7.8314,7.9067,7.9101,7.8245,7.705,7.5579,7.2487,7.0921,7.0889,7.0889,7.0889,2.6718,0.0,0.0,0.0,0.0,0.0,4.7,4.9611,5.24,5.7867,5.955,6.0944,6.3896,6.5558,6.6549,6.6806,6.7333,6.77,6.77,6.8568,6.9449,7.0036,7.1545,7.2581,7.2715,7.3145,7.3404,7.3404,7.2844,7.27,7.3119,7.4253,7.5087,7.5564,7.6702,7.7289,7.7289,7.7289,7.7289,7.7289,7.7289,7.7289,7.7289,7.7289,7.7289,7.7289,7.7289,7.7289,7.7289,7.7289,7.7289,7.7289,7.7289,7.7289,7.7289,7.7289,7.7289,7.7289,7.7289,7.7289,7.7289,7.7289,7.7289,7.7289,7.7289,7.7289,7.7546,7.8626,7.9339,8.0183,8.1799,8.2186,8.2186,8.2186,8.0568,7.9003,7.9003,7.7489,7.6043,7.5747,7.5709,7.5709,7.5709,7.5709,7.5709,7.5709,7.5709,7.5709,7.5709,7.5709,7.5709,7.5709,7.5709,7.5709,7.5709,7.5709,7.5709,7.5709,7.6454,7.6893,7.6893,7.7807,7.8551,7.9092,7.667,7.5499,7.5579,7.3627,7.2046,7.0889,7.0889,7.0889,2.7266,2.9205,3.1831,3.369,0.0,0.0,4.5186,4.7675,5.0488,5.7124,5.9173,6.0554,6.31,6.4604,6.5595,6.5925,6.6402,6.6916,6.7627,6.8385,6.9082,6.9522,7.0934,7.1864,7.1988,7.2632,7.3037,7.3037,7.2714,7.2805,7.3492,7.438,7.505,7.5395,7.6628,7.7289,7.7289,7.7289,7.7289,7.7289,7.7289,7.7289,7.7289,7.7289,7.7289,7.7289,7.7289,7.7289,7.7289,7.7289,7.7289,7.7289,7.7289,7.7289,7.7289,7.7289,7.7289,7.7289,7.7289,7.7289,7.7289,7.7289,7.7289,7.7289,7.7289,7.7289,7.7472,7.8369,7.9396,8.0498,8.1452,8.1929,8.2104,8.1647,8.0219,7.8862,7.8391,7.6927,7.5709,7.5709,7.5709,7.5709,7.5709,7.5709,7.5709,7.5709,7.5709,7.5709,7.5709,7.5709,7.5709,7.5709,7.5709,7.5709,7.5709,7.5709,7.5709,7.5709,7.6149,7.6386,7.6386,7.713,7.7874,7.8619,7.6529,7.5192,7.4646,7.3046,7.1824,7.0889,7.0889,7.0889,2.9066,3.0214,3.2345,3.5165,3.4981,0.0,4.5773,4.749,4.9125,5.6161,5.8692,6.0038,6.1374,6.2328,6.3135,6.3967,6.4444,6.5411,6.7297,6.8164,6.8715,6.8898,7.0169,7.1087,7.127,7.1931,7.2422,7.2496,7.2496,7.2826,7.3538,7.4331,7.5139,7.5946,7.6738,7.7215,7.7289,7.7289,7.7289,7.7289,7.7289,7.7289,7.7289,7.7289,7.7289,7.7289,7.7289,7.7289,7.7289,7.7289,7.7289,7.7289,7.7289,7.7289,7.7289,7.7289,7.7289,7.7289,7.7289,7.7289,7.7289,7.7289,7.7289,7.7289,7.7289,7.7289,7.7472,7.8369,7.9617,8.0755,8.0828,8.1415,8.1679,8.0713,7.9641,7.8573,7.7541,7.6439,7.5709,7.5709,7.5709,7.5709,7.5709,7.5709,7.5709,7.5709,7.5709,7.5709,7.5709,7.5709,7.5709,7.5709,7.5709,7.5709,7.5709,7.5709,7.5709,7.5709,7.5709,7.5709,7.5709,7.6386,7.7096,7.7841,7.7018,7.5358,7.2922,7.1539,7.0889,7.0889,7.0889,7.0889,3.1361,3.205,3.333,3.3323,3.4578,0.0,3.7507,3.8929,4.1378,4.6489,4.7499,4.8798,5.3288,5.4766,5.5611,5.6418,5.9233,6.2622,6.6219,6.688,6.7467,6.8752,6.9192,6.9876,7.116,7.1454,7.1784,7.2459,7.2496,7.2569,7.2716,7.3487,7.4294,7.5124,7.5909,7.6628,7.7289,7.7289,7.7289,7.7289,7.7289,7.7289,7.7289,7.7289,7.7289,7.7289,7.7289,7.7289,7.7289,7.7289,7.7289,7.7289,7.7289,7.7289,7.7289,7.7289,7.7289,7.7289,7.7289,7.7289,7.7289,7.7289,7.7289,7.7289,7.7289,7.7289,7.7472,7.8369,7.8809,7.9213,7.989,8.0147,8.0141,7.9735,7.88,7.7918,7.7416,7.6439,7.5709,7.5709,7.5709,7.5709,7.5709,7.5709,7.5709,7.5709,7.5709,7.5709,7.5709,7.5709,7.5709,7.5709,7.5709,7.5709,7.5709,7.5709,7.5709,7.5709,7.5709,7.5709,7.5709,7.5845,7.6318,7.7096,7.5683,7.3552,7.0622,7.0811,7.0889,7.0889,7.0889,7.0889,3.3333,3.3476,3.4497,3.4945,3.5341,0.0,0.0,3.8472,3.9734,4.4845,4.5079,4.5534,4.9446,5.0462,5.1159,5.2417,5.5647,5.8584,6.0236,6.3943,6.6953,6.8164,6.8678,6.9215,7.0022,7.083,7.1637,7.2459,7.2496,7.2496,7.2496,7.3266,7.4074,7.4867,7.5689,7.6497,7.7289,7.7289,7.7289,7.7289,7.7289,7.7289,7.7289,7.7289,7.7289,7.7289,7.7289,7.7289,7.7289,7.7289,7.7289,7.7289,7.7289,7.7289,7.7289,7.7289,7.7289,7.7289,7.7289,7.7289,7.7289,7.7289,7.7289,7.7289,7.7289,7.7289,7.7399,7.7839,7.8259,7.8699,7.9103,7.9522,7.9588,7.878,7.8203,7.7579,7.6699,7.609,7.5709,7.5709,7.5709,7.5709,7.5709,7.5709,7.5709,7.5709,7.5709,7.5709,7.5709,7.5709,7.5709,7.5709,7.5709,7.5709,7.5709,7.5709,7.5709,7.5709,7.5709,7.5709,7.5709,7.5709,7.535,7.4679,7.3852,7.2114,6.9482,7.0141,7.062,7.0889,7.0889,7.0889,3.5899,3.5562,3.6399,3.7265,3.6707,3.6765,0.0,0.0,0.0,4.3884,4.3737,4.3562,4.5984,4.6324,4.6764,4.8416,5.1389,5.3345,5.2821,5.9061,6.4163,6.5461,6.7136,6.8164,6.7981,6.9142,7.0499,7.1945,7.1468,7.1468,7.2239,7.3046,7.3927,7.4867,7.5542,7.6335,7.7289,7.7289,7.7289,7.7289,7.7289,7.7289,7.7289,7.7289,7.7289,7.7289,7.7289,7.7289,7.7289,7.7289,7.7289,7.7289,7.7289,7.7289,7.7289,7.7289,7.7289,7.7289,7.7289,7.7289,7.7289,7.7289,7.7289,7.7289,7.7289,7.7289,7.7289,7.7289,7.7803,7.8369,7.8369,7.8809,7.8999,7.7659,7.7351,7.6994,7.5752,7.5473,7.554,7.5676,7.5709,7.5709,7.5709,7.5709,7.5709,7.5709,7.5709,7.5709,7.5709,7.5709,7.5709,7.5709,7.5709,7.5709,7.5709,7.5709,7.5709,7.5709,7.5709,7.5709,7.5709,7.5436,7.4321,7.2279,7.2013,7.0893,6.8794,6.9482,7.0111,7.0739,7.0739,7.0799,4.0275,3.979,3.9929,3.8006,3.8439,3.8542,3.5459,0.0,3.6523,3.6399,0.0,3.6876,3.9342,0.0,0.0,4.0899,4.3828,4.6168,4.6764,5.0765,5.473,5.7703,6.2572,6.5448,6.4727,6.4787,6.6439,7.011,6.7724,6.7674,7.1233,7.2202,7.334,7.483,7.4977,7.5784,7.7289,7.7289,7.7289,7.7289,7.7289,7.7289,7.7289,7.7289,7.7289,7.7289,7.7289,7.7289,7.7289,7.7289,7.7289,7.7289,7.7289,7.7289,7.7289,7.7289,7.7289,7.7289,7.7289,7.7289,7.7289,7.7289,7.7289,7.7289,7.7289,7.7289,7.7289,7.7289,7.7362,7.7436,7.7436,7.7509,7.7251,7.5985,7.5668,7.5499,7.4866,7.4705,7.4931,7.5574,7.5709,7.5709,7.5709,7.5709,7.5709,7.5709,7.5709,7.5709,7.5709,7.5709,7.5709,7.5709,7.5709,7.5709,7.5709,7.5709,7.5709,7.5709,7.5709,7.5709,7.5709,7.4481,7.3102,7.1543,7.0822,6.9667,6.8107,6.8764,6.9453,7.0081,7.0081,7.038,4.0752,4.1156,4.1919,3.9504,3.9753,3.9643,3.6083,3.4688,3.4314,3.4887,0.0,0.0,0.0,0.0,0.0,0.0,4.0516,4.2388,4.1809,4.603,5.0719,5.4913,5.7519,5.9942,6.2414,6.2671,6.453,6.9045,6.6439,6.6549,7.105,7.1637,7.2518,7.4147,7.4647,7.5454,7.6592,7.7069,7.7289,7.7289,7.7289,7.7289,7.7289,7.7289,7.7289,7.7289,7.7289,7.7289,7.7289,7.7289,7.7289,7.7289,7.7289,7.7289,7.7289,7.7289,7.7289,7.7289,7.7289,7.7289,7.7289,7.7289,7.7289,7.7289,7.7289,7.7289,7.7289,7.7289,7.7289,7.7181,7.6579,7.6412,7.6089,7.482,7.4531,7.4413,7.4048,7.4289,7.4671,7.4999,7.5405,7.5709,7.5709,7.5709,7.5709,7.5709,7.5709,7.5709,7.5709,7.5709,7.5709,7.5709,7.5709,7.5709,7.5709,7.5709,7.5709,7.5709,7.5709,7.5306,7.4539,7.3096,7.1632,7.0171,6.9354,6.8424,6.7449,6.8107,6.8586,6.8856,6.9664,7.0143,4.2653,4.313,4.3681,4.0377,4.001,3.9599,3.634,3.4761,3.4204,3.5151,3.4504,0.0,0.0,0.0,3.5459,3.6457,0.0,3.9525,3.791,4.1397,4.5874,5.0545,5.2454,5.506,5.9208,5.8852,6.0615,6.6132,6.3796,6.4494,7.0022,7.094,7.1931,7.334,7.4368,7.527,7.6093,7.6885,7.7289,7.7289,7.7289,7.7289,7.7289,7.7289,7.7289,7.7289,7.7289,7.7289,7.7289,7.7289,7.7289,7.7289,7.7289,7.7289,7.7289,7.7289,7.7289,7.7289,7.7289,7.7289,7.7289,7.7289,7.7289,7.7289,7.7289,7.7289,7.7289,7.7289,7.7289,7.7066,7.6061,7.5787,7.5424,7.397,7.3573,7.352,7.3277,7.3612,7.4119,7.4525,7.5033,7.5473,7.5676,7.5709,7.5709,7.5709,7.5709,7.5709,7.5709,7.5709,7.5709,7.5709,7.5709,7.5709,7.5709,7.5709,7.5709,7.5709,7.534,7.4662,7.3643,7.1794,7.0312,6.923,6.8243,6.7508,6.6999,6.7508,6.7748,6.7778,6.9093,6.9812,4.7957,4.6929,4.5645,4.0112,3.8755,3.7918,3.4614,3.5686,3.7125,3.642,3.8072,3.9651,3.9724,3.9093,3.8322,3.7566,3.7566,0.0,0.0,3.6002,3.8138,4.2213,4.7572,5.1903,5.4399,5.1803,5.2941,6.0126,5.8389,6.0199,6.7444,7.0036,7.1674,7.2496,7.4059,7.527,7.6093,7.6885,7.7289,7.7289,7.7289,7.7289,7.7289,7.7289,7.7289,7.7289,7.7289,7.7289,7.7289,7.7289,7.7289,7.7289,7.7289,7.7289,7.7289,7.7289,7.7289,7.7289,7.7289,7.7289,7.7289,7.7289,7.7289,7.7289,7.7289,7.7289,7.7289,7.7289,7.7289,7.7066,7.6061,7.5787,7.5316,7.3307,7.2832,7.2761,7.2474,7.2462,7.2902,7.4299,7.4603,7.4864,7.5574,7.5709,7.5709,7.5709,7.5709,7.5709,7.5709,7.5709,7.5709,7.5709,7.5709,7.5709,7.5709,7.5709,7.5709,7.5709,7.4414,7.365,7.3617,7.081,6.9259,6.9201,6.7759,6.6999,6.6999,6.6999,6.7029,6.7059,6.8405,6.9363,4.9911,5.0719,5.0425,4.4223,4.3048,4.2066,3.667,3.653,3.7272,3.6457,3.8219,3.9761,3.9203,3.8872,3.8432,0.0,0.0,3.6127,0.0,3.4938,3.6369,3.8843,4.3644,4.7085,4.7893,4.9444,5.227,5.687,5.7446,6.0309,6.6549,6.8678,7.0316,7.1674,7.3266,7.4478,7.5322,7.6093,7.6775,7.7289,7.7289,7.7289,7.7289,7.7289,7.7289,7.7289,7.7289,7.7289,7.7289,7.7289,7.7289,7.7289,7.7289,7.7289,7.7289,7.7289,7.7289,7.7289,7.7289,7.7289,7.7289,7.7289,7.7289,7.7289,7.7289,7.7289,7.7289,7.7289,7.6824,7.6061,7.5048,7.431,7.3492,7.2142,7.1808,7.1778,7.1684,7.2056,7.2563,7.3037,7.395,7.4695,7.4931,7.5371,7.5709,7.5709,7.5709,7.5709,7.5709,7.5709,7.5709,7.5709,7.5709,7.5709,7.5709,7.5709,7.5709,7.5709,7.4356,7.3147,7.2169,7.0255,6.8737,6.7759,6.7244,6.6999,6.6999,6.6999,6.6999,6.7029,6.8375,6.9123,5.2307,5.3225,5.3041,4.7379,4.6361,4.5296,3.9717,3.9504,4.0275,3.946,4.0524,4.1809,4.2433,4.1148,3.9717,0.0,0.0,3.5502,0.0,3.3653,3.4644,3.6016,4.0194,4.3562,4.4993,4.5957,4.904,5.5144,5.5511,5.8437,6.5264,6.7724,6.9522,7.083,7.2716,7.3927,7.4478,7.5579,7.635,7.6885,7.7179,7.7289,7.7289,7.7289,7.7289,7.7289,7.7289,7.7289,7.7289,7.7289,7.7289,7.7289,7.7289,7.7289,7.7289,7.7289,7.7289,7.7289,7.7289,7.7289,7.7289,7.7289,7.7289,7.7289,7.7289,7.7289,7.7289,7.7289,7.6579,7.5562,7.4554,7.3571,7.254,7.1546,7.1289,7.1289,7.1289,7.1684,7.209,7.236,7.3375,7.4289,7.4536,7.5202,7.5709,7.5709,7.5709,7.5709,7.5709,7.5709,7.5709,7.5709,7.5709,7.5709,7.5709,7.5709,7.5709,7.5709,7.4356,7.294,7.1442,6.9973,6.8502,6.7029,6.6999,6.6999,6.6999,6.6999,6.7119,6.7389,6.8226,6.8884]}]]